GFSNGP_700_rhum_003.txt.gz
RH
46 45 43 39 34 33 31 30 39 23 25 18 20 24 34 44 49 55 58 56 55 53 53 56 61 64 66 65 67 69 71 76 75 76 70 60 54 49 44 39 30 19 9 6
34 25 20 17 17 18 18 19 21 21 29 37 41 44 50 53 54 55 56 58 56 56 58 60 64 66 67 70 73 79 82 77 71 67 60 52 43 29 13 2 0 0 0 0
32 39 39 40 36 41 42 44 45 44 44 45 48 50 53 55 58 60 59 59 62 65 69 70 71 73 80 76 85 88 79 75 70 57 40 18 7 5 5 5 4 4 3 2
49 52 67 44 42 40 41 42 48 48 48 52 55 58 59 59 60 60 64 68 73 75 78 75 78 83 83 90 90 83 81 76 57 26 12 10 9 8 7 7 6 6 5 4
60 66 50 39 41 46 51 51 54 49 53 57 59 60 60 60 64 67 70 71 79 92 94 98 96 97 96 86 85 85 82 61 25 12 12 11 10 10 10 9 8 7 6 5
67 66 77 57 54 55 57 51 58 62 63 61 62 69 73 70 76 83 85 90 96 98 92 97 98 94 85 85 87 85 52 19 12 12 13 13 14 14 12 11 9 8 7 6
70 72 60 54 58 62 61 67 70 73 76 78 78 79 84 86 94 91 99 99 98 96 85 86 90 88 87 89 78 39 14 11 14 16 17 18 18 16 14 12 12 10 9 7
75 77 74 68 76 78 79 84 84 82 83 82 84 86 81 92 99 100 98 96 95 85 88 93 96 92 82 53 20 10 11 15 18 21 22 22 21 18 16 15 14 11 9 8
70 62 74 82 81 83 80 80 79 79 85 94 99 99 97 97 96 94 90 92 95 93 92 97 95 82 25 7 8 11 14 16 21 25 25 26 24 20 18 16 13 11 10 11
68 55 64 69 71 72 74 71 62 65 83 94 92 88 89 96 100 96 92 95 94 98 97 97 83 22 5 9 12 13 14 19 27 29 29 30 26 21 18 15 12 11 12 16
65 52 59 50 58 42 34 36 60 71 59 51 54 64 80 85 88 94 92 86 96 98 96 90 43 6 11 14 14 14 21 32 35 34 33 32 25 20 16 13 13 15 19 26
35 40 32 21 24 34 49 51 47 43 45 46 49 52 53 55 70 83 85 95 98 94 57 9 7 11 14 15 20 32 41 41 38 37 35 28 22 18 14 13 15 19 25 35
36 28 36 50 46 41 40 39 38 42 45 48 50 53 64 75 76 89 91 91 65 16 10 11 12 15 20 32 44 48 48 45 43 39 29 22 17 15 15 14 18 25 32 34
48 41 36 37 36 35 36 38 42 45 48 50 54 69 82 78 86 92 51 17 15 14 14 16 21 35 48 55 57 54 51 48 42 33 26 20 17 18 24 29 29 26 31 36
36 35 36 37 39 42 42 45 48 50 49 51 60 77 88 99 61 32 23 18 15 16 24 38 51 59 62 62 61 57 55 49 37 30 24 22 25 29 35 40 42 41 37 36
42 45 45 45 49 48 45 45 50 48 39 51 72 96 96 81 49 26 19 16 18 35 51 56 56 58 62 64 61 58 51 40 33 30 24 26 30 35 41 49 49 46 43 43
46 46 49 51 53 52 45 43 38 25 26 56 85 92 78 45 26 19 14 25 44 56 59 61 59 62 64 64 61 52 43 36 34 28 28 31 33 42 51 53 52 50 50 50
52 50 51 54 55 50 42 37 33 24 26 50 61 51 34 24 17 16 33 51 58 64 71 68 65 62 61 59 50 42 38 37 30 30 33 36 43 52 58 61 59 56 54 53
52 51 54 56 58 53 52 43 28 24 25 29 28 24 22 22 32 49 58 63 70 72 65 62 61 57 51 44 43 39 35 30 31 35 39 47 56 62 62 63 63 61 62 60
60 60 57 61 62 63 48 33 31 30 29 28 30 38 45 46 51 58 68 72 71 68 63 58 48 42 44 43 37 30 29 32 36 43 53 62 67 68 67 67 68 71 74 71
56 60 64 64 65 50 42 44 46 49 51 54 58 60 61 62 68 75 69 59 60 57 52 45 46 46 35 27 26 29 36 41 50 60 65 64 65 67 70 76 79 86 85 80
66 67 73 71 58 50 53 55 60 65 67 68 64 67 73 76 73 65 66 60 49 46 45 40 28 24 27 31 34 40 49 58 64 66 66 66 70 76 82 90 93 92 92 87
66 70 81 73 61 61 64 69 74 77 80 81 80 82 82 73 67 56 42 43 45 41 26 24 28 31 34 38 46 55 62 66 69 71 71 74 79 83 91 94 95 95 92 88
72 80 86 69 66 66 71 77 80 86 90 91 91 89 76 65 50 44 43 44 30 25 25 29 32 35 42 52 60 65 68 69 70 72 75 79 83 88 91 94 93 94 92 87
78 88 89 66 73 81 79 83 87 90 90 89 85 77 69 50 42 45 41 27 25 27 29 31 36 48 59 64 65 64 65 70 75 80 83 89 95 98 97 96 95 95 90 85
87 98 84 80 91 89 88 92 94 90 82 73 75 59 44 47 50 36 26 24 28 31 32 38 48 62 64 66 66 66 68 75 84 88 93 96 99 99 98 98 94 95 95 86
97 97 96 94 91 93 96 90 80 73 73 63 44 48 50 46 35 26 26 31 33 34 38 46 60 65 67 66 65 69 75 83 92 95 97 100 100 100 100 99 93 93 92 83

GFSNGP_700_rhum_006.txt.gz
RH
49 46 52 54 52 49 46 44 42 36 33 31 37 41 37 34 36 53 56 56 58 60 61 65 64 66 69 66 70 76 82 82 82 76 74 68 63 57 44 26 15 11 9 8
47 44 39 37 42 43 43 42 35 30 21 34 43 44 47 53 55 54 57 59 61 65 69 71 67 73 86 87 87 88 91 89 80 78 74 71 53 29 16 13 11 10 10 9
31 28 25 29 27 30 26 24 32 43 45 46 47 49 52 55 58 61 63 66 69 72 73 72 84 87 87 74 70 75 91 88 84 81 74 50 26 15 12 12 12 12 12 10
33 37 59 39 46 47 48 48 49 51 53 54 53 53 59 63 64 67 69 72 70 77 78 81 83 85 90 75 75 91 89 84 82 75 51 25 13 13 15 15 16 16 15 14
54 57 48 50 48 49 51 55 55 54 53 53 52 49 58 64 66 66 65 65 78 83 87 93 98 99 87 78 89 94 90 85 65 34 15 12 14 16 19 20 21 21 20 17
63 63 68 57 55 52 48 56 49 49 53 58 53 57 58 60 64 74 74 86 92 98 98 100 95 89 88 88 92 92 83 56 22 10 13 14 14 19 24 27 27 27 24 20
63 65 55 55 60 57 57 44 52 62 62 62 72 75 74 77 75 81 83 95 96 98 98 90 85 89 93 96 96 81 43 14 9 12 12 13 17 28 31 31 31 30 26 21
68 73 68 60 67 62 59 67 69 71 74 76 77 71 74 84 82 85 94 98 100 100 93 87 84 94 98 95 89 70 23 8 11 11 12 21 32 36 37 36 34 29 22 18
53 58 58 63 63 66 73 79 77 76 71 68 65 80 79 66 72 94 99 99 100 100 99 89 93 100 95 90 75 33 8 10 11 12 28 41 42 42 41 38 29 23 18 15
61 59 66 80 82 80 79 76 68 54 51 44 46 50 53 56 55 61 67 83 90 92 87 93 99 97 71 27 8 8 10 12 20 39 45 45 45 45 42 31 23 19 16 17
61 59 58 60 64 65 57 46 46 33 32 36 38 39 40 44 49 52 59 69 72 80 96 100 83 30 10 9 10 13 20 38 46 46 46 46 48 45 36 29 22 21 22 27
37 38 36 37 39 40 37 34 34 35 36 35 36 39 43 45 48 56 68 75 79 87 86 46 17 12 12 14 23 42 46 44 47 51 50 52 48 42 34 27 22 25 29 36
25 28 32 31 32 35 35 35 35 37 37 37 40 45 48 47 46 57 75 78 81 64 24 17 14 14 25 45 50 48 47 48 52 54 54 50 42 35 29 23 22 26 32 38
33 34 33 36 39 40 40 42 40 38 40 42 46 47 41 41 54 78 82 76 44 26 16 14 20 40 54 53 53 52 50 54 55 53 49 42 36 32 26 24 25 26 31 42
39 43 46 45 46 45 45 42 37 39 40 41 40 32 35 60 87 88 68 38 23 16 16 28 46 56 57 57 52 48 51 51 50 44 39 37 34 28 27 31 33 35 39 42
47 47 51 52 50 48 43 37 39 41 39 35 32 29 42 72 83 59 32 22 16 19 37 53 57 58 58 52 51 50 49 45 41 40 39 33 29 30 33 37 43 49 50 51
50 57 55 49 45 39 37 40 45 45 46 45 33 36 57 56 36 24 22 21 30 49 58 57 53 56 52 54 50 42 37 39 42 37 30 29 32 35 40 48 56 61 60 57
56 52 48 45 41 40 41 47 51 53 45 30 27 29 27 26 26 31 39 49 55 57 61 54 54 49 45 40 38 39 35 27 25 28 31 34 38 43 55 65 65 63 61 59
42 42 48 50 45 44 48 52 53 46 36 35 36 37 40 45 52 56 58 58 57 44 43 47 44 38 35 37 31 21 21 25 28 31 33 39 48 56 61 65 65 64 67 71
40 36 40 49 48 50 57 58 52 45 45 46 49 54 59 63 63 60 58 54 59 47 43 38 33 33 29 20 20 22 26 27 29 34 45 56 63 64 66 68 70 74 76 82
37 34 32 36 45 56 66 63 53 54 56 57 63 67 67 68 70 66 59 47 55 47 37 36 36 24 18 18 21 24 27 35 46 54 57 60 63 65 68 72 77 82 87 92
34 36 55 59 61 72 78 67 62 63 64 65 70 73 74 72 68 65 67 59 45 40 39 35 23 18 20 24 24 27 36 48 55 57 58 63 66 71 76 80 84 86 92 93
51 55 63 54 61 76 79 72 68 68 67 70 76 82 81 70 64 57 50 48 42 44 36 23 20 25 27 26 30 37 47 55 59 60 63 67 70 79 85 86 88 90 93 93
54 65 57 66 75 83 84 71 74 80 75 77 85 88 79 61 58 67 48 46 48 40 26 22 27 29 29 29 35 48 56 59 59 63 70 74 79 84 87 89 90 92 95 94
57 71 76 80 84 94 88 79 85 87 81 85 91 83 68 68 53 46 51 52 43 28 22 28 30 30 31 37 48 55 59 60 63 68 72 78 86 90 94 95 96 94 93 90
68 70 79 85 92 96 94 91 88 88 89 86 69 67 63 53 53 55 54 43 28 24 29 32 32 32 34 46 56 61 61 63 69 73 81 87 91 93 94 96 96 92 93 90
64 72 81 87 92 95 95 94 92 90 66 57 56 54 53 53 51 47 38 27 26 32 36 36 35 36 45 57 62 63 63 69 78 83 88 92 92 93 94 96 96 94 89 85

GFSNGP_700_rhum_009.txt.gz
RH
51 51 48 46 44 48 54 52 50 45 42 41 44 48 46 47 48 40 52 57 59 62 70 71 72 71 71 82 83 71 79 83 70 62 68 73 73 73 69 53 33 17 13 14
54 51 51 56 57 57 55 53 51 50 48 43 29 38 44 47 52 55 55 58 62 67 71 71 73 75 71 72 76 70 81 87 69 70 78 81 82 67 44 22 13 13 12 12
48 47 42 34 38 46 50 48 46 47 36 36 47 50 51 50 50 52 60 64 69 69 73 76 70 65 66 71 86 100 94 70 80 85 88 84 62 34 16 12 11 9 13 20
29 34 50 33 31 36 41 38 41 42 48 52 55 56 56 54 61 67 67 65 65 62 55 57 78 86 88 97 100 89 68 84 90 92 87 58 30 12 11 9 8 13 21 28
36 44 36 47 45 49 49 52 51 54 55 54 54 52 59 61 55 56 55 51 52 51 63 88 94 96 100 98 70 74 90 96 96 86 49 19 11 10 9 8 13 26 31 30
51 57 63 52 55 55 55 56 57 55 55 54 53 56 53 46 45 39 42 51 71 79 97 100 100 100 91 76 78 82 91 97 90 51 24 14 10 9 10 24 32 32 28 34
60 59 54 54 58 58 56 43 39 51 55 54 56 52 46 36 36 41 44 49 67 87 95 98 98 95 90 87 83 94 99 88 59 19 9 9 10 19 31 32 30 34 35 37
68 66 63 53 52 57 52 48 49 58 56 54 56 50 37 30 27 31 38 45 53 66 60 78 80 88 87 81 90 93 75 30 10 9 11 18 31 34 31 35 40 40 39 36
58 57 53 49 53 55 54 56 58 61 64 68 52 30 25 27 29 32 37 45 54 56 57 60 76 72 80 88 81 47 14 10 12 14 31 39 30 30 36 40 43 41 36 28
62 59 55 57 64 69 70 70 71 72 62 37 26 26 27 27 32 37 42 44 46 50 61 72 78 87 79 50 22 13 12 13 26 42 41 29 32 37 41 45 42 35 28 24
61 63 61 62 64 65 63 55 53 47 30 26 27 26 28 32 35 38 42 46 54 61 71 80 84 60 30 19 14 13 21 43 48 45 34 31 32 35 40 37 35 32 28 25
57 52 58 59 53 51 49 40 33 27 28 28 29 30 32 34 38 42 41 46 58 70 82 78 53 29 18 14 18 38 51 52 43 33 31 31 30 28 32 33 31 27 27 31
46 43 44 48 36 35 34 29 28 32 34 34 30 31 36 39 39 35 40 52 70 82 75 52 28 16 16 29 49 54 50 36 30 32 30 31 30 31 28 22 22 24 30 34
28 29 34 32 31 33 37 39 41 41 39 29 30 36 38 35 32 33 43 68 78 70 42 23 18 22 43 52 50 40 34 35 34 30 28 30 26 20 20 22 23 27 30 35
34 31 29 32 36 40 45 45 43 36 26 27 36 39 40 40 37 43 54 60 46 27 22 23 37 50 51 43 32 31 33 29 26 26 21 18 19 20 24 27 30 33 37 44
36 37 38 44 47 48 44 41 33 28 29 35 41 45 44 35 34 37 34 28 25 29 42 48 49 46 35 31 31 30 26 28 24 16 17 20 23 25 27 30 37 44 49 51
46 50 50 46 44 45 44 41 38 35 37 43 45 42 35 30 30 30 32 38 47 52 54 50 41 35 34 33 27 26 26 19 16 18 22 23 24 29 36 43 49 54 57 55
48 46 42 44 48 44 36 34 40 41 44 46 45 41 40 40 42 46 48 50 53 56 59 51 44 40 34 30 30 27 18 16 18 22 24 26 31 40 49 57 59 58 57 56
44 47 46 39 31 20 18 30 33 44 52 53 48 48 49 50 55 59 60 60 61 51 49 50 47 37 34 34 27 18 16 20 22 23 28 35 44 49 51 55 57 60 63 65
46 33 34 23 12 14 17 29 43 54 62 58 55 57 58 61 65 69 72 72 73 57 48 50 39 36 35 30 20 16 21 22 23 28 38 48 51 51 52 57 61 68 71 74
38 23 12 9 18 26 34 43 51 68 70 66 64 65 66 69 73 78 82 76 71 60 55 42 41 39 32 21 16 21 25 26 29 38 46 51 51 53 56 62 68 75 78 83
13 8 7 8 25 44 41 37 51 69 75 74 71 74 75 76 81 87 91 76 54 50 40 41 40 35 23 18 22 27 28 30 34 43 52 55 55 58 61 67 73 75 82 85
8 7 8 13 25 50 59 65 74 81 81 75 75 84 87 88 91 92 65 56 49 44 42 40 36 27 20 22 29 30 32 33 41 55 57 57 58 63 67 72 77 80 84 85
9 7 8 16 43 54 64 76 80 89 85 73 78 97 97 94 92 76 57 48 45 43 39 36 28 22 25 31 32 32 36 42 52 58 59 61 64 66 73 78 81 84 86 86
8 11 14 26 50 66 72 84 92 94 90 94 100 100 99 85 52 46 46 46 44 39 33 26 23 26 33 35 34 37 43 54 61 61 60 64 72 76 82 84 81 84 84 84
8 22 39 46 57 75 82 89 96 98 99 100 100 94 69 59 52 51 50 45 36 30 24 22 27 34 35 34 36 46 57 62 63 63 66 74 78 81 82 82 83 85 84 83
17 42 58 69 80 87 92 96 100 100 99 95 74 61 55 54 56 50 37 31 26 23 23 26 29 30 31 34 46 62 66 65 65 67 72 80 84 84 83 86 84 86 86 83

GFSNGP_700_rhum_012.txt.gz
RH
52 53 52 53 50 50 52 49 50 48 48 47 46 44 42 42 43 48 51 48 55 61 66 69 72 74 76 80 83 72 65 73 69 86 88 54 60 70 70 72 59 38 22 14
56 50 55 53 49 46 44 48 50 52 52 46 42 46 38 40 44 46 52 54 57 61 68 71 69 72 78 75 71 70 86 98 97 83 51 61 71 71 73 61 39 25 16 12
57 59 59 58 53 53 54 53 52 55 51 53 52 39 45 51 52 52 52 58 64 65 63 62 67 64 64 72 80 95 97 98 91 55 65 73 76 77 68 52 30 13 8 15
45 47 46 41 38 38 48 54 58 57 57 45 38 44 53 56 58 56 60 52 46 45 46 47 47 59 80 95 99 99 74 53 56 68 72 74 76 61 28 10 9 17 23 21
34 36 35 34 31 32 34 35 36 36 42 48 57 61 61 61 60 53 39 32 31 33 37 37 56 80 77 88 86 50 45 58 68 74 76 62 26 10 10 17 24 22 14 14
38 46 57 38 35 38 50 51 51 54 59 62 63 63 61 57 47 36 24 20 22 26 32 38 42 50 58 63 50 48 61 69 78 73 40 13 11 16 28 29 17 13 14 19
35 46 48 52 50 55 61 52 56 61 64 63 60 58 55 51 41 22 18 18 22 26 31 37 47 44 45 47 50 59 68 74 52 18 12 13 25 34 28 15 14 17 18 22
52 63 61 53 64 61 57 53 48 53 60 60 58 58 55 34 20 18 19 22 25 28 34 40 43 43 43 49 58 65 61 30 16 13 18 34 36 24 16 18 20 22 22 21
59 59 59 54 58 61 59 59 59 62 62 63 60 51 30 20 20 22 24 27 31 35 40 41 40 40 48 58 64 51 25 16 15 24 39 37 22 17 18 21 22 22 24 23
63 61 56 55 56 58 61 65 66 64 60 47 38 28 22 23 25 26 28 32 35 36 33 34 39 49 59 63 44 24 16 18 30 38 28 19 20 21 19 19 17 19 18 17
67 67 65 63 64 67 69 67 63 58 51 34 27 26 27 28 25 26 30 33 34 32 31 38 53 64 60 42 23 17 22 36 37 24 18 17 17 18 15 12 15 18 20 24
78 72 66 63 65 63 58 50 43 39 35 31 31 32 31 25 22 25 30 31 31 32 35 48 61 54 34 21 19 31 38 32 21 18 19 17 16 11 10 13 16 19 24 28
79 79 80 65 56 48 46 34 34 33 34 35 36 32 22 18 20 26 31 35 35 37 43 52 43 26 22 28 42 42 29 21 22 20 18 19 13 10 9 12 15 18 22 29
43 46 53 47 40 37 35 33 36 37 38 38 31 21 20 23 26 33 37 36 33 33 35 29 26 31 43 46 43 32 28 29 23 21 20 13 11 12 16 15 14 17 27 40
58 43 41 39 36 34 37 38 39 42 40 34 27 22 23 26 31 36 35 31 30 30 31 37 42 48 50 47 39 31 28 24 23 20 14 11 14 17 17 18 23 34 40 43
59 50 44 38 36 39 40 41 44 40 27 15 19 21 28 33 38 38 37 37 40 45 49 51 52 56 53 44 32 29 26 26 23 16 12 15 18 18 21 29 38 42 42 45
40 40 42 42 43 42 42 41 25 16 11 12 16 23 36 42 44 45 46 48 54 61 67 67 63 52 44 38 33 29 28 26 19 14 16 19 21 24 29 36 44 46 46 51
48 50 47 40 40 41 30 23 16 8 7 10 19 35 46 51 52 54 56 58 65 73 78 77 64 49 46 40 34 33 29 22 16 16 21 22 23 26 36 46 46 47 51 57
49 40 39 39 39 29 25 15 8 8 13 19 31 46 57 59 60 63 66 69 72 76 80 79 61 54 46 40 37 32 27 19 17 21 23 23 25 31 42 48 49 52 59 66
39 38 36 39 34 26 14 6 6 20 26 26 39 62 67 67 68 71 73 75 80 81 83 73 55 48 41 38 35 30 22 18 20 24 26 26 30 39 48 52 54 58 66 72
37 37 40 36 27 12 6 5 7 27 40 47 55 66 73 76 76 79 83 83 89 91 87 61 51 44 39 35 30 23 19 22 27 28 28 28 36 51 54 55 57 68 74 80
39 41 38 25 12 7 6 6 15 32 41 50 63 75 80 78 76 79 88 90 90 88 59 49 45 41 35 30 24 20 23 29 31 30 29 36 51 57 56 58 67 74 78 81
39 28 23 14 10 7 6 9 16 34 45 56 72 84 86 82 82 87 90 97 88 62 49 47 43 36 29 23 22 24 28 30 29 30 38 51 58 59 59 64 70 77 83 84
32 31 23 14 7 7 10 16 22 40 57 71 85 90 89 87 94 98 93 77 56 50 47 39 32 27 23 22 23 24 26 27 29 36 51 60 61 59 63 73 78 82 84 84
33 26 16 8 6 13 31 48 54 64 78 87 93 95 94 93 92 87 66 54 53 45 34 30 26 24 22 22 23 25 27 31 43 55 59 60 63 65 72 80 82 85 82 80
27 20 11 6 12 30 48 61 76 86 91 91 94 95 95 94 77 59 54 52 37 31 29 26 23 21 21 22 26 32 41 54 62 64 63 64 67 72 78 84 84 86 84 80
11 7 8 15 27 40 57 79 90 93 94 98 100 97 89 68 59 54 40 32 31 29 25 22 22 22 26 32 39 53 62 65 67 66 65 70 73 76 82 86 84 82 80 76

GFSNGP_700_rhum_015.txt.gz
RH
58 57 56 54 54 60 57 56 53 51 47 40 42 47 46 43 43 47 52 54 54 53 53 63 70 70 71 69 68 78 76 89 92 71 44 42 44 50 53 56 56 48 26 12
54 54 60 59 62 57 56 54 54 53 49 41 43 50 49 46 46 48 53 54 51 58 61 63 66 66 64 63 70 77 84 72 28 37 37 41 46 52 53 48 29 12 12 15
61 60 62 67 55 57 57 54 51 47 27 40 49 48 48 50 41 43 49 54 56 55 55 50 50 56 57 61 70 58 48 39 34 38 41 44 49 49 37 16 12 14 13 8
55 56 54 52 49 47 48 50 52 50 49 53 56 57 57 49 47 55 59 59 55 38 26 33 46 53 58 60 39 41 40 36 39 42 46 47 41 21 13 14 15 10 7 8
48 49 44 36 40 39 40 47 51 53 60 62 60 50 43 49 62 62 57 48 26 19 21 31 38 41 44 37 34 37 36 42 45 45 42 28 16 15 16 15 9 7 8 9
45 38 46 37 34 32 36 36 34 36 40 45 47 54 61 64 60 54 38 24 16 18 20 25 29 33 30 30 35 36 41 46 45 40 23 17 16 19 19 11 8 8 9 10
43 36 34 36 33 38 48 37 37 52 61 61 67 67 63 59 50 37 22 19 19 20 23 26 30 32 33 33 37 43 47 46 38 23 18 18 21 22 12 10 10 10 9 7
49 46 45 43 45 49 49 54 57 65 70 71 69 64 59 51 36 23 21 22 22 23 26 29 32 34 34 40 41 44 44 34 24 19 20 24 23 13 12 12 11 10 7 7
43 41 39 48 48 58 60 60 53 55 59 62 63 59 47 35 25 24 24 23 22 24 29 33 34 32 32 35 40 43 36 24 21 23 28 24 14 14 13 14 11 8 8 10
59 58 58 57 55 63 61 61 61 63 64 62 62 48 31 27 27 26 23 20 21 28 33 33 32 34 35 38 39 32 24 24 27 26 20 16 17 17 15 13 10 10 12 11
62 63 62 61 58 56 59 64 67 67 62 59 42 31 29 29 27 21 17 17 24 30 33 34 34 35 36 33 28 26 29 28 26 21 19 18 17 16 14 11 12 14 14 16
63 66 71 72 71 70 72 72 71 60 48 36 32 32 31 27 20 16 18 24 29 34 36 36 36 34 30 29 32 32 28 24 21 22 21 19 17 15 12 12 13 16 20 27
66 47 80 81 71 70 75 64 61 45 35 34 35 33 29 24 18 18 22 27 32 34 35 33 31 32 37 39 37 31 24 24 25 25 22 21 19 14 11 11 14 18 23 30
75 46 65 79 82 80 72 54 38 35 36 34 33 29 18 13 16 19 25 30 34 35 35 36 41 46 50 51 42 33 30 32 30 27 26 21 16 13 13 14 15 16 22 34
71 60 37 46 55 52 40 35 37 36 34 32 19 13 11 11 13 19 28 35 39 42 44 47 52 56 59 57 44 33 33 32 30 26 23 19 16 15 17 18 20 20 22 32
59 61 57 43 46 40 37 38 37 36 26 19 15 10 7 8 15 26 36 44 48 52 54 56 59 63 67 65 47 39 37 33 28 26 23 18 16 17 20 23 22 22 33 40
41 66 60 51 42 42 42 39 39 25 21 16 10 7 8 13 24 37 48 53 57 61 62 62 66 72 78 73 49 37 30 28 29 26 21 18 19 22 24 24 27 34 41 47
42 53 48 50 46 41 41 40 28 23 17 11 8 10 16 22 37 52 57 61 65 69 71 74 77 83 86 63 40 33 31 29 27 23 20 20 22 25 28 29 34 45 46 51
47 56 53 43 43 42 41 32 28 22 14 9 7 13 26 33 44 57 67 71 74 79 83 87 88 89 78 48 36 33 32 28 24 20 20 21 25 28 29 35 44 50 53 56
62 58 43 39 41 41 35 32 27 17 10 7 10 22 35 45 58 69 76 79 80 80 86 90 88 84 53 37 35 33 28 24 21 20 21 24 27 27 30 46 54 54 59 64
51 43 42 44 41 39 37 31 21 11 9 9 12 26 39 51 67 79 81 80 77 82 90 91 87 58 40 36 31 27 24 22 21 20 22 24 25 29 46 54 54 57 64 68
48 48 44 41 40 36 30 21 13 10 10 11 15 26 40 54 71 84 86 83 83 88 88 89 61 42 36 29 27 25 23 20 20 21 23 25 30 44 55 55 55 62 67 68
49 44 39 34 31 30 26 16 10 10 11 20 33 39 49 64 77 86 88 89 90 90 86 57 43 34 29 28 25 22 20 20 21 23 26 34 48 57 57 55 58 66 69 70
36 32 31 31 32 30 19 12 9 8 18 32 44 54 67 80 87 90 91 90 91 78 51 40 31 30 28 24 21 20 20 23 26 31 40 54 58 57 55 59 66 73 70 70
32 32 32 33 30 24 14 8 9 15 24 39 57 74 83 86 90 95 96 90 60 45 34 32 30 26 22 21 19 19 21 28 37 47 52 54 57 59 61 66 71 71 68 69
34 33 30 24 16 9 8 12 18 28 43 63 77 85 88 90 92 90 65 49 38 33 32 27 24 22 20 18 18 22 34 46 54 56 55 56 60 64 66 68 71 72 72 71
35 30 23 15 9 9 13 20 30 50 72 84 91 94 94 92 68 54 45 36 34 30 25 24 23 20 18 19 28 44 54 59 60 59 61 64 69 67 68 68 68 65 69 67

GFSNGP_700_rhum_018.txt.gz
RH
62 63 58 55 53 56 74 66 59 51 54 49 48 47 40 44 45 44 45 51 56 60 59 55 55 59 64 69 72 74 68 56 52 60 40 34 32 36 42 43 34 18 14 13
63 61 63 63 58 57 57 66 64 57 54 54 53 49 42 46 48 47 48 52 58 62 56 55 60 60 62 66 68 64 52 54 51 40 36 33 37 38 38 27 16 16 14 11
62 63 59 65 62 60 57 57 57 57 49 55 54 48 48 48 49 47 48 50 55 55 58 58 54 49 51 55 57 51 53 51 46 41 36 39 38 34 23 17 18 16 12 7
66 62 84 56 50 47 49 49 53 54 56 56 55 50 50 51 50 53 50 52 57 59 57 47 29 28 36 44 56 49 39 48 40 34 37 38 32 21 18 20 17 13 8 7
62 57 53 47 42 48 48 40 37 48 54 56 56 58 57 57 58 56 55 62 62 53 33 18 17 22 34 46 44 32 40 35 33 36 40 30 21 21 23 18 14 9 8 7
78 60 52 40 40 35 40 42 36 40 51 55 62 64 61 62 57 60 66 59 43 22 16 17 19 23 30 36 32 36 34 35 40 41 29 23 23 25 19 15 10 9 9 8
91 96 40 40 39 34 44 40 37 33 40 48 53 57 55 60 67 64 54 36 19 17 18 19 22 27 32 35 34 36 37 43 40 30 24 26 26 22 16 12 11 10 9 9
98 80 56 48 43 41 38 38 41 43 48 58 61 67 71 69 63 51 32 20 19 19 19 21 26 34 34 31 35 37 40 38 29 26 29 26 23 17 14 13 12 10 10 8
59 53 50 45 52 46 44 51 51 55 64 72 75 74 68 59 40 25 21 21 20 17 18 24 29 30 31 34 36 38 36 29 31 32 28 23 17 16 16 14 12 11 10 9
57 54 45 45 51 50 55 60 62 56 63 66 68 66 55 35 25 24 23 20 17 17 20 25 29 31 35 36 36 32 32 37 36 32 23 19 18 18 17 14 12 12 11 11
53 57 57 58 57 57 56 58 63 68 72 71 60 46 29 27 26 24 21 16 16 19 23 27 30 34 35 33 33 39 44 45 38 26 20 20 20 18 15 16 14 14 14 15
64 63 58 61 63 60 60 64 70 73 68 51 33 29 29 28 26 21 15 15 17 20 24 28 32 33 34 39 45 51 53 48 34 24 24 24 18 15 16 15 15 16 19 20
66 65 61 51 70 73 74 77 77 70 53 34 31 30 29 22 12 12 13 14 16 22 29 33 35 40 44 49 53 56 58 50 34 29 26 20 17 17 16 15 16 16 19 22
66 69 67 51 67 78 77 78 69 50 33 33 31 28 16 16 15 11 10 13 22 30 35 40 44 48 52 56 59 61 63 52 36 28 23 20 20 20 18 16 16 17 22 24
74 75 67 46 68 83 83 78 39 36 36 34 23 18 18 16 12 8 10 19 28 35 42 47 52 57 60 62 65 67 68 48 33 26 23 23 22 19 18 18 20 23 23 22
70 64 78 54 55 64 52 38 39 38 36 23 21 19 17 12 10 12 17 26 34 43 49 55 61 66 69 70 70 72 63 40 30 26 24 22 21 20 20 21 22 23 24 30
75 58 59 71 51 50 41 42 39 37 27 24 22 18 12 10 13 18 24 32 42 51 57 64 70 75 77 75 75 76 52 35 29 25 24 22 21 20 20 21 22 22 28 41
83 66 85 72 53 48 44 40 38 32 27 25 21 14 9 11 15 23 32 43 52 60 67 73 76 78 80 82 82 66 41 32 26 25 23 22 20 20 21 22 23 27 37 44
82 71 63 57 52 43 40 39 35 31 30 26 16 11 11 13 17 23 32 45 59 70 74 78 78 80 85 86 77 49 35 28 26 24 22 19 18 19 21 24 28 41 46 47
72 65 70 50 43 41 42 39 37 34 28 18 12 12 13 12 15 23 38 56 68 75 81 80 81 88 88 80 54 37 28 27 24 21 19 18 18 20 24 32 44 48 49 52
82 83 71 48 45 43 41 38 34 28 22 16 13 14 13 16 23 34 48 67 74 81 84 85 92 90 80 55 36 29 27 22 20 19 18 18 20 24 33 45 49 50 53 57
96 89 54 46 44 41 36 32 30 28 22 14 13 11 14 25 37 49 62 75 83 87 93 95 91 78 51 34 30 26 21 20 19 17 16 20 26 36 46 50 50 53 56 63
60 50 47 41 35 31 29 30 30 25 16 12 9 11 18 30 46 65 77 86 90 94 95 90 67 43 33 31 25 20 20 18 16 15 19 28 39 46 49 51 53 57 60 68
45 37 34 32 32 31 31 31 27 21 12 9 11 19 29 46 63 76 84 90 90 90 79 52 38 34 30 23 21 21 18 15 16 21 32 45 49 49 50 53 57 59 64 66
35 36 36 35 33 32 30 25 18 11 10 12 18 26 43 63 76 83 87 88 83 59 46 37 34 28 23 22 22 19 16 17 28 39 44 48 50 54 56 57 58 60 60 60
40 42 41 38 34 30 25 17 11 11 12 15 21 41 65 82 88 89 85 64 54 44 39 34 29 24 24 24 20 17 18 31 44 47 51 55 59 60 59 55 57 60 56 58
42 41 39 34 28 21 14 10 10 12 21 33 51 71 85 87 86 73 66 54 44 39 36 30 26 26 26 21 18 22 39 49 53 57 62 66 69 66 63 60 57 58 55 56

GFSNGP_700_rhum_021.txt.gz
RH
52 57 65 75 82 86 82 70 57 48 47 42 44 46 45 47 43 40 43 43 43 49 54 59 64 62 56 57 62 66 69 71 71 64 52 39 31 29 29 31 27 20 20 22
62 60 59 55 61 68 70 67 59 52 49 50 49 49 48 50 43 42 43 46 48 53 57 63 66 59 57 61 61 60 60 61 64 56 42 32 31 31 33 28 21 22 24 19
58 62 65 63 58 60 61 62 58 57 54 55 53 52 53 52 47 45 48 50 53 56 65 65 58 59 60 55 47 44 50 57 56 47 38 33 32 33 28 23 25 26 18 11
78 62 74 54 53 55 58 55 59 62 58 54 56 56 56 54 50 49 50 51 52 55 58 59 61 58 45 30 29 39 47 41 39 39 34 31 32 28 25 28 27 18 12 10
70 58 50 51 47 50 53 50 49 54 57 58 57 56 57 55 53 52 51 52 55 58 61 62 51 28 18 20 26 34 37 32 36 31 31 33 28 27 30 28 20 12 12 13
78 60 59 47 39 45 47 48 42 41 43 47 47 57 56 57 58 57 59 60 60 64 57 36 18 17 18 22 26 30 30 33 30 33 34 28 29 32 31 22 14 14 17 16
96 84 72 47 42 36 47 44 36 30 33 41 60 64 65 63 64 65 61 64 63 48 27 18 18 19 21 23 26 30 30 31 36 32 29 34 36 34 22 16 17 20 18 13
99 99 87 56 44 45 43 38 33 33 33 41 54 61 62 58 61 65 67 60 44 24 19 20 19 18 19 22 27 31 34 36 32 31 37 41 37 25 19 22 23 18 14 13
82 74 57 50 49 51 49 44 42 45 48 51 55 58 62 69 70 64 52 31 21 22 20 18 17 18 21 25 30 36 35 30 34 41 46 43 32 25 27 25 17 15 15 14
68 64 62 52 49 39 43 47 51 54 59 65 70 72 70 64 58 41 24 24 23 21 16 15 17 21 25 30 34 31 32 38 46 49 48 43 34 30 26 19 17 17 16 14
72 68 54 53 50 52 52 52 56 58 60 63 63 64 58 45 28 26 25 24 18 14 14 16 19 24 28 30 30 35 42 49 51 52 52 43 34 28 22 19 19 17 16 16
59 58 57 56 57 59 57 59 60 65 66 67 68 55 33 28 28 26 18 13 14 14 15 17 20 24 26 32 40 47 52 54 56 58 53 39 32 26 22 21 19 17 17 18
60 65 64 61 53 50 63 66 70 74 75 72 51 32 30 29 22 16 18 17 14 12 12 17 22 27 37 45 52 56 59 61 62 63 48 37 30 24 25 22 18 17 17 18
70 66 60 61 60 58 71 74 78 82 77 57 34 32 29 19 19 21 19 13 9 11 16 20 29 40 48 55 60 64 67 69 69 62 46 36 27 24 22 19 15 14 15 19
52 61 63 71 59 66 81 86 87 79 55 35 34 28 20 21 22 17 12 11 13 15 20 31 43 51 57 61 67 72 75 74 70 60 44 30 26 24 20 17 16 15 16 18
64 72 76 76 66 71 89 91 84 60 38 35 29 22 22 22 18 14 12 13 16 22 34 46 52 57 63 69 74 76 75 72 68 53 34 27 25 19 16 16 16 17 19 26
76 69 62 60 69 68 89 86 50 40 36 30 25 25 25 20 14 13 14 17 25 36 43 50 57 65 70 74 76 77 77 75 60 38 29 26 20 16 16 16 16 18 26 41
82 75 68 74 73 57 57 45 43 37 33 29 28 30 23 17 16 16 16 19 29 38 45 58 64 69 76 78 79 81 79 64 40 30 28 20 17 16 16 17 20 25 37 45
86 84 70 79 72 59 50 45 39 36 33 33 32 27 21 18 17 17 15 20 29 38 48 60 70 78 81 82 86 84 67 41 32 28 20 17 16 15 16 20 27 38 46 48
89 86 75 66 60 56 45 41 39 37 36 32 28 24 18 18 18 15 19 28 35 46 58 68 76 81 85 89 85 65 40 33 28 20 18 16 14 14 18 27 40 46 48 51
92 78 70 62 52 45 42 40 39 35 31 28 27 21 18 16 12 15 21 29 41 58 68 78 84 89 90 83 58 38 34 27 21 19 17 15 13 17 29 42 46 47 50 54
92 77 82 57 48 43 42 37 31 29 29 28 25 20 16 12 13 16 25 38 54 71 79 86 88 86 73 49 38 34 27 22 20 18 16 15 19 32 42 46 46 50 53 55
91 89 76 49 44 39 33 32 31 30 29 28 25 17 12 13 16 22 34 53 64 78 85 86 81 60 45 39 34 29 23 21 20 17 15 20 34 43 46 47 49 52 52 56
97 60 47 39 34 34 34 34 33 31 28 23 14 12 13 15 16 26 41 63 81 86 84 68 55 46 40 36 30 23 22 22 18 16 20 37 45 46 50 51 52 51 50 58
47 38 35 37 39 39 39 37 33 28 22 15 13 12 12 15 27 45 68 80 83 76 66 56 46 41 38 31 24 24 24 19 17 23 38 44 49 52 53 55 56 51 49 54
36 39 41 41 40 39 36 31 25 19 14 12 12 16 24 39 52 66 76 78 73 69 55 46 43 41 32 25 26 25 19 18 29 42 47 52 57 60 62 63 62 56 51 51
42 41 41 41 38 34 27 21 16 14 13 14 20 32 45 57 69 75 76 76 68 56 47 45 42 32 26 28 25 19 20 36 48 50 54 60 67 67 63 61 58 58 47 52

GFSNGP_700_rhum_024.txt.gz
RH
79 74 77 88 82 77 74 67 61 52 43 39 35 33 39 42 46 44 35 40 41 40 44 47 48 52 57 65 65 60 60 62 61 59 55 53 49 33 25 23 24 22 25 26
60 74 71 70 76 64 65 67 62 57 49 46 46 46 47 46 50 45 41 41 45 46 48 50 52 57 64 69 62 60 61 58 47 43 47 49 34 26 24 25 24 27 28 26
66 56 59 62 61 65 64 66 56 69 53 50 51 51 50 50 51 49 46 44 44 50 52 54 58 64 69 60 60 59 49 37 37 36 41 30 26 25 26 25 28 28 27 21
79 64 75 51 51 44 48 45 64 65 61 56 56 57 55 54 53 54 52 43 47 53 56 56 63 62 58 61 54 37 27 33 32 32 28 25 25 27 26 30 30 28 24 22
81 65 58 53 52 54 55 53 54 57 56 61 61 56 55 55 56 56 53 50 54 56 56 57 58 61 61 44 22 21 26 28 28 27 25 26 26 27 31 30 31 28 28 28
83 69 70 51 40 42 45 56 53 52 56 56 59 57 53 55 55 57 57 56 56 57 60 61 63 52 29 19 20 23 24 26 26 26 26 26 30 33 34 34 32 31 30 25
91 84 64 59 51 40 49 48 39 39 52 55 51 49 55 63 59 60 60 60 63 62 64 60 42 24 20 21 21 21 23 24 26 25 28 33 35 37 37 36 33 31 28 25
100 98 84 60 55 44 47 43 36 35 37 39 46 53 60 68 64 66 68 66 65 65 53 31 21 21 20 18 19 22 24 25 25 30 35 37 39 41 41 35 32 30 28 27
88 74 61 60 51 50 48 46 47 42 41 41 48 60 68 68 61 66 69 69 59 38 23 23 22 18 16 18 20 21 22 25 32 37 38 42 45 43 37 35 33 30 27 23
80 73 63 60 58 53 42 43 45 47 49 51 54 59 62 66 73 70 62 48 27 24 24 20 15 15 16 17 18 21 27 35 37 36 44 49 47 43 39 36 32 28 24 17
80 69 63 65 58 57 50 52 52 51 54 62 68 73 72 68 63 51 31 26 26 21 15 16 16 16 15 17 22 30 37 37 38 49 52 48 49 47 41 33 29 24 17 14
79 70 75 70 60 54 54 55 56 58 57 62 68 69 68 57 34 28 28 24 18 20 19 16 12 13 18 24 32 36 37 42 53 56 55 55 52 46 39 31 26 17 15 16
60 54 51 58 57 57 52 58 62 64 63 69 74 70 52 30 29 28 20 20 21 19 13 11 14 19 24 32 37 38 46 55 59 61 60 59 54 45 36 29 18 14 14 15
64 62 66 68 63 56 54 58 70 73 76 80 76 60 36 32 25 20 22 22 18 14 13 14 18 24 32 36 39 48 57 62 64 67 65 61 49 35 30 20 14 10 12 15
60 58 55 55 53 60 65 71 77 81 86 84 65 36 33 24 22 23 22 19 16 14 15 18 24 31 34 38 50 59 64 67 71 70 68 54 36 32 21 15 12 12 12 14
52 51 57 60 72 75 67 75 86 90 90 74 38 34 25 24 25 24 20 17 17 18 20 22 24 29 39 52 60 66 71 76 77 74 60 38 33 23 16 13 12 12 14 23
55 62 73 80 82 75 78 92 98 97 80 42 36 27 26 29 28 22 20 20 20 18 17 18 27 42 50 57 67 72 77 80 79 64 39 35 25 18 14 13 12 14 24 40
76 89 85 72 65 70 78 98 99 77 44 39 31 29 31 30 25 22 21 21 19 16 18 31 40 46 57 65 70 77 82 80 63 41 36 28 21 16 14 13 15 24 37 43
84 88 80 76 71 83 92 91 59 47 40 34 33 33 30 26 23 21 22 19 16 17 27 33 47 58 68 74 80 84 81 59 42 37 31 23 17 16 14 15 24 37 43 44
92 91 88 82 82 88 73 56 50 40 36 35 32 28 26 25 22 22 19 15 15 20 26 42 56 67 76 79 80 76 53 44 39 33 24 18 17 15 14 23 35 42 45 46
99 98 90 81 78 69 58 47 39 38 34 30 29 28 27 25 24 18 14 14 20 22 37 51 64 75 79 80 69 52 46 40 34 25 18 18 16 15 20 34 41 47 47 48
100 97 92 73 67 56 42 40 36 31 31 31 30 29 28 25 19 15 15 16 20 30 44 60 71 78 76 63 54 46 41 35 25 19 19 16 15 20 34 42 46 47 45 46
98 97 81 62 52 44 40 34 33 34 35 34 31 28 25 19 16 14 15 22 28 44 62 73 76 70 64 53 46 42 36 24 19 20 17 16 24 37 43 46 48 48 48 46
97 94 87 56 45 36 34 36 38 37 35 32 29 25 21 16 13 15 20 29 46 60 69 70 69 62 52 47 43 35 22 20 21 17 16 26 38 45 48 50 52 53 52 50
99 97 77 41 36 38 38 38 38 36 32 29 25 20 15 14 17 25 38 52 63 69 71 70 61 53 47 43 33 21 20 21 16 15 26 38 47 49 53 54 54 53 50 47
74 42 36 39 39 39 39 39 37 32 27 23 18 15 17 22 31 44 58 69 72 74 69 60 52 47 42 29 20 21 20 15 18 31 41 48 51 56 56 55 56 55 52 41
36 41 41 39 38 40 41 38 30 25 20 16 16 20 25 34 51 67 75 76 73 66 57 50 46 39 24 19 21 16 14 22 37 44 49 54 59 60 58 56 57 55 44 39

GFSNGP_700_rhum_027.txt.gz
RH
100 100 85 85 98 84 80 74 52 46 39 38 35 34 34 39 41 37 33 35 38 39 42 44 46 46 46 48 54 62 71 69 64 66 66 56 44 38 26 22 20 19 18 18
100 99 85 82 72 66 71 65 61 58 47 39 37 41 44 44 46 48 47 39 41 44 45 47 48 50 51 54 61 71 72 66 67 65 50 42 34 25 22 21 19 19 20 21
92 98 79 76 62 55 53 46 54 56 53 50 49 48 50 49 50 50 45 43 43 40 48 50 51 54 57 63 72 72 66 67 61 42 33 29 25 22 21 20 20 22 23 22
71 62 72 53 53 51 54 55 55 55 66 66 60 56 54 53 52 53 53 51 44 42 48 53 56 60 67 74 68 65 63 50 33 33 32 27 24 22 21 22 24 24 24 25
74 69 63 56 54 56 55 49 52 51 58 65 61 60 58 58 58 55 55 56 53 52 55 63 69 69 66 65 64 55 32 28 30 28 26 25 23 22 23 24 27 26 26 30
87 75 74 50 47 43 51 57 57 57 56 56 60 60 60 57 56 56 57 58 57 61 65 63 63 66 66 60 36 24 25 26 24 24 24 24 22 23 27 30 28 29 33 33
90 85 62 58 58 42 53 50 45 47 49 56 58 56 59 58 58 59 62 63 64 64 65 67 66 63 45 27 24 24 22 22 23 24 24 24 25 30 33 30 33 35 35 33
98 93 82 57 59 47 47 42 37 34 40 52 58 56 57 58 60 65 66 64 66 69 69 67 54 34 24 23 21 20 20 22 23 24 26 28 33 36 35 36 39 40 35 31
86 66 63 62 52 51 51 48 48 46 40 53 60 61 62 64 70 68 70 72 70 70 61 37 25 24 21 18 18 19 21 23 24 27 31 36 39 38 41 44 44 39 34 27
84 65 62 61 61 60 53 43 44 46 46 46 48 57 65 70 66 70 73 73 64 45 27 25 22 16 17 18 17 18 21 24 27 34 39 40 43 48 49 49 43 36 30 23
86 74 70 65 63 60 60 52 51 52 53 55 56 59 65 71 75 72 65 50 30 27 23 17 18 19 16 14 17 21 24 29 36 40 38 41 50 53 53 48 38 31 23 17
67 74 68 65 72 64 53 54 55 58 54 56 67 72 71 68 65 53 33 29 24 18 20 21 18 14 14 16 20 25 32 38 40 39 43 50 53 54 52 41 34 24 17 12
72 74 71 68 68 70 58 59 60 62 66 67 67 71 73 65 40 31 29 21 20 22 21 16 14 15 17 22 27 34 37 40 41 44 52 56 56 53 43 37 30 20 13 10
65 58 57 58 60 60 60 58 63 68 72 72 76 77 69 50 33 28 21 23 24 22 19 16 17 19 23 28 32 35 40 40 45 55 60 61 58 46 40 34 29 17 10 11
64 64 67 74 70 62 61 65 70 77 80 82 84 80 57 35 27 22 24 25 22 18 18 19 20 23 25 28 34 39 40 48 56 61 64 61 49 42 35 28 17 11 10 11
61 64 68 60 64 62 68 71 81 86 89 92 90 62 38 28 24 27 27 23 21 21 21 20 19 20 25 33 35 40 50 58 62 65 63 51 44 37 30 19 12 12 11 17
61 62 64 68 75 78 80 81 93 94 98 97 77 43 31 27 30 29 25 23 22 22 20 18 19 24 28 31 38 51 57 63 65 64 52 46 39 32 21 13 13 12 16 30
50 58 73 85 85 83 78 84 97 98 96 89 48 34 30 32 30 26 23 22 22 19 18 17 20 22 25 35 46 54 60 65 64 55 48 41 34 23 14 14 13 14 23 34
72 76 86 87 75 69 80 93 100 99 83 48 35 33 33 28 26 25 24 23 20 17 17 18 18 22 33 40 52 60 67 62 56 48 42 35 24 15 14 14 14 23 33 38
87 87 94 89 86 87 99 100 99 65 46 36 35 30 29 28 27 25 24 20 17 18 17 16 19 28 39 53 61 64 62 55 47 42 35 23 15 15 14 16 25 33 38 41
96 100 99 98 90 96 99 84 56 42 37 34 30 30 31 30 28 26 22 19 19 16 16 18 27 43 53 59 60 59 53 47 41 34 22 15 15 14 15 24 34 40 42 44
100 99 98 97 96 94 70 54 40 37 32 32 34 33 32 29 27 23 21 18 16 17 19 30 43 50 54 58 57 52 47 41 33 20 16 16 14 14 23 35 39 41 46 45
99 98 98 98 88 65 48 40 35 33 35 36 34 33 30 27 24 21 17 18 16 20 33 43 49 56 60 57 51 45 40 30 18 16 15 12 15 24 36 38 41 45 46 43
98 98 98 88 63 46 41 34 36 37 36 36 34 30 27 24 21 16 16 16 24 35 44 54 61 61 56 50 44 39 26 16 15 12 11 15 25 37 41 43 47 47 46 45
98 97 83 64 47 38 36 38 37 37 37 36 31 27 25 20 16 14 16 24 36 50 61 64 61 54 49 43 37 23 16 12 8 8 14 28 38 41 45 48 49 45 44 41
98 97 93 63 42 39 38 38 39 39 36 32 28 23 18 13 12 16 26 40 55 63 64 59 53 48 43 35 21 13 7 6 8 19 35 41 42 47 50 53 51 49 44 36
98 84 43 40 40 38 39 41 41 37 32 28 22 15 11 12 20 32 45 57 64 64 59 54 49 44 34 20 10 7 8 13 26 38 44 44 52 54 55 53 51 47 38 35

GFSNGP_700_rhum_033.txt.gz
RH
96 97 98 99 96 94 98 74 78 75 80 36 55 73 72 60 47 46 47 49 51 56 59 59 58 55 51 52 53 54 57 59 63 66 68 73 83 81 80 64 31 23 19 18
97 97 100 98 100 96 95 82 84 90 72 56 71 76 56 55 49 49 45 45 52 54 56 54 52 51 51 52 54 57 60 63 66 67 73 82 86 79 58 30 24 20 18 17
96 99 99 98 96 95 88 78 73 94 67 72 58 54 50 48 47 45 45 49 53 54 56 54 53 54 57 60 63 65 67 68 70 73 83 86 76 48 29 23 21 18 17 19
98 98 97 95 86 95 90 95 98 94 92 74 55 52 47 47 48 46 45 46 50 52 53 60 66 71 74 73 73 73 72 72 75 87 80 68 37 28 22 21 18 19 21 20
100 99 84 71 92 96 97 98 99 96 80 70 57 51 52 51 53 54 52 53 57 62 68 71 75 77 77 77 77 75 75 83 83 72 50 31 26 22 20 18 21 23 21 21
89 98 79 65 55 73 100 98 83 90 87 64 61 57 55 56 56 57 56 59 64 66 70 73 76 79 80 81 80 84 82 72 55 34 27 23 22 20 19 23 23 21 23 25
95 94 68 63 58 57 58 58 60 62 62 60 60 63 59 59 58 59 60 63 65 70 75 78 81 83 84 83 77 70 57 37 28 24 21 21 19 21 24 24 23 24 25 27
97 96 70 63 62 50 47 46 41 47 53 52 54 64 64 63 62 62 62 63 68 72 74 78 80 76 73 69 58 40 28 24 20 21 20 20 22 25 25 24 25 26 26 32
72 70 65 67 52 52 54 48 48 41 51 57 57 57 61 63 64 66 66 69 75 78 79 75 73 70 61 42 29 24 20 21 21 18 20 24 27 27 26 26 27 28 34 36
77 64 64 62 61 60 52 46 43 42 48 56 60 62 64 64 63 65 68 75 77 74 74 72 65 47 30 25 19 21 21 18 19 22 26 27 26 25 26 30 31 36 37 37
73 78 85 67 66 66 62 57 50 45 44 50 62 66 67 66 69 72 73 72 74 74 69 55 34 25 20 22 21 18 18 20 25 28 27 25 27 29 32 35 38 39 41 38
88 83 76 75 71 71 60 53 52 51 47 46 55 62 64 71 73 70 72 74 70 57 35 26 21 22 22 19 18 20 23 26 26 24 26 28 30 34 39 42 44 45 39 32
86 93 90 81 78 80 75 68 56 55 56 50 52 66 67 70 70 68 65 52 33 26 22 24 23 21 19 20 22 24 24 22 23 26 27 28 30 30 32 43 44 39 33 24
97 95 98 95 81 80 96 66 63 62 63 67 67 68 70 69 66 52 36 28 23 24 25 23 21 20 21 22 22 20 21 24 25 24 25 28 31 36 40 39 35 33 25 15
93 87 80 88 81 83 86 68 66 69 71 71 75 78 76 71 56 36 26 25 27 26 24 23 22 22 22 20 20 21 22 22 22 22 26 32 36 40 39 36 33 27 16 10
86 74 66 68 66 66 66 67 74 76 80 82 84 84 81 63 36 28 27 29 27 26 24 23 23 22 20 20 20 20 19 18 18 26 33 37 39 39 36 33 26 14 10 9
76 72 69 75 67 64 62 70 81 86 86 89 92 89 84 45 31 29 30 28 26 24 24 24 22 20 20 20 18 17 16 20 27 32 37 40 38 35 32 25 12 8 9 12
74 75 76 75 69 64 65 72 82 93 95 97 95 89 82 36 30 32 29 27 26 26 25 23 21 21 20 18 16 16 22 27 34 39 39 38 35 32 22 11 7 7 9 16
54 68 65 54 60 83 87 85 92 98 98 94 89 86 48 32 33 29 28 28 28 27 24 22 21 19 17 16 18 22 28 38 41 39 37 35 31 19 8 5 6 8 16 25
62 60 56 59 74 85 90 95 99 98 93 94 88 49 34 33 30 31 31 29 28 24 23 21 18 16 16 17 22 32 39 39 38 37 35 30 15 7 5 6 8 17 28 32
75 81 71 75 87 82 93 99 99 99 98 90 47 35 32 31 32 32 30 28 25 23 20 18 15 15 17 24 34 38 38 39 38 35 30 14 8 8 8 9 20 30 31 32
90 92 87 92 87 93 96 100 100 100 83 40 36 32 33 33 32 32 29 25 22 20 16 14 14 19 27 33 36 39 40 39 36 31 13 10 11 11 14 25 32 31 33 38
92 96 96 97 98 99 97 100 97 67 37 36 33 35 34 34 34 31 27 23 19 14 13 15 20 27 32 37 39 41 40 37 33 15 11 13 14 22 31 32 32 35 41 40
95 94 99 98 98 99 100 95 55 38 34 36 36 35 36 35 32 26 22 17 13 13 16 21 25 30 36 40 42 40 38 35 17 12 14 17 26 33 33 33 39 43 41 39
96 94 99 97 98 90 65 44 39 35 37 36 37 38 38 33 26 21 15 13 13 14 18 23 29 34 40 42 41 40 36 18 12 14 18 26 34 33 35 43 45 40 35 34
98 99 97 95 75 57 42 38 37 38 38 39 42 42 32 26 19 14 12 11 12 15 21 28 35 42 44 44 42 36 18 12 16 20 28 35 35 36 45 47 42 34 35 32
100 99 95 86 60 41 37 39 39 40 43 48 44 32 25 17 13 11 10 10 13 19 27 35 42 45 46 44 37 18 14 17 21 28 37 36 41 50 50 44 35 34 33 34

GFSNGP_700_rhum_036.txt.gz
RH
86 93 99 99 98 98 97 75 97 72 71 60 43 32 44 57 72 65 65 51 50 54 60 69 70 68 66 64 55 53 56 60 62 64 68 71 72 72 69 83 84 64 27 21
92 96 99 99 100 99 98 98 100 91 73 55 41 60 78 84 64 63 62 55 55 63 68 70 72 71 70 63 56 58 62 64 66 69 72 73 73 72 82 83 60 27 22 20
94 91 99 99 99 98 100 97 78 92 58 95 90 84 77 66 59 57 56 52 58 65 70 72 69 68 66 59 60 63 66 69 71 72 73 75 75 85 78 51 27 22 20 19
97 99 96 82 98 100 99 96 86 79 92 97 98 83 68 56 56 61 61 61 66 70 70 68 66 63 64 66 69 71 73 74 75 78 79 79 89 71 38 27 23 21 20 22
99 100 87 71 64 100 100 98 88 76 81 87 87 61 53 53 56 61 64 70 76 78 75 70 68 68 71 76 80 84 84 85 83 83 90 78 58 30 27 24 20 21 23 21
99 99 97 82 69 92 95 84 65 61 65 66 59 54 55 55 58 60 63 66 73 75 73 73 72 77 83 88 91 91 88 87 92 80 62 36 28 26 24 21 22 24 22 21
99 97 86 91 76 81 75 68 79 69 71 70 64 66 69 66 61 57 56 62 66 68 70 72 76 83 90 93 92 91 90 78 61 39 29 26 25 22 21 23 24 22 22 24
98 100 80 82 70 63 55 54 56 67 74 75 78 80 88 64 59 60 59 59 62 67 69 74 81 88 91 89 83 75 59 40 29 26 25 25 22 22 24 23 22 22 21 21
80 76 70 73 59 60 54 51 50 48 54 64 70 73 71 79 63 63 65 66 70 72 76 80 84 83 79 75 62 42 30 26 24 25 21 21 23 26 24 23 22 19 18 23
78 69 66 65 64 63 53 55 45 48 57 61 64 67 64 65 65 66 69 72 74 76 80 80 76 74 64 46 30 25 22 25 22 20 21 24 25 23 24 22 20 20 23 25
79 85 81 79 65 69 61 56 49 47 56 62 65 66 67 66 65 68 70 73 79 79 77 75 66 48 31 24 21 24 22 20 20 23 25 24 23 24 23 21 23 24 28 29
86 88 84 82 74 71 64 55 52 51 51 60 67 68 67 69 71 73 75 74 75 75 68 51 32 23 22 23 21 20 20 22 24 23 23 23 23 24 24 27 33 34 33 31
84 85 89 80 78 71 60 60 57 53 55 54 62 72 73 73 71 71 74 72 65 45 30 22 22 24 22 21 20 22 23 22 22 23 22 21 20 20 23 35 36 34 32 28
83 90 92 89 83 86 84 82 87 62 57 62 61 65 70 70 66 65 57 41 30 24 24 25 24 22 22 22 23 22 21 22 21 20 18 18 20 24 29 30 28 28 27 17
96 100 99 97 99 97 92 97 72 63 62 61 65 69 68 69 65 54 39 28 25 26 26 24 23 23 23 22 21 21 21 20 18 16 17 20 24 31 32 31 30 26 14 6
92 99 88 89 98 91 96 98 77 69 69 71 72 74 76 74 58 36 28 27 28 27 25 24 24 24 22 21 21 20 18 16 15 18 22 27 33 33 31 29 25 10 6 5
90 97 78 79 76 82 77 77 80 79 79 82 86 88 86 72 36 29 29 30 27 26 26 26 25 23 22 22 19 17 16 16 19 24 30 34 33 30 29 24 9 7 6 7
77 77 80 87 73 63 61 71 79 89 90 92 95 90 86 54 31 31 31 28 27 28 28 26 24 23 21 19 17 16 17 21 27 31 34 33 31 29 23 10 9 9 8 14
73 74 70 70 72 76 75 72 84 96 95 97 92 88 79 38 32 31 29 29 30 29 27 25 23 20 18 16 16 18 23 27 31 34 34 32 31 25 10 10 11 11 17 25
59 75 78 68 63 82 86 90 96 100 98 98 95 83 43 33 32 30 31 30 30 28 25 22 20 17 14 15 19 23 27 31 34 34 33 31 27 11 10 13 16 23 26 26
72 71 71 62 65 80 96 100 99 98 95 87 93 49 34 31 32 32 31 31 30 26 22 19 16 14 15 18 21 26 31 34 34 33 33 29 12 10 14 17 24 27 26 29
85 92 87 72 83 88 97 99 98 98 97 96 54 36 32 33 33 34 34 31 26 22 18 15 14 14 16 20 26 30 34 36 36 35 30 13 10 13 17 24 28 26 30 35
85 100 91 91 97 93 95 97 99 98 93 49 36 33 34 34 36 36 34 27 22 17 14 13 12 15 19 24 30 34 37 38 36 31 14 10 14 18 24 28 27 31 38 32
95 99 98 99 98 99 99 97 100 95 48 36 34 35 36 38 39 35 27 21 17 14 12 12 13 17 23 29 33 37 38 38 32 14 12 16 20 26 30 30 35 41 36 26
98 98 96 92 97 98 99 100 88 42 36 36 36 38 41 43 38 27 20 16 14 11 11 12 15 21 28 32 37 39 39 31 14 12 18 22 27 31 32 42 43 35 26 26
98 98 100 99 98 97 75 44 37 36 38 38 39 45 48 37 26 20 17 14 12 10 11 13 18 25 32 37 39 39 28 12 15 22 24 28 33 34 45 47 36 29 27 28
97 100 100 98 92 66 44 38 37 39 39 42 49 53 40 27 21 18 14 11 10 10 12 14 21 31 37 39 39 21 12 18 23 23 30 35 38 47 47 39 32 30 31 37

GFSNGP_700_rhum_039.txt.gz
RH
88 85 93 98 98 99 98 89 96 63 80 68 73 68 59 56 85 82 85 58 50 52 53 57 65 71 71 70 69 65 63 59 60 62 63 66 71 74 76 76 76 82 87 64
97 75 96 99 99 99 99 100 99 94 88 80 72 59 81 98 99 83 78 65 58 56 61 68 74 74 74 72 67 63 60 64 66 65 68 73 76 78 79 78 85 88 60 30
94 72 83 88 98 99 100 100 99 98 74 84 74 85 100 92 83 84 66 62 61 65 71 76 77 76 73 71 68 65 65 68 68 71 74 76 78 80 81 90 86 61 28 22
97 98 93 80 86 100 99 100 98 82 74 98 98 90 78 77 79 70 64 65 66 71 76 78 79 79 80 77 70 69 70 71 72 73 76 81 85 85 95 84 50 26 22 20
98 99 74 75 94 98 100 100 72 75 84 93 80 69 66 66 68 72 68 71 74 80 83 82 84 82 80 73 71 71 72 73 76 83 90 90 91 95 69 35 25 21 22 23
100 99 97 82 80 81 93 88 94 82 82 84 75 66 66 64 66 68 76 78 80 84 86 82 74 73 74 75 77 80 86 91 93 92 92 94 75 42 28 24 21 24 24 20
99 98 76 90 76 71 84 90 90 97 96 84 77 67 64 63 60 65 71 73 70 74 80 81 82 84 90 97 97 95 95 92 93 92 72 48 32 25 22 22 25 22 20 19
100 97 90 82 67 64 63 69 93 81 86 84 74 74 75 66 62 62 67 65 76 82 81 84 91 96 95 91 91 93 92 86 68 45 32 26 24 22 24 25 21 20 18 17
81 77 76 76 70 68 57 52 50 54 83 99 96 87 78 71 70 68 70 70 74 82 82 84 88 91 96 96 89 80 65 45 33 26 25 21 22 25 23 21 20 16 14 16
80 75 73 68 66 71 62 66 52 53 49 59 74 78 81 85 82 80 76 74 76 77 83 86 87 88 83 78 63 45 33 27 25 21 22 24 25 22 22 19 16 15 17 20
79 81 79 76 69 69 59 66 61 58 60 66 73 69 72 75 75 75 76 78 83 86 90 87 81 76 64 45 32 26 25 22 22 24 25 23 22 21 18 16 16 18 21 21
86 88 85 84 76 81 68 61 56 57 63 65 68 69 68 70 76 78 80 84 85 83 82 77 65 46 32 24 24 22 21 23 24 23 22 22 20 18 18 19 23 26 25 22
81 87 89 86 82 69 59 58 55 58 66 67 65 70 71 74 74 76 80 77 79 75 66 44 30 22 24 22 22 23 23 23 22 22 21 18 16 17 19 27 28 25 22 21
79 87 90 95 98 89 77 84 94 69 56 66 63 72 75 75 72 74 73 69 55 37 26 22 24 23 22 23 23 23 22 22 22 19 17 16 17 18 22 22 20 20 22 13
84 90 99 99 99 98 100 99 98 95 94 80 71 71 72 69 64 57 44 32 24 23 25 25 24 24 24 24 23 23 22 21 18 16 16 16 20 24 24 23 22 23 14 8
97 100 100 96 100 100 100 100 90 74 72 74 70 71 69 65 58 42 29 25 26 27 26 25 26 26 26 24 23 22 19 17 15 15 17 21 24 25 24 23 24 16 8 9
97 100 99 98 98 99 99 99 96 94 76 78 78 79 76 60 40 28 27 29 29 27 27 28 28 26 25 23 21 18 16 14 15 17 21 24 24 23 24 26 17 8 11 14
98 99 95 99 96 81 88 83 84 86 85 85 88 85 86 76 32 30 31 30 28 29 29 29 28 25 23 20 17 15 14 15 17 21 23 23 24 26 28 18 9 11 14 19
82 85 88 89 81 75 74 76 85 91 91 91 94 84 83 48 32 32 30 30 30 31 32 30 25 22 19 16 15 14 14 16 20 21 22 25 29 30 20 8 10 14 18 21
73 78 77 78 75 78 78 83 89 94 92 95 91 86 74 36 33 30 31 31 32 34 31 25 21 18 16 14 13 14 16 18 19 22 27 30 31 20 9 10 14 18 22 21
62 74 83 82 73 75 88 91 93 97 98 97 96 79 42 34 31 32 32 35 37 32 25 21 18 15 13 12 14 15 16 18 21 27 31 32 19 9 12 16 18 22 22 23
61 74 76 83 72 76 88 96 97 98 95 84 87 53 35 32 33 34 37 40 34 25 20 17 15 13 12 13 13 16 18 22 29 33 32 17 9 13 18 19 24 24 23 29
61 86 84 81 78 87 91 98 99 99 99 97 55 36 33 34 36 39 42 36 24 20 17 15 13 12 12 13 14 16 23 31 33 30 12 11 17 19 20 24 25 26 30 28
57 92 98 95 93 99 99 97 98 97 96 76 38 34 35 37 41 43 36 24 20 18 15 13 12 12 12 13 16 24 29 32 22 10 14 19 19 19 26 27 33 35 30 23
85 100 96 95 95 99 100 99 97 100 84 37 35 36 38 43 46 36 25 22 19 16 13 12 12 10 11 17 23 29 30 13 10 17 18 17 20 29 30 38 39 30 26 26
98 98 98 100 99 99 99 96 98 81 39 36 37 38 46 49 40 29 24 21 16 13 13 12 10 11 16 22 27 22 9 11 17 16 17 25 31 31 41 40 34 29 28 31
99 97 98 100 99 98 97 71 40 36 37 38 40 48 53 49 35 27 22 16 13 14 13 10 11 16 22 26 15 8 14 16 14 18 29 33 32 40 40 37 34 32 34 54

GFSNGP_700_rhum_042.txt.gz
RH
69 60 71 89 99 96 98 97 98 73 78 73 77 84 75 72 75 57 86 89 60 29 44 64 66 68 67 72 71 74 71 72 69 69 63 61 64 66 72 76 80 80 79 78
63 66 86 100 98 99 100 99 99 100 97 90 81 76 73 84 85 100 87 86 53 32 30 54 72 75 80 78 82 83 100 86 80 75 66 68 70 74 78 81 80 81 83 93
98 94 98 96 98 99 99 98 99 91 78 91 99 94 92 99 100 97 93 84 59 38 40 67 81 85 84 93 97 99 99 94 75 72 72 74 76 80 83 82 84 89 97 85
97 87 77 70 95 99 100 100 97 84 84 97 98 100 98 94 94 94 90 80 76 74 77 94 99 100 100 100 99 98 86 77 73 75 76 80 84 84 83 90 97 97 49 24
97 97 77 80 92 96 99 99 89 82 89 99 90 93 99 100 96 88 84 85 90 99 100 99 98 96 89 84 78 76 76 77 76 79 83 86 90 94 98 99 75 28 22 21
98 94 76 73 79 80 97 98 100 96 88 93 80 93 90 88 87 82 84 85 85 89 91 90 88 88 85 83 80 78 77 77 81 85 99 100 99 98 85 37 24 21 22 20
100 97 82 67 72 74 88 98 100 99 100 95 83 77 80 85 82 85 83 83 83 85 88 89 89 88 84 80 78 78 83 94 100 100 99 98 85 46 27 22 22 23 20 19
99 98 90 75 76 80 71 87 93 100 100 99 98 85 82 92 89 81 92 85 91 90 92 96 96 94 88 92 97 100 100 99 99 99 82 48 29 23 22 22 22 21 19 16
92 80 71 72 72 73 71 66 68 67 98 97 92 99 90 96 86 79 87 82 85 90 88 91 96 100 100 100 100 100 99 97 75 45 29 24 22 22 23 21 20 18 15 14
81 71 72 74 68 68 71 70 69 64 67 88 96 99 86 90 95 84 80 87 89 92 92 92 98 100 100 100 100 96 73 45 29 25 22 22 23 22 22 20 16 14 14 14
71 78 76 81 77 66 64 68 63 63 55 64 77 90 90 89 88 86 81 85 90 96 100 100 99 98 96 91 69 44 29 25 23 22 23 23 22 22 19 16 15 14 14 13
84 86 86 86 80 76 68 69 74 65 69 72 76 72 74 81 80 82 86 90 94 100 100 99 92 84 66 44 28 25 23 22 23 24 22 22 21 18 16 14 14 15 15 15
78 86 86 91 83 83 75 60 61 67 70 72 66 69 70 76 83 88 93 98 100 99 95 88 69 45 28 24 23 23 24 24 23 23 22 19 17 15 14 16 17 18 17 19
86 81 85 96 97 77 68 70 78 78 73 72 71 72 78 84 84 90 91 89 88 82 64 43 26 24 24 24 24 25 24 24 23 21 18 16 14 14 15 15 15 18 20 18
83 76 85 99 100 98 92 85 96 76 78 81 78 79 80 78 76 75 76 69 52 35 24 24 25 24 25 26 26 25 24 22 19 17 15 14 14 15 15 15 17 19 19 11
72 79 93 100 100 100 100 100 100 96 97 85 73 73 70 68 62 54 42 30 24 25 26 26 26 27 27 27 25 23 21 18 16 14 13 14 15 15 16 19 22 21 12 6
79 94 96 97 97 100 100 99 91 89 79 76 72 68 65 59 46 34 27 27 28 28 27 28 29 30 29 25 22 19 17 15 13 13 14 14 14 16 20 21 21 12 6 10
89 99 99 94 98 93 89 96 93 93 80 77 78 82 77 56 32 29 30 30 28 28 30 31 34 30 25 21 18 16 14 13 13 13 12 13 16 20 22 20 9 7 12 15
89 95 90 88 91 98 94 85 83 83 85 85 88 82 80 59 33 31 31 29 30 31 33 35 30 24 20 18 16 14 13 12 12 11 13 18 21 23 17 7 8 14 16 17
82 82 87 81 66 76 89 87 82 88 92 89 89 84 80 46 33 32 30 31 32 36 36 29 23 19 17 15 14 13 12 10 10 12 17 21 22 11 8 13 16 17 18 19
73 78 80 82 80 75 81 87 87 90 92 86 96 80 65 37 33 31 32 33 38 38 30 22 19 17 15 14 13 11 9 9 13 18 22 18 8 10 16 16 16 19 21 20
62 68 82 83 82 80 80 88 92 96 91 93 96 84 45 34 32 33 35 40 40 31 23 20 18 15 14 12 11 9 10 13 17 19 11 8 14 16 15 16 22 23 24 25
55 72 85 89 89 84 86 92 97 94 97 97 89 64 37 32 34 36 42 42 32 23 21 18 15 14 13 10 9 10 12 16 16 8 9 15 15 15 18 26 25 28 29 24
49 76 89 94 92 92 96 96 96 98 97 96 92 39 33 34 36 43 45 35 24 22 19 15 14 13 10 9 10 12 16 12 7 11 14 14 17 24 27 27 33 34 28 22
49 91 99 95 96 99 99 98 98 97 97 98 90 38 35 36 42 46 39 28 25 20 16 15 14 11 10 9 11 14 9 8 12 14 14 20 26 29 30 37 36 31 27 25
51 92 99 98 100 99 99 99 100 98 96 77 36 36 37 43 49 44 34 28 22 17 15 15 12 10 9 10 12 9 8 11 12 14 19 24 26 29 38 37 34 30 30 37
73 100 98 93 96 98 98 97 98 96 87 39 36 37 43 52 50 40 31 25 18 16 16 14 11 9 9 11 9 8 11 12 13 17 19 22 28 35 34 35 34 33 42 70

GFSNGP_700_rhum_045.txt.gz
RH
91 96 96 97 95 89 99 96 99 85 96 96 98 98 96 91 82 81 98 75 69 70 55 46 55 78 67 70 76 76 75 73 71 65 64 94 93 66 65 64 66 70 75 80
99 99 96 86 88 89 99 99 100 100 97 74 92 96 94 84 86 76 74 86 100 87 38 45 60 80 73 76 78 76 78 80 75 82 98 79 73 68 66 68 72 76 81 85
90 88 79 87 81 96 99 100 100 99 96 95 88 97 99 99 98 98 99 98 100 49 33 53 70 85 84 82 85 93 98 98 100 99 94 82 72 71 75 75 79 84 89 95
94 80 75 67 77 87 100 97 99 85 90 90 98 100 100 100 100 100 100 100 71 33 38 62 78 96 99 99 94 99 97 99 100 100 89 85 96 84 80 84 90 95 97 94
91 76 68 64 83 82 99 99 100 93 94 99 99 100 100 100 100 100 91 84 60 39 40 82 98 100 100 98 100 99 100 100 99 96 95 86 81 84 92 96 98 97 59 24
94 89 73 77 79 86 98 100 99 100 100 92 94 99 100 100 100 96 92 90 79 89 99 99 99 100 100 100 100 100 99 95 94 84 81 84 94 97 98 97 78 27 22 22
100 95 77 74 87 79 81 98 99 99 100 93 87 94 98 98 97 98 100 100 100 100 100 100 100 100 100 99 93 91 89 84 83 86 93 98 98 97 76 30 24 22 22 21
99 97 86 79 89 87 86 94 96 99 100 100 96 88 96 94 91 85 85 90 92 94 94 95 96 94 90 88 89 93 94 94 98 100 98 96 65 32 24 22 22 22 21 17
82 82 78 73 76 74 77 76 80 80 90 100 99 94 98 100 99 97 97 93 92 94 93 93 96 98 98 98 97 98 100 99 98 94 56 30 24 22 23 23 22 20 16 14
91 82 78 88 84 76 67 77 71 75 80 97 100 96 94 98 100 100 96 96 95 95 98 98 99 99 99 99 99 99 98 91 53 29 25 22 23 23 23 22 18 16 14 13
88 78 89 88 86 78 70 64 70 68 65 80 100 100 100 99 98 100 98 89 89 95 100 100 99 99 99 100 99 86 50 30 26 23 24 24 23 23 20 17 15 14 13 11
84 88 88 85 86 80 77 68 79 70 64 67 80 98 100 99 95 97 99 97 99 99 99 99 99 99 98 78 46 29 26 24 24 25 24 24 22 19 16 14 14 12 10 9
78 78 80 84 87 84 84 77 63 72 77 77 78 83 95 100 98 99 99 100 100 100 99 99 99 87 47 28 26 24 24 25 25 24 23 20 18 15 14 13 12 9 9 12
82 87 88 79 89 92 89 70 74 84 78 75 72 71 77 90 86 95 100 100 100 100 100 99 65 31 26 25 24 26 26 25 24 22 19 16 15 13 13 10 9 12 14 15
68 72 84 80 86 95 94 84 96 81 81 77 77 77 80 87 94 98 100 99 95 89 61 36 25 25 25 26 27 26 25 24 20 18 16 14 13 12 9 9 12 14 15 11
74 70 74 78 86 94 99 100 100 99 87 87 88 84 85 91 94 91 87 72 48 30 25 25 25 26 28 28 27 26 22 19 17 15 14 13 10 9 10 12 14 13 6 6
83 83 86 86 99 99 96 100 100 99 99 98 80 74 72 68 61 54 44 32 26 26 26 26 28 29 31 30 25 21 18 16 14 14 12 9 8 9 12 14 10 6 7 12
83 86 89 98 100 98 99 100 98 99 96 87 69 67 64 59 44 33 28 28 28 28 28 30 33 34 30 24 20 18 16 14 13 11 8 8 10 13 14 8 6 10 12 13
93 100 100 99 98 94 87 96 95 95 81 74 78 80 77 75 46 31 30 30 28 30 31 36 36 30 23 19 18 16 14 12 10 8 8 10 12 10 6 8 12 12 12 15
77 77 86 85 89 92 88 86 83 83 85 88 91 86 75 66 38 32 30 29 31 33 39 37 29 22 20 18 16 14 12 9 8 8 10 11 8 7 11 13 12 13 18 20
83 85 81 73 73 78 81 90 85 83 86 88 87 90 77 54 35 32 30 31 34 40 39 29 22 20 17 15 13 11 9 8 8 10 9 7 8 11 12 13 16 22 22 21
76 77 81 85 86 89 81 86 90 87 89 88 88 90 73 48 35 31 32 34 40 42 30 23 21 17 15 14 11 10 8 8 9 8 7 9 11 12 16 22 25 26 25 27
64 68 70 78 84 85 86 89 89 90 92 94 88 97 83 41 32 33 35 40 43 33 24 22 18 15 14 12 10 9 8 8 7 7 9 10 13 18 22 28 30 32 33 27
40 54 68 82 90 91 94 96 92 92 92 90 97 77 40 34 33 35 40 45 38 27 24 19 16 15 13 11 9 8 8 7 7 9 10 13 15 17 25 31 35 35 30 25
31 42 68 87 94 95 97 99 98 96 96 96 96 78 44 34 34 37 45 44 33 27 22 17 16 14 12 10 8 8 7 8 9 10 12 13 15 22 28 31 32 31 28 27
35 39 65 88 92 95 99 100 98 97 97 97 98 95 59 35 37 45 48 40 32 25 19 17 16 13 11 9 8 8 8 8 10 12 13 15 21 23 25 29 30 29 32 53
44 50 81 98 98 98 100 99 99 98 99 99 87 45 35 36 43 50 46 38 32 23 18 18 16 12 10 9 8 8 8 9 12 13 14 18 19 22 26 28 29 36 61 77

GFSNGP_700_rhum_048.txt.gz
RH
83 67 82 90 82 86 99 83 98 73 92 98 92 86 90 93 97 96 95 92 88 72 60 50 75 98 98 99 74 58 70 79 87 80 81 73 69 66 96 100 98 97 89 69
78 68 76 74 79 80 86 99 99 100 89 85 98 100 100 96 100 99 97 97 93 76 68 57 88 100 91 82 77 77 84 96 96 97 84 71 97 100 100 100 96 78 71 80
86 82 86 85 80 83 90 92 98 99 90 94 97 100 100 96 98 95 100 98 94 82 96 99 80 62 80 91 83 86 93 99 100 90 85 96 99 100 99 86 87 79 94 88
84 79 90 67 65 80 81 87 99 99 100 99 100 100 100 99 99 100 100 99 98 100 99 79 75 90 100 98 97 98 98 100 97 100 100 100 100 99 84 80 95 88 89 97
93 77 70 83 84 83 97 92 99 99 100 100 98 100 100 99 97 100 100 99 99 93 70 79 92 100 100 100 100 100 99 100 100 100 100 99 98 97 98 88 89 97 98 93
97 90 81 76 65 91 88 99 100 100 97 87 91 97 100 99 100 99 91 91 82 68 73 94 100 100 100 100 100 100 100 100 100 100 98 98 93 88 91 98 98 93 28 23
98 93 76 58 76 87 94 88 99 100 99 87 90 96 100 100 99 99 98 91 71 95 97 100 100 100 100 100 100 99 99 99 98 94 93 89 94 98 98 83 30 24 23 23
95 94 89 80 84 90 86 92 97 90 100 95 91 95 98 96 100 100 100 100 100 99 100 99 100 99 99 97 98 96 88 82 88 97 98 98 97 66 31 24 23 23 23 20
80 71 71 80 86 86 86 83 89 78 90 98 97 99 98 100 99 95 94 99 100 100 99 99 98 96 92 93 96 98 99 100 100 100 95 56 29 24 23 24 24 22 18 15
91 88 92 88 94 90 84 76 81 80 79 96 99 99 99 100 100 100 98 99 98 100 100 100 99 98 98 99 100 100 100 99 89 51 28 25 24 24 24 23 20 17 14 13
83 77 91 87 95 85 84 74 71 75 73 85 98 96 98 99 100 100 100 100 100 99 99 100 98 100 100 100 100 97 76 43 27 25 24 25 25 24 21 18 16 14 12 9
91 93 91 85 82 82 86 90 87 74 73 74 96 100 100 100 96 95 100 100 100 97 100 100 100 100 99 87 63 37 26 25 24 25 26 25 23 19 17 15 13 11 9 8
86 76 72 74 76 84 85 87 74 73 77 71 77 95 100 100 96 98 100 99 100 98 100 96 97 87 70 38 26 26 25 26 26 26 25 21 18 16 14 12 10 8 8 8
84 78 81 81 82 79 88 89 78 78 89 80 78 80 88 100 100 99 100 100 100 100 99 99 98 52 27 26 25 26 27 27 27 23 19 17 15 14 11 9 8 8 9 8
71 70 66 63 74 83 84 95 92 89 84 80 82 93 96 100 98 100 100 100 100 100 100 97 48 26 26 26 27 28 29 25 21 18 16 15 13 10 8 8 8 8 7 6
88 81 72 67 67 79 84 96 95 94 96 87 95 94 95 95 100 100 100 99 99 97 57 29 26 26 27 29 31 29 23 19 18 16 14 12 9 8 8 8 8 6 6 9
94 84 82 80 80 85 99 98 99 99 100 98 98 94 92 92 94 90 86 78 57 32 26 26 27 29 32 33 28 22 19 17 15 13 11 9 8 8 7 6 6 7 10 10
94 89 85 90 96 99 100 100 100 100 100 99 86 76 69 65 60 51 41 29 26 27 28 28 30 35 34 26 21 19 17 15 13 10 8 8 7 7 6 6 8 10 11 12
89 89 94 99 100 99 100 100 100 98 97 91 82 68 69 59 41 30 28 28 29 28 30 32 37 34 27 21 20 17 14 12 10 8 8 7 6 6 7 9 11 13 16 19
92 100 100 99 91 85 92 99 98 96 91 82 82 92 84 74 59 38 31 30 29 30 33 39 36 27 22 20 17 14 12 10 8 8 7 6 6 7 9 12 14 18 23 26
88 84 80 80 90 93 91 90 91 94 98 96 97 95 92 72 39 33 32 30 31 34 40 39 29 23 20 17 15 12 10 9 8 7 6 6 7 10 11 11 14 19 26 30
92 92 88 88 88 94 94 90 91 93 94 90 94 94 88 65 44 34 31 32 33 40 42 32 25 22 18 16 13 11 9 8 7 6 6 7 9 10 10 14 20 28 32 32
79 83 83 82 88 91 98 100 99 96 87 92 92 91 96 90 48 32 32 34 40 43 37 28 24 19 16 15 12 10 9 8 7 6 6 9 9 10 13 18 24 26 27 24
52 62 70 77 80 85 90 94 98 99 95 88 90 92 96 95 43 33 34 36 44 42 32 28 22 18 16 14 11 10 9 7 7 7 8 9 9 11 16 22 22 21 20 20
34 31 37 60 79 90 94 96 100 99 97 93 94 96 98 86 38 34 35 41 45 39 32 27 20 18 16 13 12 10 8 7 7 8 9 9 10 14 20 21 19 21 28 51
35 37 38 52 84 99 100 100 96 99 98 96 97 97 96 64 36 35 36 45 44 38 34 26 20 18 16 14 12 9 8 7 8 9 9 9 11 17 20 21 23 36 58 64
42 42 47 62 90 99 99 96 100 100 99 97 97 99 96 70 44 36 43 46 42 46 42 24 19 19 17 14 11 9 7 8 9 9 9 10 14 18 20 22 33 55 59 58

GFSNGP_700_rhum_051.txt.gz
RH
80 86 88 85 81 83 86 74 94 64 79 77 99 99 98 100 98 97 99 98 99 98 90 76 69 50 53 67 85 75 97 97 77 96 99 94 87 92 81 99 99 99 88 100
77 81 77 77 82 81 72 79 85 85 91 100 99 100 99 99 100 100 99 99 99 99 92 81 68 65 66 84 96 97 99 91 94 100 100 99 100 100 100 100 95 100 100 99
80 75 80 81 74 76 78 84 92 100 96 94 98 99 98 100 96 98 100 99 99 99 99 90 88 89 99 99 99 100 100 83 100 99 99 100 100 100 100 99 100 100 99 96
76 76 88 73 67 80 85 97 99 99 99 100 98 98 100 100 98 99 99 99 92 87 90 94 99 100 100 99 99 100 99 100 100 100 100 100 100 100 100 100 100 98 94 98
98 83 70 80 75 81 89 82 95 99 99 88 99 97 100 99 100 100 100 99 98 99 97 96 94 99 99 98 99 99 99 100 100 99 99 100 100 100 100 98 97 99 96 99
95 88 88 85 65 83 90 87 90 98 99 93 92 98 100 99 98 96 92 79 60 51 55 52 74 93 99 100 100 99 100 99 99 100 100 100 100 97 99 98 96 100 98 46
100 95 71 64 70 91 85 82 90 94 92 98 97 96 98 98 100 100 94 74 66 69 80 97 100 100 99 99 98 99 100 99 98 99 98 98 98 98 97 100 90 33 24 23
100 96 84 87 89 95 86 90 88 87 87 89 98 100 99 99 99 98 99 98 99 98 95 100 99 98 98 98 98 97 98 99 98 99 99 97 100 100 64 29 24 24 24 22
77 67 76 83 92 89 92 86 80 82 84 89 99 99 100 100 100 99 98 87 92 99 99 96 97 98 99 99 99 99 98 96 91 95 98 78 38 27 24 24 25 22 19 16
97 94 91 94 90 91 86 84 71 74 80 80 99 100 98 99 100 100 99 98 97 97 94 92 95 98 98 98 96 98 97 95 91 52 31 26 25 25 25 24 20 17 15 13
91 94 87 84 91 83 82 85 84 84 80 80 97 99 99 99 99 98 100 100 100 99 98 98 98 98 98 99 100 91 59 42 33 27 26 26 26 25 21 18 16 14 12 9
89 98 98 91 80 71 75 86 83 80 81 76 99 99 100 100 98 100 100 99 99 99 99 99 99 100 100 82 46 36 34 28 27 27 27 26 23 19 17 16 13 10 8 7
78 80 87 86 79 84 82 82 79 82 85 81 82 98 100 99 100 100 100 99 100 100 99 100 100 100 62 34 30 29 27 27 28 29 26 20 18 16 14 12 9 7 7 6
100 100 97 83 82 77 83 82 83 80 79 88 87 88 100 100 100 100 100 100 99 100 99 100 100 53 30 29 27 27 29 30 29 23 19 18 16 13 10 8 7 7 6 5
87 84 86 89 81 69 71 80 83 88 88 90 82 84 95 99 100 100 100 100 100 99 100 100 94 34 28 27 28 31 32 27 21 19 17 14 12 9 8 7 6 6 5 6
99 91 89 86 82 77 76 80 82 88 92 88 85 98 98 98 100 100 100 100 99 100 100 90 32 28 27 29 34 32 25 20 18 16 13 11 8 8 7 6 5 5 6 7
99 100 99 94 93 87 86 90 90 94 94 100 99 98 99 99 99 100 100 100 100 96 48 29 27 28 30 36 32 24 20 18 15 13 10 8 8 7 6 5 5 6 8 10
81 98 100 96 98 97 100 99 100 100 100 99 99 99 95 98 100 96 93 72 46 31 27 27 29 32 37 32 24 20 18 15 13 10 9 8 7 6 5 5 6 8 9 12
73 99 97 98 99 100 99 99 100 99 99 99 98 85 69 64 59 48 36 29 28 28 28 30 33 38 34 25 21 18 15 13 10 9 8 7 6 5 5 6 7 8 12 16
99 98 98 100 99 94 99 99 99 99 98 94 87 90 76 84 88 64 33 31 30 29 30 33 39 36 26 22 19 16 14 11 10 9 8 6 5 6 6 6 7 10 14 17
100 100 99 98 97 92 91 97 98 98 94 94 96 96 95 92 80 58 37 30 29 31 34 40 39 28 24 20 17 15 12 11 10 8 7 6 6 6 6 7 9 10 12 12
98 97 96 95 99 100 95 92 94 94 93 95 97 96 94 79 54 36 34 31 31 33 40 41 32 26 23 18 17 14 12 11 9 7 6 6 6 6 7 9 9 9 9 10
94 98 98 99 99 97 97 99 99 100 97 93 84 97 96 93 70 40 32 31 32 38 43 39 31 27 22 18 16 14 13 11 8 7 7 7 6 7 8 11 9 10 12 20
61 75 80 84 88 89 90 93 100 100 99 96 94 87 93 95 97 72 36 32 34 40 44 37 32 27 20 18 17 15 13 10 7 7 7 7 7 7 11 13 12 17 32 47
41 38 35 42 60 78 88 93 100 100 100 100 97 74 82 97 98 61 34 34 36 43 42 38 33 26 20 20 18 16 12 9 7 8 8 7 7 9 13 16 20 35 48 46
47 44 41 43 52 74 90 97 91 99 99 100 98 83 85 96 96 81 34 34 37 43 41 37 36 28 21 21 19 15 11 8 8 8 7 7 8 12 15 18 25 44 49 44
58 50 46 46 52 72 98 100 91 95 99 100 98 97 95 97 98 66 35 35 40 42 41 53 45 27 22 21 18 14 9 8 8 8 7 8 10 14 16 18 28 51 49 44

GFSNGP_700_rhum_054.txt.gz
RH
83 94 93 92 83 83 90 77 91 56 61 70 84 94 93 97 97 96 99 94 93 92 88 100 98 95 73 69 53 62 70 79 81 84 76 79 52 54 99 99 99 99 100 100
74 74 75 80 80 80 81 80 84 72 77 83 99 98 98 87 98 97 94 97 96 98 100 99 91 90 76 62 49 77 93 99 88 99 100 91 86 98 100 100 98 100 100 99
72 85 79 84 68 69 70 67 79 87 86 98 97 98 98 98 98 99 98 98 99 98 100 88 75 81 61 56 65 79 86 87 95 100 90 100 98 100 100 100 100 100 100 99
78 83 94 70 69 76 81 86 94 93 97 99 100 98 98 98 98 99 99 100 98 97 94 98 98 100 81 79 94 99 99 99 98 75 100 100 100 100 100 99 99 100 99 99
99 94 68 74 81 79 92 83 90 88 98 99 93 95 98 99 98 96 86 99 98 94 88 83 83 80 100 95 98 98 99 100 96 94 100 100 100 99 99 99 98 98 98 99
86 97 84 88 68 74 89 85 90 96 93 95 96 100 98 98 95 93 75 61 78 75 67 69 78 84 88 94 100 100 100 95 100 99 98 99 98 99 98 98 98 96 98 96
85 92 69 66 69 80 87 82 99 93 88 87 92 95 98 99 92 89 99 100 81 78 70 71 93 99 98 96 99 96 97 96 99 98 98 97 98 98 97 96 96 77 28 25
98 92 81 84 82 90 91 98 92 82 78 86 90 96 97 99 87 84 82 90 100 97 98 100 97 98 97 95 96 98 99 98 97 96 97 98 99 97 86 39 25 24 25 24
78 71 79 83 87 93 98 90 88 74 75 86 96 100 98 98 99 95 90 89 96 97 94 100 98 100 98 100 99 98 98 98 97 98 98 75 35 26 25 26 25 23 19 17
96 91 82 84 96 95 98 86 86 91 86 84 93 99 99 98 97 96 99 99 95 98 94 89 94 95 98 96 95 96 97 97 76 35 27 25 26 26 26 23 19 17 16 13
90 77 87 81 90 100 89 74 87 90 81 84 96 99 100 99 98 96 95 98 99 98 96 92 91 94 96 92 88 72 41 28 26 26 27 28 27 24 20 18 16 14 11 9
82 92 88 89 98 93 81 87 89 84 84 80 95 99 100 99 100 99 98 97 99 100 98 98 93 88 62 42 30 28 27 27 28 29 29 25 20 18 16 14 12 9 8 7
91 80 77 79 84 88 90 85 87 88 84 91 81 99 99 99 100 97 99 99 99 98 99 99 89 44 31 29 28 28 29 30 30 26 22 19 18 15 13 10 8 8 7 6
98 99 78 73 80 83 84 74 74 86 90 88 98 92 99 100 99 100 99 100 99 99 99 100 62 33 30 28 28 30 32 30 25 21 19 17 14 11 9 8 8 6 6 5
85 92 87 83 80 87 87 81 73 80 87 89 95 92 88 100 99 99 99 99 100 99 99 100 70 33 29 28 31 34 31 25 20 18 16 13 10 8 8 7 6 5 5 5
95 98 99 90 87 89 84 80 77 86 90 93 90 89 94 100 99 99 100 100 99 98 99 100 51 30 28 30 35 32 25 21 18 15 13 10 9 8 7 6 5 4 4 5
87 97 98 99 99 95 91 86 86 94 95 96 94 93 99 100 100 100 100 99 99 100 100 62 31 28 30 35 33 26 21 18 15 13 10 9 9 8 6 5 4 4 4 5
67 72 88 97 100 98 100 100 100 100 99 97 100 100 100 99 99 100 100 99 96 82 47 32 29 30 35 35 28 22 19 16 13 11 10 9 8 6 5 4 4 4 4 5
63 68 78 92 97 98 98 96 100 99 99 99 99 99 99 99 99 100 99 74 44 34 32 29 29 34 37 30 23 20 17 14 12 11 10 9 7 6 4 4 4 4 4 5
78 82 95 95 98 98 99 100 99 99 99 99 99 99 96 90 73 51 40 36 44 32 29 30 33 38 34 25 22 18 16 13 12 12 10 8 6 5 4 4 4 4 4 4
100 100 99 99 87 88 98 100 99 99 99 98 96 94 78 86 96 96 85 36 31 29 30 33 39 38 29 25 20 18 16 13 13 12 9 7 6 5 4 4 4 5 5 6
99 98 99 100 99 96 95 91 95 97 96 96 97 94 94 91 77 54 43 36 30 30 32 38 42 35 28 24 20 18 16 14 14 12 8 6 5 4 4 4 6 6 8 19
100 99 97 98 98 96 100 98 97 97 95 96 98 100 92 84 69 46 34 32 30 31 34 41 40 33 29 24 20 19 18 16 14 10 7 6 5 5 5 6 8 9 18 36
48 74 92 89 95 100 100 100 99 99 98 97 92 86 95 96 94 82 62 43 33 33 37 41 38 33 30 25 22 20 19 17 14 9 7 6 5 5 6 8 12 15 33 41
52 46 43 42 57 82 94 96 97 100 100 99 98 88 96 90 90 98 90 36 32 33 37 41 37 33 31 29 23 21 20 17 12 8 7 6 5 6 6 10 15 19 37 44
63 59 51 47 44 46 58 76 92 99 100 100 99 99 99 90 65 96 95 57 34 34 37 40 36 36 43 35 25 23 21 16 10 7 6 6 6 6 8 12 16 19 40 48
65 63 63 60 51 49 56 74 93 96 98 96 100 99 100 96 94 95 99 86 36 34 37 39 36 49 54 38 25 23 20 14 9 7 6 5 6 8 12 15 16 20 44 50

GFSNGP_700_rhum_057.txt.gz
RH
80 87 88 86 83 82 87 92 81 47 50 62 76 91 83 92 93 86 90 96 83 90 94 76 73 97 90 93 85 75 60 52 58 76 78 78 77 90 100 93 91 72 93 100
70 75 78 82 84 81 80 76 76 61 70 79 89 87 87 89 85 87 98 86 90 80 90 76 99 90 92 99 82 63 55 60 78 89 96 92 95 90 71 83 87 65 100 99
75 91 81 74 62 62 60 58 57 71 82 97 97 82 90 88 90 87 99 90 92 88 93 87 91 94 90 76 74 48 48 77 89 98 93 95 83 98 91 82 60 100 99 100
82 82 94 69 72 71 80 85 90 93 98 98 96 96 91 91 96 100 100 91 81 92 100 99 100 100 100 100 98 90 87 99 96 99 100 99 84 96 100 99 100 100 99 100
96 94 70 62 86 84 84 81 95 99 97 97 94 94 99 87 99 99 100 72 82 85 99 100 96 81 85 80 84 89 99 96 88 99 98 98 100 100 100 99 100 100 100 97
87 91 87 90 78 73 83 97 99 92 98 94 98 97 98 97 96 89 94 97 60 62 80 80 95 100 98 99 99 100 97 99 100 100 100 100 99 97 98 100 99 96 96 98
99 85 76 64 77 72 88 91 90 90 84 83 97 95 99 99 91 83 76 93 78 93 96 99 100 100 100 100 100 91 94 96 99 99 98 99 98 98 97 98 97 94 50 26
100 95 81 79 71 88 86 98 96 94 84 84 97 93 99 100 91 82 70 80 89 98 99 99 98 99 100 96 89 99 97 97 96 97 98 97 98 97 89 48 29 26 26 24
86 77 79 94 89 89 90 93 95 88 98 95 96 99 95 88 82 83 78 88 84 86 99 99 100 99 93 90 94 96 98 98 99 97 97 77 42 27 26 27 27 23 19 17
93 97 93 97 93 86 88 98 84 84 98 94 96 99 95 97 90 78 81 91 88 89 90 88 88 92 97 92 96 98 98 90 55 30 27 26 27 28 26 21 18 16 13 10
93 81 91 91 100 98 97 85 89 92 94 98 96 99 99 99 86 87 87 92 90 90 88 88 88 91 90 91 83 52 33 28 27 28 29 29 24 20 18 16 13 10 8 8
82 86 92 92 95 96 93 88 93 95 94 98 99 97 99 100 99 88 95 88 89 91 92 84 79 72 54 37 29 27 27 29 30 30 25 21 19 16 14 11 9 9 8 7
77 80 78 72 74 80 79 79 89 84 92 99 98 100 99 99 100 98 99 88 98 98 83 54 35 29 28 28 28 29 32 33 30 24 21 18 15 12 10 9 9 8 6 5
99 96 96 99 91 78 76 76 77 76 79 92 100 99 100 100 99 96 98 99 93 92 97 66 33 29 28 28 30 35 34 28 23 20 17 14 11 10 10 9 8 6 4 3
88 88 80 94 93 84 80 76 79 77 79 77 92 99 99 100 100 99 99 98 98 97 98 85 36 29 28 30 35 35 29 24 21 17 14 12 10 10 9 8 6 4 3 3
100 98 99 99 98 88 78 78 80 75 73 81 90 98 99 99 99 100 99 94 99 99 99 99 48 29 29 32 37 33 26 22 18 15 12 11 11 10 8 6 4 3 3 3
96 98 98 98 98 100 100 95 93 90 86 91 97 100 98 98 99 99 98 99 99 99 100 100 55 29 30 36 36 29 23 20 16 14 12 11 10 9 7 5 4 3 3 2
71 74 76 78 92 98 98 98 99 98 99 99 100 100 100 99 99 99 99 100 99 100 96 85 34 29 32 38 33 26 22 18 16 13 12 12 10 8 6 4 3 3 3 3
64 60 58 65 83 91 95 98 98 99 100 99 100 100 100 100 99 99 98 99 100 89 72 40 30 30 37 37 30 25 20 17 15 13 13 12 10 8 6 4 3 3 3 3
83 79 72 73 86 91 91 96 98 99 99 99 100 98 99 99 99 98 95 96 68 54 36 31 30 33 39 35 28 24 20 17 15 14 14 12 10 7 5 3 3 4 4 5
100 99 100 100 99 96 90 95 98 99 99 100 100 99 98 98 96 86 63 47 62 61 33 30 31 38 40 32 27 23 19 18 16 16 15 12 9 6 4 4 4 5 5 8
98 99 99 98 93 94 96 100 100 99 99 99 98 97 92 92 92 88 87 68 37 33 30 30 35 40 38 31 28 23 20 19 19 18 15 12 8 6 4 4 5 6 7 13
99 99 99 99 99 100 98 95 93 93 96 98 100 100 98 94 75 59 45 38 34 32 30 32 36 41 37 32 28 24 22 21 21 19 15 10 7 5 4 5 6 7 11 18
69 55 64 84 98 98 99 100 98 98 95 90 94 99 98 90 75 65 49 43 41 34 32 32 37 41 36 32 30 27 24 23 22 19 14 9 7 5 5 6 7 10 14 21
74 63 58 52 50 53 86 99 100 100 99 99 98 97 93 94 96 88 85 59 59 36 32 34 37 40 36 33 32 32 27 24 23 20 13 8 6 5 5 6 9 13 16 18
69 66 63 63 60 52 49 52 74 95 100 99 100 100 98 94 94 97 94 96 91 45 34 34 36 38 34 32 37 37 31 25 23 18 11 8 6 5 6 8 12 15 17 19
68 65 64 60 60 62 59 54 56 69 86 100 100 100 100 99 97 99 97 96 97 93 53 35 36 38 32 34 43 39 30 26 23 16 9 7 6 6 7 10 15 17 18 21

GFSNGP_700_rhum_060.txt.gz
RH
76 81 86 82 81 84 88 82 77 55 46 60 75 82 83 81 93 87 89 82 85 59 42 34 31 28 32 63 70 77 85 79 66 60 53 58 66 62 62 76 80 89 85 95
76 78 83 80 84 88 82 79 76 64 60 82 87 92 82 88 92 90 92 85 70 48 37 34 31 41 54 53 76 77 70 62 51 54 56 72 80 85 93 92 68 97 100 96
77 90 84 75 67 68 67 62 62 66 75 88 83 84 81 83 90 96 99 96 70 60 44 38 47 58 61 62 66 49 44 47 52 66 75 83 80 87 97 95 95 99 100 98
81 79 93 70 70 75 75 80 80 84 82 85 92 84 83 83 92 95 88 92 65 56 50 65 69 94 91 71 100 95 86 80 88 99 90 78 93 99 100 99 98 97 95 100
97 87 70 68 88 87 84 89 92 92 100 99 93 82 94 92 98 90 86 91 82 56 57 67 75 88 94 78 89 97 100 100 100 92 89 99 99 90 99 99 100 100 98 98
90 86 89 92 89 77 87 99 99 92 93 88 81 97 88 96 99 90 81 86 67 62 71 89 99 100 99 99 98 100 100 100 100 100 100 96 95 98 98 100 96 98 98 98
89 84 72 73 81 80 93 96 100 91 95 79 85 93 93 94 100 85 76 85 86 84 98 100 100 100 99 99 100 99 99 99 99 100 100 93 97 98 97 97 97 97 94 68
98 92 82 67 79 94 98 98 94 89 89 91 83 88 95 98 99 90 79 84 91 99 100 96 97 88 87 98 100 98 98 98 98 97 97 96 96 97 89 50 29 26 26 22
84 81 79 98 99 98 89 90 93 80 86 97 85 91 99 95 87 87 83 78 77 99 99 100 87 85 86 86 88 90 91 91 96 99 98 74 36 27 27 26 22 18 15 11
95 96 97 99 98 98 100 93 87 88 96 94 99 95 99 97 90 84 83 82 82 86 92 89 83 84 86 85 88 92 91 75 48 30 27 28 28 24 20 18 14 11 10 9
87 82 85 93 93 99 100 98 89 99 99 97 96 98 100 100 89 83 84 84 84 85 86 83 80 84 86 84 57 34 28 28 28 30 29 24 20 18 14 12 10 10 8 7
79 79 82 78 97 98 95 89 93 88 91 94 97 97 99 100 98 87 86 84 89 87 84 84 82 75 49 31 28 28 29 31 31 26 22 20 16 13 11 10 9 8 6 4
98 96 80 73 75 75 84 87 82 76 84 84 89 98 99 100 100 99 96 91 82 80 72 50 36 30 29 28 29 31 33 31 25 22 19 15 13 11 11 9 8 6 4 3
80 87 94 94 98 96 87 79 75 78 78 78 83 85 99 100 98 100 94 98 88 79 66 37 30 29 28 29 31 35 33 27 23 20 16 13 11 11 10 9 7 5 3 2
81 82 82 90 96 92 97 88 82 79 72 73 77 82 89 99 99 99 98 100 96 94 90 58 30 29 29 30 36 35 30 25 21 17 14 12 12 11 10 8 6 4 3 2
92 99 99 94 98 100 95 88 82 79 77 79 76 75 88 98 99 99 99 99 96 97 93 79 38 31 29 32 37 34 27 23 19 16 14 12 12 12 10 8 6 3 3 2
84 95 97 98 98 98 99 99 100 100 98 93 90 89 95 100 99 99 99 99 99 98 100 100 66 36 30 34 37 32 26 23 19 16 14 13 13 12 10 8 5 3 3 3
76 72 80 85 95 97 96 97 98 98 100 100 100 100 99 98 100 99 99 98 98 99 98 100 86 41 30 36 37 31 26 22 19 16 14 15 14 13 10 7 4 3 3 3
78 76 64 51 56 65 73 87 96 99 98 100 100 99 100 100 99 100 99 99 99 98 98 99 82 34 30 37 37 29 25 21 19 17 16 17 16 14 10 7 4 3 3 4
99 99 84 79 70 64 76 93 100 98 99 97 100 99 100 100 99 99 99 99 99 99 96 79 43 30 32 38 35 28 25 22 20 19 20 19 17 14 10 7 4 4 4 4
97 98 100 93 87 85 88 98 97 95 97 100 100 99 99 99 99 100 99 98 98 97 67 49 47 31 34 39 34 29 27 24 22 21 22 21 18 14 9 6 4 4 5 6
99 100 99 99 99 99 95 100 100 100 100 98 99 93 99 99 98 98 97 95 72 68 92 49 31 31 37 39 34 31 30 26 24 24 24 22 18 14 9 6 4 5 5 7
97 97 98 98 98 98 97 100 98 100 100 99 100 99 97 97 97 97 95 95 85 57 38 33 31 32 38 40 36 33 30 28 28 26 25 23 18 13 8 6 5 5 6 9
96 96 90 88 96 97 98 95 98 97 97 98 96 92 93 100 92 76 61 50 41 38 35 32 32 33 37 40 36 33 32 32 33 28 26 23 18 12 8 6 5 6 8 12
91 92 92 92 76 63 62 88 98 99 99 99 97 95 93 97 89 77 77 78 58 42 40 36 33 33 36 39 37 33 31 35 36 31 28 24 19 12 8 6 6 7 11 14
76 72 66 63 63 64 60 57 59 72 93 100 100 99 98 98 97 97 97 95 88 79 62 59 36 34 35 37 36 31 30 37 37 32 32 25 18 11 8 6 6 8 14 17
63 60 59 56 56 57 58 60 63 59 60 70 84 97 100 100 100 99 99 96 98 98 96 96 84 55 47 44 48 38 32 80 42 40 35 24 16 10 8 6 7 12 25 29

GFSNGP_700_rhum_063.txt.gz
RH
68 75 80 79 80 80 85 78 69 56 48 48 71 75 77 83 84 92 96 91 75 68 46 38 28 22 20 20 16 18 29 44 49 55 54 59 55 57 58 61 65 65 57 50
77 77 78 77 81 83 76 81 75 64 54 80 78 88 87 90 91 94 98 99 92 69 47 41 30 25 26 22 22 24 26 46 56 53 51 55 66 70 60 76 86 100 99 100
78 88 89 84 68 70 70 67 62 66 66 84 85 84 82 86 86 96 98 92 88 77 46 45 41 34 30 27 35 41 31 37 39 43 53 86 88 78 98 98 97 98 99 99
85 82 94 71 73 76 79 75 70 70 84 79 80 79 85 85 93 98 97 95 91 83 49 50 49 51 53 40 57 70 72 76 71 50 81 94 92 92 95 99 99 99 98 98
94 93 69 83 89 88 91 96 96 97 83 79 84 78 88 85 99 99 96 92 83 76 54 60 62 66 70 70 73 85 92 92 96 97 85 98 93 98 98 100 99 99 99 100
93 87 79 97 88 86 91 99 98 97 90 82 76 72 88 92 97 100 80 78 78 57 63 71 66 65 88 86 100 100 99 99 100 99 98 100 99 97 97 97 98 98 97 98
89 84 70 81 82 81 94 98 100 99 90 88 80 80 86 97 100 92 78 74 81 64 89 74 72 78 99 100 97 92 98 94 100 100 99 98 94 95 96 97 97 97 89 60
92 91 78 72 86 92 98 96 94 98 85 83 83 87 97 99 93 83 81 74 80 95 93 78 82 80 92 100 96 98 100 99 99 97 97 93 93 82 52 32 27 25 21 17
84 82 89 92 88 97 93 97 98 87 88 93 88 85 91 95 92 83 79 70 72 91 90 84 81 78 83 90 93 93 90 89 90 92 72 36 27 27 26 20 17 14 10 10
93 90 90 96 96 93 95 99 98 89 91 96 99 97 91 96 88 82 79 77 75 80 82 82 80 80 83 82 82 84 78 54 31 27 28 29 24 20 16 12 10 10 9 7
93 81 85 92 87 96 96 99 100 91 95 92 98 94 94 98 85 80 77 82 80 81 86 86 83 81 83 72 40 28 27 28 30 30 24 21 18 14 11 11 10 9 6 4
76 77 73 71 94 95 98 98 95 95 86 91 87 96 97 80 99 90 82 81 86 82 84 85 81 74 41 28 27 29 31 32 29 24 21 18 14 12 12 10 9 7 5 3
85 100 97 95 84 72 75 79 87 87 83 80 88 82 94 99 99 98 91 84 80 79 76 66 48 31 28 28 30 33 34 31 26 22 18 15 12 12 12 10 9 6 4 3
83 79 84 82 92 94 96 98 89 79 75 80 84 84 81 86 99 99 100 97 88 80 57 38 31 30 28 29 32 35 33 28 24 20 17 14 13 13 12 11 9 6 4 3
83 82 81 78 81 91 97 96 99 98 88 84 78 76 80 80 90 98 100 100 90 89 86 57 32 30 29 30 35 36 32 27 23 19 16 14 13 14 13 12 9 6 4 3
85 90 99 99 98 97 97 99 95 87 82 84 82 85 82 80 84 99 99 99 96 98 98 96 79 31 29 30 35 36 32 27 22 18 16 14 14 15 15 13 9 6 4 3
99 96 94 99 92 94 97 94 97 99 99 100 100 100 94 99 100 100 99 100 99 99 98 95 73 40 31 30 35 37 32 26 22 19 16 16 17 17 16 14 10 6 4 3
96 88 82 80 85 93 93 96 97 97 96 99 99 99 100 99 100 100 99 99 99 99 98 98 95 68 37 31 34 37 32 27 23 20 18 18 18 19 18 15 11 7 4 3
84 84 86 91 76 59 64 77 87 92 91 98 97 98 100 98 99 100 100 99 99 99 98 98 97 79 43 31 34 37 32 28 24 21 20 20 21 21 19 16 11 7 4 4
90 99 100 100 92 82 69 58 59 72 90 94 98 99 100 99 96 99 99 99 99 99 98 98 98 97 75 33 35 38 32 28 25 22 22 23 24 24 21 17 12 7 4 4
100 95 98 99 100 98 82 77 83 91 97 99 96 98 100 100 99 98 98 98 99 98 98 98 97 96 72 61 45 38 32 30 27 25 26 27 28 27 23 18 13 7 5 4
98 96 99 100 100 99 100 100 99 99 99 99 99 99 100 100 100 99 99 98 98 98 98 97 96 95 88 47 35 38 33 31 29 28 30 32 32 30 24 19 13 8 5 5
97 97 99 98 98 98 98 98 98 99 99 99 99 99 100 99 99 99 98 98 98 97 96 95 96 78 39 33 37 39 35 32 30 30 35 37 36 31 26 21 14 8 6 5
96 96 96 96 96 96 98 98 99 99 100 98 98 98 98 98 98 97 97 96 96 94 86 66 47 37 33 33 36 39 37 33 31 32 38 43 41 34 28 21 13 8 6 5
92 89 89 92 91 96 92 73 72 89 98 98 98 97 96 95 96 90 84 77 64 54 46 41 38 35 34 34 34 38 38 33 30 30 36 42 43 40 30 21 12 8 6 6
77 71 68 69 66 64 66 77 76 61 62 76 95 99 100 98 98 97 95 84 78 86 90 68 45 45 47 39 37 37 39 35 32 36 66 74 54 53 43 21 11 7 6 8
64 58 55 52 51 52 53 55 56 57 60 62 63 74 88 91 99 100 100 100 99 98 97 95 83 85 95 93 86 72 81 81 92 82 85 92 78 86 71 16 10 7 6 15

GFSNGP_700_rhum_066.txt.gz
RH
66 68 75 76 73 72 76 71 61 58 47 57 56 60 75 78 79 85 90 98 95 78 61 49 38 32 26 20 17 16 17 17 22 27 36 39 44 46 47 49 55 59 64 69
74 79 80 80 79 80 81 85 71 62 47 51 78 80 83 82 84 87 90 99 93 73 67 47 40 39 31 25 25 25 28 24 25 26 31 33 37 43 48 61 63 67 80 82
83 79 82 75 66 66 68 64 64 66 56 78 88 83 78 81 83 88 96 97 85 81 66 52 44 44 42 36 31 39 41 38 45 58 34 40 48 55 72 82 84 80 86 93
90 79 75 68 68 75 75 71 64 58 64 87 80 81 82 82 82 92 98 99 86 78 69 64 46 50 50 57 49 51 55 58 56 54 42 50 61 74 71 85 84 98 97 98
89 84 70 80 82 82 90 94 76 91 92 86 83 82 76 83 87 97 100 90 76 73 71 55 58 60 65 60 64 67 66 67 60 68 66 66 75 87 94 99 91 95 96 98
94 88 64 83 95 92 95 99 93 84 89 89 82 80 82 87 96 98 92 77 71 69 58 63 64 66 67 66 64 65 74 77 92 81 85 86 81 83 92 94 89 89 94 96
92 88 74 90 84 92 97 98 98 95 87 86 81 81 85 93 98 96 84 77 76 76 61 70 66 77 81 72 87 82 75 75 90 89 90 83 79 77 81 88 88 72 49 32
91 87 80 72 85 92 96 97 95 96 92 84 81 86 86 95 99 89 80 78 72 74 75 72 70 71 71 94 91 89 92 98 98 91 83 77 62 34 28 26 24 19 15 12
88 86 89 79 85 89 94 99 99 93 91 96 87 85 86 90 97 84 74 68 64 78 80 74 71 64 68 82 86 79 84 88 83 76 40 27 29 27 22 18 14 11 10 9
90 82 82 84 81 90 96 98 99 97 92 94 92 97 94 90 93 83 76 72 72 73 72 72 69 68 72 79 77 80 82 63 30 28 30 29 23 19 15 12 11 10 8 6
87 84 93 92 93 90 97 95 99 92 88 92 91 94 95 94 92 84 76 76 74 75 74 75 76 75 77 81 67 37 27 28 31 31 26 22 17 13 11 11 10 9 6 4
87 70 74 79 97 88 98 97 99 92 87 93 84 87 93 94 87 97 87 76 78 77 76 78 80 81 61 34 27 28 31 32 29 25 22 18 14 12 12 12 11 9 6 4
84 87 88 92 100 97 77 81 80 90 90 89 83 85 84 84 91 97 96 90 76 80 77 76 77 49 28 28 29 32 34 32 28 25 21 17 14 13 13 13 12 10 7 4
73 83 91 91 92 86 93 96 92 86 85 82 80 83 84 82 82 92 99 98 90 74 67 52 37 30 28 29 31 35 34 31 27 24 19 16 14 14 15 15 15 12 8 5
74 82 89 82 83 80 81 93 97 98 98 95 86 84 84 79 79 93 99 95 98 90 80 63 36 31 29 30 32 35 35 31 27 23 19 17 15 15 16 17 17 14 10 6
96 91 83 86 81 88 94 88 89 97 93 91 92 86 84 80 80 92 100 100 98 100 97 96 86 55 30 30 31 36 36 32 28 24 21 18 16 17 18 19 18 16 12 8
100 100 100 100 95 93 98 94 93 95 96 99 100 100 97 97 94 92 99 100 100 100 98 98 99 79 38 30 30 34 37 34 29 25 22 19 18 19 20 21 21 18 14 9
100 100 98 96 91 89 90 88 92 96 92 99 98 100 99 99 99 99 100 99 99 99 99 99 98 94 56 34 30 32 37 35 30 26 23 21 20 22 24 25 24 20 16 10
92 89 86 84 85 86 89 77 75 81 91 97 95 96 96 98 98 99 99 100 100 99 99 99 98 98 96 53 32 31 35 37 32 28 25 24 23 25 27 28 26 23 18 12
90 87 85 94 100 100 99 81 64 61 75 87 94 90 97 98 99 100 100 98 100 99 98 98 98 98 97 75 42 50 35 42 40 30 28 26 27 29 31 32 30 26 21 13
94 97 95 98 99 99 99 92 76 67 62 63 81 89 92 98 96 100 94 98 100 99 98 98 98 98 98 93 92 58 57 78 36 31 30 28 30 34 38 38 34 30 24 16
97 98 96 96 99 99 99 99 100 100 99 98 100 100 93 95 95 100 99 100 99 99 99 99 98 98 97 97 96 92 90 42 36 32 31 30 32 38 42 42 39 36 27 17
96 97 97 98 98 98 99 98 98 99 99 99 100 99 99 98 99 99 100 100 100 99 98 97 97 97 97 96 96 87 41 37 37 34 32 30 31 38 44 46 46 42 30 16
96 95 95 96 97 97 97 98 98 98 99 99 99 98 99 99 98 99 98 97 94 96 97 96 96 96 96 96 81 44 36 38 38 35 32 30 30 34 41 48 56 50 34 16
96 93 81 77 80 94 94 97 94 80 84 98 97 97 98 97 97 97 97 97 97 97 97 97 97 96 82 59 45 38 36 36 38 37 34 32 28 30 64 81 69 73 50 14
92 88 77 68 62 58 75 87 70 86 84 84 79 90 96 100 99 98 97 96 94 88 86 89 81 64 56 50 46 41 40 38 39 41 51 67 52 66 84 89 84 86 39 11
64 59 54 48 42 35 34 37 43 48 53 59 66 70 76 88 94 97 99 100 100 99 99 98 97 96 92 70 70 89 91 86 86 88 92 94 96 94 95 90 90 85 23 9

GFSNGP_700_rhum_069.txt.gz
RH
61 63 72 69 69 70 65 67 61 55 51 54 62 65 71 55 65 76 82 82 89 84 83 70 63 44 34 31 25 20 17 15 19 22 24 26 28 27 31 36 38 40 44 48
61 64 65 66 72 73 68 75 77 70 60 65 64 62 72 81 80 80 83 88 94 97 85 70 63 48 41 38 29 25 25 34 32 30 33 41 32 29 33 36 54 62 67 76
84 70 86 84 63 78 74 61 75 80 58 70 67 82 80 80 76 79 83 89 98 97 92 79 70 55 51 44 43 37 38 41 44 44 43 49 33 39 46 53 67 70 75 76
76 84 74 72 68 71 77 74 65 70 78 73 75 81 82 81 79 79 86 96 100 93 84 78 73 62 52 48 53 57 50 50 53 48 39 37 39 52 64 74 68 71 71 73
80 67 65 70 80 78 85 96 60 57 64 84 83 75 75 78 80 90 90 99 95 79 74 73 60 56 58 56 62 64 48 49 48 47 45 48 54 64 70 76 71 72 78 81
94 81 60 95 88 93 100 99 95 95 96 88 77 77 98 86 87 95 98 93 84 71 70 60 61 63 66 63 60 61 54 59 53 56 62 68 65 63 73 74 75 76 77 78
81 77 70 67 89 87 96 100 92 82 80 82 79 80 80 84 88 98 95 85 78 72 64 63 64 71 79 72 73 74 55 66 68 75 75 70 66 68 72 68 62 39 23 17
85 78 73 64 82 88 100 93 96 88 91 86 81 81 88 86 92 98 86 76 71 68 77 72 74 69 68 79 84 76 77 76 84 80 76 71 48 31 28 25 18 14 12 11
79 81 77 70 99 83 84 95 98 96 93 94 92 86 87 87 92 94 80 71 64 74 82 76 70 65 64 76 85 80 78 83 78 76 47 28 30 27 21 15 13 12 11 9
85 83 81 86 86 82 82 82 96 98 97 87 89 96 94 90 90 90 78 75 74 74 73 69 67 66 70 75 73 74 77 78 50 28 29 30 26 21 15 13 12 12 10 8
94 80 83 83 83 79 84 91 91 93 94 88 88 91 92 94 94 91 83 76 75 72 70 71 70 68 67 71 74 67 46 29 28 31 30 27 22 16 13 13 13 12 10 8
82 86 90 98 78 81 86 93 98 96 97 96 91 86 89 94 99 95 94 82 76 75 75 75 73 73 69 60 42 29 28 30 32 29 27 24 18 14 13 14 14 14 13 11
73 59 72 79 75 78 74 71 71 92 93 93 88 89 85 86 86 95 94 89 77 79 74 76 76 76 52 31 28 28 31 33 31 28 25 22 18 15 15 15 16 16 15 13
70 70 73 79 84 81 84 85 88 86 79 84 86 86 82 82 82 89 92 100 97 77 75 74 74 66 37 28 28 30 34 33 31 28 25 22 19 17 16 16 17 19 19 18
73 76 74 74 72 78 78 74 75 80 89 93 94 93 88 86 88 85 89 100 100 94 86 67 50 39 31 29 29 31 34 34 32 29 26 23 21 19 18 19 20 22 23 22
94 96 91 86 82 78 74 75 72 84 96 100 97 96 98 92 86 85 80 95 100 99 99 97 81 46 33 30 29 31 34 35 34 31 28 25 23 22 21 22 23 26 26 26
98 92 100 100 99 95 90 88 88 94 99 94 98 100 100 100 90 99 100 100 99 99 100 100 98 91 84 60 32 30 32 35 36 33 31 28 26 24 23 24 26 29 31 30
100 100 100 100 99 93 92 90 88 86 91 97 97 92 98 98 100 100 99 100 100 100 100 99 99 98 96 83 42 31 31 34 36 35 32 29 27 26 25 27 30 34 36 35
99 96 96 97 95 91 88 86 86 83 80 84 94 95 97 97 97 98 99 99 100 99 99 99 99 98 98 97 76 38 31 32 35 36 34 31 29 28 28 30 34 39 41 40
90 87 87 86 82 80 91 100 100 95 78 67 76 87 95 98 99 99 98 98 100 99 98 99 99 98 98 98 98 93 37 38 35 37 40 40 31 30 30 32 38 43 47 46
88 93 92 93 94 97 98 98 100 99 86 67 66 79 89 94 93 89 89 98 100 99 99 99 99 98 98 98 98 98 95 93 74 44 73 41 30 30 31 33 38 44 49 50
94 92 95 96 95 96 96 97 98 99 99 88 70 66 68 74 86 89 96 92 88 99 99 99 99 99 98 97 97 98 96 96 85 89 70 35 32 31 32 33 35 44 50 57
97 97 97 97 97 98 98 96 99 99 97 100 100 99 98 99 99 99 97 98 99 99 99 99 99 98 97 97 97 97 96 97 96 86 40 36 34 32 32 32 32 37 48 70
95 95 95 90 93 94 97 97 97 98 99 98 98 98 97 98 99 99 97 97 98 99 100 99 98 97 96 97 96 96 96 96 95 69 38 38 37 34 32 30 30 34 52 84
93 91 91 90 82 72 64 82 96 96 94 97 98 98 98 98 98 98 98 98 97 97 97 97 96 96 95 97 97 97 97 96 91 53 37 38 38 37 38 56 49 54 87 89
85 80 76 72 68 62 53 44 40 70 92 76 86 95 96 97 97 98 98 97 97 96 95 95 96 96 97 97 96 96 93 83 62 46 44 48 50 52 56 76 92 92 90 89
70 63 54 46 39 33 29 22 12 13 25 42 46 53 63 69 79 91 97 97 96 98 98 97 96 96 96 96 95 96 92 85 79 85 91 93 94 95 96 96 90 92 92 89

GFSNGP_700_rhum_072.txt.gz
RH
68 58 61 57 65 77 68 62 59 53 52 53 68 64 62 68 54 49 60 75 78 79 73 70 69 63 60 43 32 31 25 19 15 14 17 22 26 32 32 23 20 23 33 52
52 49 55 54 64 70 76 63 58 63 57 56 56 65 67 62 51 76 79 80 82 90 90 83 77 68 60 42 39 36 26 24 29 32 29 32 42 38 30 30 33 38 52 55
83 66 71 76 55 57 63 55 52 57 54 63 65 65 63 65 82 82 79 78 85 93 98 84 78 64 66 50 46 43 42 36 38 38 39 43 47 33 36 45 48 56 57 55
83 75 88 70 64 66 71 71 62 63 74 74 77 67 65 85 81 79 79 81 89 98 100 87 82 68 72 62 49 46 50 50 48 49 42 38 34 34 44 54 61 63 60 58
79 70 66 65 69 73 71 76 64 62 73 77 71 75 81 78 80 79 89 92 98 98 91 78 75 69 60 56 55 61 55 49 51 46 42 42 43 49 55 60 68 64 60 63
82 83 74 89 81 80 95 99 70 62 72 66 81 83 77 85 88 88 93 99 96 86 77 68 74 65 62 63 63 57 53 52 51 49 52 60 57 55 61 64 64 62 56 28
80 82 72 67 85 94 97 97 100 91 87 92 85 80 81 82 82 90 98 98 86 80 73 73 66 68 64 67 73 68 51 57 61 67 66 62 60 62 58 45 28 21 15 13
83 80 79 68 92 89 95 94 98 94 90 87 84 80 82 86 88 91 96 92 78 72 78 80 69 68 76 79 78 76 61 63 72 73 68 64 44 30 28 24 16 14 14 12
74 78 73 76 99 86 92 93 96 98 95 92 88 82 90 92 89 92 95 84 76 70 75 73 76 77 72 80 86 83 73 74 72 72 54 28 30 27 22 16 14 15 14 12
79 77 76 78 80 83 85 82 82 94 98 98 89 90 94 96 92 94 90 79 76 74 75 73 69 66 70 77 82 77 75 72 68 37 28 30 27 23 18 15 15 16 15 13
76 90 88 82 84 74 78 78 83 91 95 96 92 86 88 91 99 94 92 80 76 74 71 69 66 66 68 67 68 70 69 48 29 29 31 28 26 21 18 16 16 16 16 16
90 87 92 90 89 86 84 80 85 87 95 94 98 88 89 89 97 99 98 93 77 76 75 73 70 70 70 66 65 54 34 28 30 31 30 28 24 21 17 16 16 17 18 19
73 86 82 83 74 70 71 73 72 76 67 79 88 92 85 88 86 96 95 95 88 78 75 77 75 75 70 48 35 29 28 30 32 31 29 27 24 21 18 17 17 19 20 23
64 63 69 70 72 75 73 70 80 84 80 72 74 91 85 87 85 85 89 91 99 97 76 76 76 75 71 42 29 28 30 32 33 31 30 28 26 22 20 19 19 20 23 25
63 76 74 71 68 63 61 63 71 73 74 79 88 88 85 87 89 88 86 85 94 99 100 81 68 66 61 44 30 29 30 33 34 33 32 30 28 25 23 22 22 23 26 30
84 84 91 83 80 79 77 72 69 70 72 75 79 84 92 95 98 98 95 90 93 100 100 99 94 67 48 37 31 30 30 32 35 34 33 32 30 27 26 24 24 26 29 34
87 88 88 97 100 100 86 80 77 79 78 75 80 96 100 100 100 100 100 100 100 100 99 100 100 99 93 54 36 32 30 31 33 35 34 33 32 30 28 26 26 28 32 38
90 93 100 100 100 100 97 91 86 85 84 84 86 96 96 95 98 100 100 100 100 100 100 100 100 99 98 99 91 84 50 32 32 34 36 34 33 32 30 28 28 30 34 41
100 100 100 97 95 96 93 91 91 87 84 83 83 82 89 96 100 97 97 98 100 97 100 99 99 99 99 99 98 97 94 48 33 32 35 36 35 33 32 30 29 32 36 43
95 93 90 90 88 86 84 83 84 92 100 100 95 82 75 81 98 99 98 100 95 97 99 98 99 100 99 99 99 98 98 97 68 35 40 47 36 38 40 30 30 31 35 40
88 90 93 90 92 93 96 99 97 96 99 100 99 86 69 72 82 91 96 98 100 98 93 98 96 95 98 98 98 99 98 98 97 63 59 91 56 55 50 31 30 31 32 35
96 96 97 95 96 97 97 96 96 97 94 98 100 95 77 72 79 87 92 96 97 94 96 99 98 98 98 98 98 98 97 97 98 95 96 96 80 86 47 32 31 30 30 31
97 96 96 95 95 96 96 98 99 97 95 98 97 100 100 99 82 74 80 84 94 94 97 97 94 98 98 97 98 98 97 97 97 96 96 96 96 80 38 35 33 32 31 32
96 95 93 91 92 90 91 92 95 98 99 100 100 100 99 99 99 98 99 98 96 95 97 100 99 99 98 98 98 97 97 96 96 96 96 96 96 70 44 38 37 34 34 49
94 91 88 83 76 70 67 61 54 58 84 96 96 97 97 97 97 97 97 97 98 98 98 98 98 97 97 97 97 97 96 96 96 96 96 97 97 95 63 41 40 40 44 67
88 83 76 69 62 54 47 42 39 34 27 26 71 96 95 96 97 98 97 97 97 97 97 97 95 94 94 93 94 96 96 97 96 96 96 96 95 84 57 61 72 77 85 94
90 81 73 65 47 25 13 10 9 8 7 5 9 23 56 80 66 79 86 94 97 98 97 95 96 96 97 96 94 93 94 96 96 96 96 95 95 95 95 96 97 96 96 95

GFSNGP_700_rhum_075.txt.gz
RH
72 61 58 60 68 74 75 66 54 52 54 48 56 64 71 66 62 58 52 49 52 63 71 72 71 66 65 57 53 45 31 30 26 20 15 12 13 20 26 31 28 20 28 31
53 53 52 50 54 63 71 71 60 56 54 51 55 69 67 63 55 53 51 72 75 79 84 87 86 78 75 65 56 40 36 34 26 21 26 30 26 29 38 31 29 36 44 49
80 72 68 72 51 51 52 47 55 60 55 53 66 69 64 63 58 58 79 79 80 81 85 92 86 84 76 68 63 48 43 40 36 32 35 35 35 38 34 34 48 51 54 55
80 76 91 66 60 60 59 55 57 56 56 63 64 65 63 60 62 82 84 84 84 90 95 99 95 88 79 70 69 58 48 46 48 45 44 44 38 34 34 44 56 61 61 58
74 81 68 64 65 66 65 63 57 57 61 75 67 64 63 68 83 82 84 87 94 97 100 97 94 89 73 72 74 62 52 52 54 49 46 41 38 40 48 56 66 64 61 59
82 83 85 83 73 76 87 96 82 66 66 81 74 73 70 85 84 94 90 91 98 100 97 87 82 76 70 66 60 58 60 52 52 49 48 50 54 57 59 63 62 63 32 15
82 86 76 71 71 92 96 85 76 66 68 66 70 86 87 85 86 86 86 98 99 97 89 82 76 70 65 65 70 66 58 49 55 54 61 61 60 61 59 52 28 18 14 13
81 77 80 70 89 98 90 97 98 91 83 90 90 88 84 83 81 86 89 95 97 85 78 76 76 72 74 82 83 74 63 61 66 69 65 63 52 32 28 23 15 14 14 14
76 73 70 76 71 90 95 93 96 99 96 97 95 93 88 89 88 90 92 99 90 81 74 84 84 78 77 84 80 77 67 67 74 69 64 32 29 28 22 16 14 15 15 15
83 79 79 79 76 85 92 89 86 83 97 98 96 96 92 93 91 92 96 97 82 79 76 77 77 76 76 72 79 79 75 77 73 67 29 30 28 24 18 15 15 16 17 18
83 84 92 87 84 82 85 83 79 82 89 94 98 98 94 92 91 97 93 98 84 80 76 73 71 69 70 72 73 77 78 76 60 29 30 29 25 21 17 16 16 17 18 19
88 90 87 90 92 88 88 89 88 86 86 96 98 96 96 93 90 94 92 99 97 79 77 74 71 68 67 68 69 72 72 49 29 30 31 27 25 22 19 17 17 17 18 20
78 87 89 92 91 90 85 74 78 77 79 88 79 82 94 97 90 90 96 97 95 83 80 80 76 73 69 67 64 51 37 29 30 32 29 27 26 23 20 18 18 18 20 23
69 69 74 78 80 73 73 74 76 74 84 84 81 76 81 95 91 89 90 90 92 99 94 81 80 78 76 64 46 33 29 29 32 33 31 29 27 25 22 21 20 21 22 25
66 72 76 77 74 69 64 63 63 65 69 80 80 78 88 96 97 93 90 89 85 88 92 97 81 82 81 77 51 31 29 30 32 34 32 31 29 27 25 24 22 22 23 27
70 73 80 79 75 70 73 73 75 76 70 67 73 78 77 82 96 100 100 100 92 97 100 96 99 86 65 62 58 36 30 30 31 34 34 32 31 29 28 26 24 23 25 28
86 90 90 90 92 91 100 100 90 84 83 80 80 82 82 89 98 100 100 100 100 100 100 99 99 99 97 96 60 40 33 31 30 32 34 34 33 31 30 27 26 25 27 30
97 100 100 100 100 100 100 99 91 80 84 87 87 85 86 79 93 98 100 99 100 100 100 100 100 100 100 98 97 97 69 41 35 32 32 34 35 34 31 29 27 27 28 30
92 98 100 100 99 98 96 88 89 86 84 88 90 88 88 89 90 95 95 95 94 96 98 99 100 100 90 97 100 99 100 98 97 85 42 33 34 35 33 31 29 28 28 30
99 98 94 92 92 88 86 86 84 83 85 85 91 100 100 97 85 83 89 94 98 91 97 95 89 93 100 99 89 95 100 99 98 98 96 58 40 35 71 53 30 32 30 29
94 93 92 92 93 95 94 98 99 96 94 96 98 100 100 100 89 79 77 84 98 98 95 94 90 91 100 91 98 98 98 98 97 97 97 97 94 52 83 94 61 61 56 28
97 96 97 97 97 98 97 96 97 98 98 96 95 99 99 100 90 76 75 81 92 95 93 94 97 98 97 99 99 100 98 98 98 97 97 97 96 96 96 96 95 94 59 29
96 96 96 95 93 94 94 95 96 96 96 97 99 98 100 100 100 97 80 80 89 93 95 96 96 96 94 97 97 94 98 98 98 97 97 96 96 97 96 96 96 95 40 34
97 98 96 92 86 80 73 68 62 57 69 94 98 98 98 98 100 100 100 99 98 96 93 99 99 99 99 100 100 100 98 98 97 97 96 96 96 96 96 96 96 89 55 71
85 86 86 83 77 70 64 56 47 44 42 36 34 77 97 97 96 97 97 97 97 98 99 98 98 98 97 98 98 98 98 97 97 96 96 96 96 96 96 96 96 95 95 83
89 90 92 88 79 69 62 50 31 17 13 16 18 16 21 76 97 96 97 97 97 97 97 97 97 97 97 97 97 96 96 96 96 96 96 96 96 96 96 96 96 96 95 93
97 94 93 86 73 61 47 21 7 5 5 5 5 4 4 7 20 73 94 90 95 96 97 97 97 97 97 97 97 95 92 93 95 96 97 96 96 96 97 96 96 95 97 96

GFSNGP_700_rhum_078.txt.gz
RH
72 76 76 75 75 90 96 82 67 59 48 38 46 40 48 54 57 59 64 63 56 52 52 52 55 55 51 51 53 53 51 49 40 29 27 24 17 13 12 13 19 26 30 21
56 54 51 52 64 80 82 85 80 61 51 47 45 58 66 66 68 67 62 58 54 64 75 77 78 77 74 69 69 63 59 45 33 32 27 21 17 22 24 27 33 30 27 36
57 69 69 63 35 44 55 69 71 70 56 49 45 56 70 66 62 59 56 55 74 79 80 84 87 89 81 78 74 67 62 44 40 36 30 31 33 32 32 38 32 32 44 46
82 81 95 54 59 57 55 48 55 63 62 55 49 57 70 68 62 60 56 77 82 83 87 91 97 97 93 89 78 71 69 55 46 46 45 42 42 43 42 38 35 45 54 59
76 80 56 48 55 59 58 55 52 54 62 62 60 63 63 62 60 61 80 85 85 89 95 100 100 100 96 92 74 73 75 64 54 54 56 52 52 45 38 38 50 61 63 58
88 82 85 86 75 76 74 71 64 58 64 62 63 67 62 64 65 82 85 92 94 97 99 100 99 88 86 82 73 76 75 65 60 59 57 54 45 40 50 61 67 63 59 28
88 84 69 67 70 85 92 80 82 69 72 70 67 67 70 71 84 85 95 93 92 95 100 99 90 81 78 79 80 70 63 64 58 56 58 56 56 62 66 67 64 33 15 14
82 77 74 70 78 91 89 87 93 67 69 66 68 76 94 90 86 88 84 86 92 96 96 86 81 79 78 75 78 76 75 68 64 66 69 67 65 68 65 40 22 15 14 15
76 72 72 77 74 87 96 94 100 100 100 100 100 100 98 92 86 87 92 89 94 98 85 80 81 87 88 87 87 90 82 75 75 76 72 69 63 34 27 19 15 14 15 16
85 78 78 80 80 83 95 93 89 90 92 99 99 98 97 94 94 91 92 93 98 89 81 79 81 84 88 88 94 94 82 78 81 77 74 46 29 27 21 16 15 15 16 17
83 80 80 84 83 88 94 94 89 83 86 91 96 98 98 95 94 97 98 93 99 95 83 79 77 79 80 81 87 93 88 81 84 78 42 30 28 24 20 16 16 16 17 18
88 85 80 81 91 90 90 92 93 92 90 90 97 97 96 95 97 95 98 99 96 100 84 78 75 72 73 75 76 80 85 84 81 59 29 30 27 24 19 17 16 16 17 19
68 77 86 88 85 89 88 80 77 70 76 78 84 91 91 93 92 95 97 98 98 99 89 82 78 74 72 71 72 75 80 78 58 30 31 30 27 24 21 19 18 18 19 20
78 78 77 81 86 87 83 74 68 66 65 67 70 75 76 76 79 95 98 94 94 96 96 95 82 80 77 73 70 69 61 47 32 30 32 30 28 26 24 22 21 21 21 22
75 78 79 79 77 72 70 71 69 66 63 62 61 68 77 80 94 95 98 96 92 91 91 94 97 82 82 82 75 59 45 34 30 31 33 31 30 28 27 25 24 24 23 24
75 73 74 74 71 72 73 71 69 71 76 74 72 66 64 70 76 84 96 99 100 99 99 98 99 99 91 82 85 80 51 34 30 30 33 33 32 31 30 27 26 25 24 25
76 85 90 92 89 87 87 92 100 99 83 84 84 82 76 74 73 81 95 100 100 100 100 100 100 100 100 99 76 62 68 48 32 30 31 33 34 33 31 30 28 26 25 25
83 99 100 100 100 100 100 100 100 96 86 77 75 77 82 86 86 83 92 100 100 100 100 100 100 100 100 100 100 98 96 64 44 35 32 32 32 34 34 33 31 29 28 27
85 92 97 100 100 99 99 95 90 85 82 82 82 77 84 88 88 90 89 80 91 89 99 98 99 100 100 100 100 100 100 99 99 98 95 83 75 44 34 34 34 31 30 28
98 96 97 96 94 93 89 89 90 88 82 78 82 86 91 96 94 98 98 90 89 94 97 100 100 97 100 100 100 94 92 97 99 99 99 97 97 97 81 44 36 33 61 84
96 96 92 90 90 92 96 98 99 96 95 92 91 90 93 100 99 100 100 97 96 87 92 94 96 84 97 94 94 97 99 99 98 97 97 98 97 97 97 96 89 67 86 95
97 97 96 96 97 98 99 99 98 97 97 97 97 96 95 97 98 100 100 96 79 77 82 89 92 98 94 97 98 96 100 100 99 99 99 98 97 97 97 96 96 96 96 96
96 97 96 96 95 93 84 78 85 85 87 91 96 96 97 98 99 100 100 100 94 83 83 89 94 97 97 96 97 98 98 96 97 98 98 98 97 96 96 96 96 96 96 96
94 93 92 90 87 81 75 69 63 57 50 46 42 42 77 96 98 100 100 100 100 100 95 92 92 94 98 96 95 98 99 98 98 98 98 97 96 96 96 96 96 96 96 95
80 82 82 85 85 83 78 71 64 56 44 30 20 22 26 24 65 96 98 97 97 97 98 97 98 98 98 98 98 97 97 97 98 98 98 97 96 96 96 96 96 96 95 95
97 96 91 90 92 89 83 74 60 47 28 12 6 5 6 8 9 13 71 98 97 96 97 97 97 97 97 97 97 97 97 97 97 97 96 96 96 96 96 95 95 95 95 96
97 97 92 86 86 88 80 62 46 27 11 6 6 6 5 5 4 4 5 11 53 89 96 96 97 97 97 97 97 97 97 97 96 96 96 96 95 94 93 94 95 95 94 97

GFSNGP_700_rhum_081.txt.gz
RH
70 72 74 74 66 84 93 88 89 78 70 56 54 45 45 43 60 73 71 62 52 50 59 60 58 55 52 51 47 42 40 40 43 45 44 43 32 27 23 18 16 16 16 18
73 72 78 80 83 86 85 87 87 77 68 61 48 51 50 49 67 70 60 58 64 59 56 57 66 71 72 69 69 67 61 60 56 53 45 32 30 26 19 15 16 22 29 33
56 62 64 59 44 56 62 69 84 92 63 66 51 57 51 54 60 62 64 65 60 56 68 80 81 83 82 82 80 79 76 71 64 53 39 36 31 26 28 30 28 34 37 34
75 81 81 42 56 51 43 41 62 73 70 72 60 51 57 66 66 65 65 63 58 69 83 85 86 88 91 90 89 92 89 78 68 59 46 44 39 36 37 37 41 42 40 51
77 82 56 42 56 63 60 54 61 52 52 67 69 56 57 70 74 66 62 62 67 82 84 87 92 95 93 100 97 91 84 77 71 68 51 50 51 49 48 50 45 41 53 60
90 82 81 80 81 81 80 70 62 54 52 61 68 58 53 66 68 63 62 64 85 87 91 95 95 96 100 98 90 90 83 80 73 72 59 56 58 55 52 42 47 58 64 61
93 86 64 62 71 76 82 82 88 78 62 62 62 66 65 64 66 66 64 88 93 94 94 92 97 100 98 91 86 87 87 78 70 67 62 58 55 50 49 57 70 66 63 41
88 83 78 62 77 79 91 94 94 66 80 70 69 69 71 72 76 90 93 95 93 89 91 96 99 93 89 93 90 92 85 72 64 65 61 62 59 61 69 71 68 53 18 14
70 70 73 80 80 83 95 99 99 99 80 78 78 82 85 97 97 94 97 94 94 92 96 98 90 87 90 99 92 90 89 82 73 66 67 67 71 73 72 64 35 16 14 14
83 77 79 78 77 80 94 98 99 92 96 99 98 95 97 99 98 95 93 90 93 94 99 91 86 84 88 96 98 97 94 90 77 77 76 75 73 65 41 25 17 14 15 16
80 80 82 79 84 83 95 98 96 88 86 87 90 96 98 98 97 95 97 97 98 94 99 92 84 81 81 84 90 94 95 92 82 83 80 79 57 30 26 20 16 15 15 16
78 82 90 85 86 87 93 93 92 92 90 92 94 96 98 98 97 99 99 97 95 99 92 95 84 79 77 79 81 86 96 85 85 86 81 57 30 28 24 20 16 15 16 17
79 75 74 84 93 93 92 90 84 75 72 70 73 76 85 93 93 91 94 98 96 96 98 97 85 82 76 74 74 75 79 84 86 84 79 31 30 28 25 21 18 16 17 18
85 80 76 80 81 90 93 88 79 70 66 63 64 63 63 74 73 71 72 88 96 98 97 98 97 87 82 76 73 74 76 79 84 84 59 30 31 28 26 23 21 19 19 20
72 79 83 83 79 77 76 73 72 72 69 64 62 63 62 62 80 83 82 86 99 98 100 98 96 98 92 83 79 68 73 77 77 63 36 30 32 29 27 26 23 22 22 22
78 79 76 75 75 75 73 73 74 75 77 74 71 74 72 66 62 70 80 80 90 99 98 100 100 96 97 96 88 84 67 58 56 46 33 31 32 31 29 28 27 26 26 25
76 82 79 86 91 91 88 87 86 91 96 92 78 67 75 79 73 70 70 74 81 89 99 99 99 99 99 98 99 93 91 86 61 42 33 30 31 33 33 31 30 29 28 28
91 87 91 100 100 100 100 100 100 100 100 98 86 75 76 74 74 77 79 79 82 97 100 100 100 99 100 100 100 100 98 92 76 67 53 35 31 31 32 34 34 32 31 30
96 92 94 93 98 99 100 100 100 96 88 84 80 77 79 80 72 75 83 85 85 85 98 100 100 98 95 97 100 99 99 99 99 98 94 77 64 54 48 46 47 36 34 33
100 100 96 94 96 94 90 87 89 88 86 83 80 76 78 85 86 91 96 92 92 93 91 99 100 100 100 92 92 100 100 99 97 97 98 99 98 98 98 97 97 96 94 78
100 98 96 93 91 90 92 91 92 93 93 93 93 92 90 90 98 100 100 100 99 100 100 100 94 95 98 100 99 96 100 99 100 98 98 97 97 99 98 98 98 98 97 96
97 97 97 97 98 98 93 87 88 91 88 84 88 91 95 95 97 96 95 96 96 100 100 94 84 89 92 92 97 97 88 95 94 95 95 95 98 99 98 98 97 97 96 96
96 97 97 96 95 94 94 91 75 67 61 56 50 48 50 54 88 96 97 95 96 98 100 100 88 86 89 93 93 98 98 97 98 97 98 99 98 98 99 98 98 96 96 96
85 82 82 77 76 76 77 75 72 70 65 59 52 42 30 25 32 34 74 96 96 100 100 100 97 93 95 96 94 96 98 98 98 98 98 98 99 98 98 98 97 96 96 96
89 80 91 90 83 77 75 76 75 72 67 59 49 39 23 9 8 10 14 17 64 96 98 97 97 97 97 97 97 98 97 97 97 97 97 97 97 98 98 98 97 96 96 96
64 63 76 83 88 82 72 68 70 71 59 43 34 21 12 6 5 5 5 5 6 15 86 97 97 96 97 97 97 97 97 97 97 96 97 97 97 97 97 97 96 96 96 96
44 49 52 52 49 55 50 47 58 50 30 23 11 8 7 7 6 6 6 5 5 4 6 13 61 94 96 96 96 97 97 97 97 97 97 97 96 96 96 96 96 96 95 96

GFSNGP_700_rhum_084.txt.gz
RH
78 69 70 66 55 59 77 73 74 66 70 48 50 55 53 44 45 59 65 63 64 60 56 54 53 55 58 60 57 52 47 42 38 34 31 33 36 41 43 39 31 26 22 20
87 81 79 84 81 79 76 65 78 75 76 67 68 60 48 51 47 60 73 76 71 63 58 67 69 66 62 63 59 61 58 52 45 42 44 47 51 48 37 29 26 20 16 16
69 69 69 58 52 63 66 66 65 84 39 61 66 62 56 55 46 58 71 66 66 73 67 65 67 68 74 75 79 76 74 70 67 63 64 61 50 38 34 29 23 20 24 30
71 77 76 44 45 49 47 48 56 52 46 56 68 74 65 58 56 62 68 72 69 64 61 67 79 83 83 84 86 88 84 88 84 78 73 66 50 42 37 34 33 31 33 40
75 83 56 43 45 60 66 54 53 43 35 40 59 74 68 60 65 65 68 69 68 65 61 74 85 86 86 90 93 88 98 92 84 79 76 71 59 51 50 45 43 44 45 41
88 79 74 66 83 80 80 68 72 62 55 58 58 65 62 58 60 70 72 67 65 64 82 88 89 93 94 89 97 100 97 89 84 82 79 74 68 56 57 55 52 50 45 55
87 86 69 61 61 72 79 82 86 82 64 57 56 65 66 60 68 76 78 68 67 85 93 98 95 96 92 97 100 98 91 89 90 87 80 79 72 63 66 60 52 52 64 70
84 85 82 68 74 77 92 96 97 83 66 73 75 76 73 72 72 72 69 70 82 92 92 90 92 93 96 98 95 100 100 100 100 91 75 73 70 65 64 58 61 74 73 65
72 70 69 83 84 83 90 90 96 96 79 88 83 81 80 78 75 78 95 96 97 92 94 92 92 92 95 93 95 100 100 100 100 92 81 75 71 70 70 74 80 76 56 19
82 79 82 81 81 79 85 93 97 93 95 91 82 84 85 100 94 95 98 93 86 90 90 92 96 95 90 85 95 100 100 100 100 97 83 80 76 75 79 81 78 44 17 13
83 78 84 86 83 88 93 100 98 94 87 88 89 94 98 98 99 99 95 94 96 95 97 90 97 92 87 84 86 95 99 100 100 96 90 86 85 87 84 71 39 18 14 14
82 80 80 90 88 93 93 95 92 91 92 84 88 95 98 96 96 96 97 99 99 97 92 97 94 94 86 84 84 89 100 99 100 95 95 90 86 82 51 29 21 16 14 14
88 85 76 74 85 97 99 99 98 91 80 70 66 69 73 74 78 92 94 90 93 95 96 100 99 98 90 84 81 82 84 95 100 94 93 87 84 49 29 25 21 17 15 15
84 86 86 82 81 84 94 96 94 88 77 73 69 63 60 60 62 67 76 76 77 80 99 99 99 98 98 89 83 78 77 77 85 86 91 87 67 31 30 27 23 20 18 18
72 77 89 93 88 85 82 81 81 79 74 71 69 66 62 62 64 66 72 85 77 92 97 100 100 99 94 98 95 86 75 79 83 87 88 86 69 31 31 29 26 24 22 20
80 77 83 84 82 79 80 81 80 79 79 78 80 76 66 65 68 70 66 65 74 78 89 98 100 100 94 97 99 97 90 76 80 82 82 78 56 31 31 31 28 27 26 23
69 95 80 83 84 77 84 89 92 93 92 98 99 97 91 71 65 67 72 68 64 68 75 80 96 99 100 98 99 98 98 97 88 71 63 60 50 34 31 33 32 30 29 28
93 91 90 88 81 85 98 96 94 100 100 99 96 90 79 75 72 71 68 72 75 77 80 96 100 100 90 96 99 94 95 98 98 97 92 77 55 41 32 31 32 33 34 33
87 96 100 100 100 100 100 100 98 90 86 85 83 79 74 70 69 73 75 74 78 84 94 94 100 100 100 99 94 94 100 93 96 98 98 98 90 77 57 40 36 37 37 39
100 100 100 100 100 100 95 93 93 93 92 91 91 89 87 81 77 77 85 89 90 93 91 93 96 100 100 100 100 100 98 95 99 94 94 99 97 95 98 98 92 86 88 93
97 97 97 97 95 94 96 96 95 96 96 89 79 79 83 92 95 95 99 100 100 99 97 98 99 100 100 100 100 98 97 99 96 96 96 97 98 98 98 98 97 97 97 98
96 96 97 97 97 97 98 97 92 80 70 65 60 54 49 49 52 71 90 96 96 96 97 97 100 100 100 100 94 95 92 98 100 99 99 99 98 99 98 97 97 97 97 97
96 96 96 96 95 93 87 82 83 79 75 70 65 60 55 49 41 28 29 36 66 93 96 98 98 100 100 97 91 89 92 94 95 98 99 98 98 98 100 97 98 98 97 96
94 93 89 86 84 80 77 74 68 63 63 64 64 62 58 48 38 30 16 11 14 21 39 91 97 97 98 98 97 96 100 100 99 99 98 98 98 98 97 98 98 98 97 97
89 82 75 75 77 70 78 78 68 52 50 45 48 46 35 31 24 14 8 6 5 6 7 11 34 93 96 96 97 97 97 97 97 97 96 96 96 96 97 97 97 97 97 97
69 60 49 40 40 40 39 42 43 43 36 46 44 28 22 14 10 8 7 6 6 5 5 5 6 7 66 96 96 97 97 96 96 97 97 97 97 97 97 97 97 97 97 97
50 49 42 33 34 44 47 41 38 40 40 23 16 16 11 8 8 8 8 8 7 6 6 5 5 5 5 7 38 94 96 96 96 96 96 96 97 97 96 96 96 96 96 96

GFSNGP_700_rhum_087.txt.gz
RH
73 70 70 65 62 71 79 74 76 65 57 39 44 51 46 38 44 42 45 52 58 62 62 60 58 58 60 60 62 59 56 56 51 46 42 39 37 32 30 30 33 37 38 37
86 80 74 74 71 70 68 71 82 76 56 42 57 62 61 50 51 50 51 62 69 70 66 60 63 65 69 75 71 69 62 55 50 47 43 40 33 31 36 41 44 42 32 27
85 80 74 56 52 56 58 61 63 70 44 56 62 67 65 56 54 49 55 75 82 79 70 69 73 74 71 67 65 70 73 72 71 70 62 56 53 50 52 50 42 34 30 23
67 69 74 47 46 46 45 45 49 50 49 48 51 66 70 66 56 53 58 75 74 74 78 69 64 65 70 77 82 83 84 85 83 78 77 70 67 64 59 48 38 34 29 29
75 76 56 51 51 52 62 57 58 52 52 42 39 42 59 69 59 59 60 72 76 75 71 65 62 72 84 88 88 92 94 92 86 88 80 75 72 69 66 52 46 42 38 35
84 77 68 62 77 76 76 78 84 82 69 54 55 41 40 57 62 63 62 67 68 68 68 66 76 92 92 93 96 92 96 100 100 94 82 74 76 75 72 61 57 54 50 49
84 81 71 70 64 70 76 82 92 85 76 66 56 55 52 58 60 64 72 72 73 70 70 75 89 97 99 98 96 93 98 100 95 87 87 82 79 82 79 69 65 61 57 54
84 79 77 76 70 74 90 90 92 95 73 76 66 66 69 70 67 72 77 78 74 68 68 94 100 98 93 97 92 95 96 97 100 98 96 93 88 84 82 74 74 67 61 66
72 71 71 83 85 86 84 83 81 84 88 84 81 78 82 81 78 75 72 70 70 84 96 99 95 93 98 95 90 94 92 100 100 100 100 98 89 81 80 78 76 72 77 80
82 82 86 88 86 86 83 86 88 92 92 96 91 88 81 84 81 76 80 96 99 98 84 88 90 92 98 97 93 90 90 100 100 100 100 100 94 86 84 80 81 86 86 72
88 84 79 87 85 82 92 95 91 94 95 93 93 96 98 97 99 99 100 99 92 93 95 93 91 94 96 97 90 88 91 98 100 100 100 100 97 92 92 90 89 88 71 27
86 82 80 78 95 93 98 98 99 98 98 95 83 83 94 93 89 89 90 96 97 96 96 94 94 97 98 97 90 87 87 97 100 100 100 100 96 90 91 90 90 71 27 14
88 91 91 85 82 95 98 98 98 99 98 89 84 74 75 77 74 72 71 78 85 89 89 89 96 99 97 98 97 89 84 86 91 100 100 100 98 95 93 90 63 30 16 13
84 79 80 91 89 88 96 97 98 98 96 84 74 70 66 64 60 60 62 63 73 79 81 82 93 100 99 96 98 96 88 82 82 92 100 97 96 93 91 54 30 23 18 16
75 68 73 84 95 94 92 90 89 89 87 84 76 74 71 68 65 63 60 62 65 78 82 90 97 100 99 96 97 98 97 94 82 83 87 91 92 89 76 35 29 26 23 20
73 85 82 83 89 90 88 87 89 91 89 85 82 83 87 75 63 56 61 60 68 69 73 79 85 94 100 99 96 96 98 98 96 83 86 90 92 88 77 34 31 30 27 24
75 67 83 91 88 88 91 88 84 86 91 85 85 89 90 89 72 63 63 58 59 69 73 70 76 79 88 96 100 100 96 97 98 98 88 88 93 91 91 57 32 32 31 28
100 100 100 98 90 84 89 86 91 94 93 93 92 86 78 75 71 69 68 70 69 68 73 77 78 86 95 100 94 91 97 100 93 96 98 97 89 84 81 70 50 33 32 33
83 83 82 76 76 99 100 97 94 93 91 92 92 89 85 81 77 71 68 69 73 79 79 82 92 100 100 100 100 100 97 88 93 98 98 97 97 97 95 86 71 54 38 33
100 99 100 100 100 100 97 93 96 96 95 93 89 76 71 73 82 86 86 84 85 87 85 89 93 96 97 100 100 100 100 100 98 94 99 94 97 97 97 97 97 97 96 91
97 97 97 97 97 97 97 96 94 88 80 74 69 64 58 53 48 46 58 85 95 98 97 95 95 99 98 98 100 100 100 100 100 100 97 99 98 98 96 97 97 97 98 98
96 96 96 96 96 96 96 96 96 93 91 86 74 69 64 60 55 51 44 35 32 49 83 94 95 96 98 98 98 99 100 100 100 100 100 98 99 99 98 98 97 97 97 97
96 96 96 96 94 94 94 94 87 78 71 62 58 59 60 54 54 50 44 35 32 21 16 20 35 82 98 98 96 96 99 99 100 99 100 100 100 100 98 97 98 97 97 97
96 96 95 95 94 95 94 83 61 59 54 46 39 34 31 36 32 28 24 22 21 18 10 6 6 10 15 46 93 98 97 98 98 100 100 100 100 97 94 94 94 93 96 97
96 96 94 83 60 54 53 48 41 36 41 38 32 29 31 27 23 18 13 9 8 8 6 6 5 5 5 6 8 58 97 97 97 97 98 98 98 98 98 98 96 97 97 97
89 82 67 54 57 45 36 43 51 47 40 37 37 31 19 14 13 9 8 9 9 8 8 7 6 6 5 5 5 5 13 80 96 96 96 97 97 97 97 97 97 98 97 96
64 62 60 60 67 62 59 60 51 43 34 30 30 26 18 12 11 12 12 11 9 8 7 7 6 6 6 6 6 5 5 5 9 49 96 96 96 96 96 96 96 96 96 96

GFSNGP_700_rhum_090.txt.gz
RH
76 73 78 70 71 81 84 83 75 64 50 40 46 45 43 42 36 36 40 42 46 48 54 60 68 71 71 72 70 64 58 55 55 53 53 52 50 44 40 37 34 31 29 28
84 79 77 75 75 75 83 83 76 67 49 41 45 44 49 58 50 45 44 48 51 52 54 56 58 58 62 63 60 60 62 63 66 62 57 53 50 43 40 37 34 32 32 35
86 76 68 60 59 65 68 66 64 64 45 59 56 62 64 62 52 52 51 58 61 65 66 65 64 63 63 66 70 73 71 68 67 69 66 62 59 56 55 51 47 49 45 46
74 59 54 51 52 52 57 59 52 54 52 57 62 63 64 66 61 56 50 57 73 78 78 69 65 67 71 71 72 73 76 80 81 83 81 74 73 73 74 68 64 62 50 40
76 67 56 64 66 57 60 68 70 76 63 46 35 34 43 62 65 58 56 64 78 75 70 71 69 64 64 72 81 87 90 90 91 90 84 82 79 82 79 80 75 67 49 39
75 73 53 69 64 71 76 93 87 83 73 70 56 42 36 48 67 61 57 56 57 64 70 68 66 66 68 80 90 92 94 93 91 86 91 93 90 80 78 83 78 69 56 49
85 79 68 68 62 71 81 90 92 87 80 67 55 56 56 45 55 65 63 63 66 68 68 68 67 66 74 89 94 96 94 94 90 97 100 97 90 87 82 87 86 76 65 62
91 80 71 74 73 78 90 84 83 82 89 79 67 62 66 68 65 65 71 72 70 72 70 69 70 71 88 98 97 92 99 98 95 96 99 99 100 100 95 92 90 82 76 71
78 75 70 82 83 86 86 83 83 81 87 84 83 77 78 78 75 74 73 78 77 76 73 68 85 99 98 94 92 93 96 93 96 98 99 100 100 100 100 96 94 89 85 78
81 86 88 87 89 85 87 88 88 91 94 94 95 88 84 80 80 77 74 72 70 74 88 97 94 86 89 91 98 99 98 96 93 100 100 100 100 100 100 96 94 91 87 83
88 89 84 83 90 85 83 93 98 88 96 98 98 99 96 95 94 99 96 90 95 100 97 92 91 94 91 96 96 97 96 90 91 100 100 100 100 100 100 99 99 96 96 95
94 86 80 78 79 93 93 90 92 96 94 98 91 82 78 86 91 93 92 96 98 100 98 96 92 92 93 98 98 98 97 92 93 97 100 100 100 100 100 99 92 95 94 91
78 85 91 88 84 85 93 96 88 96 97 97 94 91 79 76 74 72 68 67 67 76 88 91 91 93 97 97 95 98 99 97 91 90 99 100 100 100 100 99 100 100 96 67
87 86 86 77 80 87 92 93 97 95 95 95 94 82 77 72 68 64 60 56 57 61 64 74 84 90 92 100 99 98 98 98 98 89 91 100 100 100 100 100 99 98 73 32
87 85 83 72 78 92 92 92 91 90 90 90 88 86 81 78 75 68 63 60 59 59 63 67 79 92 100 98 100 99 97 97 98 98 90 84 96 97 98 96 96 73 38 24
78 75 82 76 87 94 96 94 91 91 91 88 85 82 82 84 80 72 57 49 50 58 59 65 71 73 77 91 98 100 99 97 97 97 98 90 89 95 97 97 97 55 30 25
100 86 70 90 96 99 97 96 95 92 87 77 68 71 73 70 68 65 62 58 59 62 58 61 71 68 66 72 84 99 100 100 99 97 97 97 97 96 100 97 97 69 32 30
92 98 99 98 98 99 97 89 85 86 85 78 84 83 82 83 80 75 71 67 63 61 65 68 68 74 77 76 91 88 100 99 96 95 98 97 97 97 96 99 99 98 82 38
82 95 98 98 98 97 92 90 93 97 94 93 94 93 82 73 71 74 78 80 77 74 74 76 81 83 86 96 97 94 99 99 98 99 95 90 93 97 97 97 96 93 93 87
96 96 95 95 97 97 96 95 96 99 100 96 89 77 66 60 55 51 48 47 67 83 85 86 89 91 92 94 96 97 97 98 98 97 97 96 96 93 99 96 97 97 97 96
96 96 96 96 97 97 97 96 96 96 95 93 89 82 74 70 65 60 55 50 44 39 40 68 91 95 96 95 96 95 89 94 100 100 100 100 99 99 99 100 99 97 97 97
96 96 96 96 96 96 96 96 96 95 91 80 70 62 52 44 42 38 37 39 38 36 35 32 26 27 54 82 95 97 97 96 98 99 100 100 100 100 99 95 98 98 98 97
95 96 96 96 96 96 95 95 95 94 77 59 45 37 34 29 25 24 26 22 21 21 21 21 19 16 12 11 15 35 79 97 97 97 99 100 99 100 100 98 96 98 100 99
97 96 96 96 95 94 79 60 52 59 68 82 72 40 32 31 29 24 20 17 14 11 10 10 10 9 8 6 5 5 8 11 42 91 96 97 98 99 99 100 100 100 100 100
96 96 96 96 91 60 51 45 36 34 39 44 41 34 33 32 24 16 13 10 9 9 10 10 9 8 7 6 5 5 5 5 6 7 56 95 96 96 96 96 96 97 97 96
74 89 93 88 70 60 56 58 51 52 53 46 37 31 29 26 25 19 13 12 12 12 12 11 9 8 7 6 6 6 6 5 5 5 5 11 72 96 96 96 95 96 96 96
68 70 70 66 62 59 61 65 62 55 52 48 35 25 20 19 24 30 32 32 31 29 26 22 19 15 11 8 7 6 6 6 6 5 5 5 5 7 42 92 96 96 96 96

GFSNGP_700_rhum_096.txt.gz
RH
96 94 77 66 62 68 64 56 59 68 55 60 63 65 57 44 39 38 28 32 42 40 38 38 38 36 35 35 36 42 53 62 68 71 70 72 73 72 70 66 59 51 46 44
86 75 76 88 83 71 60 56 54 51 58 62 63 61 56 48 36 33 31 32 35 41 41 39 39 38 39 41 44 52 61 69 74 75 75 74 71 65 59 57 56 56 52 45
91 76 83 84 75 92 82 74 67 70 78 82 70 70 59 57 40 37 36 40 35 38 44 46 47 46 48 52 57 61 66 70 70 69 65 62 65 68 68 66 64 64 58 56
70 69 76 70 56 61 73 67 62 65 72 69 62 59 66 54 51 55 53 50 47 45 48 50 50 50 53 56 57 57 56 57 59 61 68 72 72 71 72 71 70 67 61 59
76 58 61 52 50 49 59 68 62 65 68 65 51 46 48 60 59 60 62 54 52 54 56 55 57 60 62 65 62 62 66 69 71 69 67 70 74 80 84 85 82 73 73 73
78 70 63 86 67 65 65 91 82 78 76 67 60 68 69 52 41 46 64 63 56 54 55 63 62 65 65 65 67 65 64 67 66 69 75 83 86 88 87 84 83 84 83 72
84 72 69 66 58 60 77 98 97 80 72 77 70 68 72 74 60 40 48 70 62 60 59 64 70 64 68 68 67 66 66 67 73 83 85 87 90 87 86 87 84 87 83 76
77 75 74 68 70 77 96 95 83 70 74 81 80 74 70 71 68 58 48 71 70 64 73 76 68 72 72 69 68 68 66 68 82 93 96 89 87 89 89 90 92 89 99 100
78 88 76 72 83 82 84 81 74 77 81 81 88 86 84 83 81 75 69 69 74 73 74 75 73 71 71 72 73 69 72 93 95 86 86 95 92 94 95 92 95 98 100 100
83 92 82 77 80 80 83 82 84 88 87 90 92 92 90 88 87 86 87 86 83 84 83 78 75 76 78 79 74 85 97 90 90 96 97 92 92 92 91 94 100 98 98 100
92 97 96 88 80 82 81 86 88 88 90 90 98 91 94 96 100 95 94 85 84 88 85 84 84 85 90 88 90 97 99 99 95 92 93 94 97 97 96 98 98 99 100 100
99 94 96 89 83 79 78 80 90 96 96 93 94 95 92 85 78 77 88 95 98 97 92 90 91 91 98 96 98 100 100 99 100 99 93 95 97 97 96 96 100 100 98 100
94 92 91 82 82 86 80 87 91 98 97 98 94 97 98 94 88 75 70 68 67 66 63 60 60 64 69 76 82 92 99 100 100 100 94 93 90 93 98 96 96 100 98 100
87 91 92 78 85 90 78 80 91 93 89 90 95 97 96 92 85 81 77 71 68 65 62 60 58 56 54 56 62 70 91 100 98 98 99 97 94 94 95 99 94 99 100 100
76 72 70 54 74 89 88 87 84 95 97 98 99 97 95 92 87 81 75 69 65 62 57 55 52 51 53 53 60 71 87 97 91 96 99 98 98 95 94 94 94 97 98 97
76 76 80 75 66 61 60 64 82 96 98 98 97 96 93 87 80 72 63 60 61 63 62 59 53 50 49 50 55 64 81 94 86 84 100 100 99 96 97 94 94 96 96 98
77 84 87 81 75 78 82 95 99 100 98 98 99 90 79 74 67 72 78 76 74 71 68 65 61 58 54 54 59 62 69 77 75 78 93 99 100 100 98 97 96 96 98 97
74 71 73 87 91 92 91 92 97 99 100 95 91 82 77 80 89 83 70 59 53 49 50 61 72 74 70 68 71 76 77 79 88 93 100 100 100 100 96 95 95 98 99 98
72 78 79 83 85 90 97 97 97 97 97 94 90 89 93 96 81 66 62 62 60 57 52 47 43 43 62 80 84 88 90 96 100 100 100 100 100 100 100 100 97 95 95 97
69 80 83 92 88 84 89 94 96 95 95 97 98 97 96 88 82 81 74 64 51 44 38 35 32 32 35 34 34 49 81 95 100 100 100 99 99 99 98 99 97 98 96 92
72 79 83 89 89 87 92 94 95 97 97 96 97 98 97 95 89 58 39 31 27 24 21 20 20 19 19 21 22 24 24 23 34 65 86 95 100 100 100 100 100 100 100 100
74 79 82 83 89 90 93 96 96 96 96 96 96 96 95 92 66 62 53 32 26 22 20 18 16 14 12 12 12 13 14 14 14 13 12 12 13 37 82 97 100 100 100 100
47 70 87 89 89 89 95 96 96 95 95 95 93 82 55 50 51 46 42 43 31 26 20 14 11 9 9 10 10 10 9 8 8 7 7 6 6 6 6 7 11 26 76 98
38 47 52 77 90 92 93 93 96 95 93 85 62 46 50 51 47 41 33 29 26 23 22 18 14 12 12 12 12 12 11 9 8 7 6 6 5 5 5 5 5 5 6 11
49 48 52 59 65 82 90 92 95 95 91 87 66 62 59 53 50 45 35 26 24 25 29 34 40 42 41 40 38 36 35 33 30 26 20 16 11 8 6 6 6 5 5 5
62 64 66 71 71 70 72 78 83 87 75 61 63 64 60 48 42 33 26 28 38 49 57 60 61 60 59 58 57 56 54 51 46 41 37 34 31 27 23 18 14 9 6 6
68 73 75 76 77 78 76 73 70 72 70 66 66 51 39 37 39 44 51 57 62 65 66 65 64 62 62 61 59 59 57 51 41 33 27 25 22 19 18 15 14 15 15 13

GFSNGP_700_rhum_099.txt.gz
RH
98 92 78 65 62 71 69 72 86 77 85 79 61 66 55 48 42 40 37 36 44 40 40 42 39 40 43 44 41 40 42 50 60 70 77 78 75 73 74 75 75 74 71 67
90 84 87 80 68 64 71 65 74 77 69 67 68 66 64 56 46 36 35 34 32 40 41 41 41 41 40 38 38 39 42 46 58 72 76 76 77 79 79 76 71 65 60 58
89 79 85 79 91 72 81 81 73 76 76 70 64 64 60 53 44 39 36 36 36 39 44 43 42 44 43 43 45 49 54 60 68 72 74 75 74 70 65 63 66 67 65 64
78 72 78 72 76 83 84 82 78 78 77 83 74 67 61 52 44 40 46 47 46 45 45 50 49 50 49 51 53 54 57 59 58 58 60 64 68 72 74 72 69 68 69 69
77 70 66 57 55 56 78 80 76 67 58 54 56 58 52 47 53 58 56 54 54 52 52 56 58 59 59 60 62 62 60 59 58 60 66 70 72 74 79 82 85 86 83 77
81 74 70 86 72 70 64 88 94 85 74 64 58 56 59 57 49 55 64 60 63 57 57 58 63 66 70 72 69 65 65 65 65 65 65 67 71 83 87 86 85 85 83 82
84 87 71 70 63 58 60 89 98 91 74 65 70 66 66 73 69 63 48 49 65 65 62 68 71 77 80 70 71 70 67 67 66 65 66 73 78 80 92 91 85 82 82 80
78 91 83 70 65 62 80 86 91 84 78 76 80 78 72 71 67 64 54 50 64 74 66 75 84 90 79 73 77 73 71 68 68 69 74 89 98 90 92 93 92 90 86 83
76 84 78 76 81 83 82 84 84 83 84 84 88 91 88 85 82 76 71 71 76 80 76 78 82 79 77 76 74 74 76 77 74 80 96 93 91 94 94 93 94 89 83 86
89 90 84 82 79 81 81 82 85 86 94 91 98 99 98 96 92 91 90 87 84 85 87 87 84 81 77 77 77 78 81 80 91 100 92 91 97 96 95 97 97 95 91 88
93 93 88 86 87 86 82 77 80 88 93 94 96 96 97 99 97 98 100 96 92 95 97 93 90 88 87 86 84 88 90 96 100 100 100 99 100 95 97 99 96 95 93 93
94 96 99 95 88 88 81 80 79 88 93 94 96 97 97 96 94 89 81 84 93 95 97 97 95 92 91 92 90 84 92 99 100 100 100 100 98 92 94 94 95 95 95 94
100 99 97 95 90 87 93 84 83 84 87 94 97 96 100 100 98 96 89 82 77 74 71 68 66 62 60 62 66 71 74 77 93 100 100 94 100 99 94 94 92 95 96 93
92 96 96 96 93 96 94 88 80 82 90 95 92 90 94 97 93 90 86 82 78 73 71 68 66 62 59 58 57 55 57 63 70 88 93 100 98 100 100 98 94 93 94 93
82 84 79 80 93 88 65 81 89 82 80 88 95 95 97 95 94 89 83 76 70 62 56 55 57 56 54 51 50 51 53 59 77 96 100 96 98 98 97 96 96 95 94 97
77 76 76 72 70 75 91 73 59 60 73 90 95 98 96 93 90 79 70 64 64 68 69 71 68 64 60 56 54 54 57 63 73 100 100 100 96 99 99 92 95 96 97 98
66 71 72 75 75 79 85 88 93 94 91 100 97 98 95 92 85 70 70 79 77 69 61 53 53 65 71 69 64 61 63 71 78 96 98 100 100 100 100 100 99 96 98 99
39 56 69 68 72 79 80 86 94 96 96 97 98 98 93 90 81 84 88 71 60 54 54 54 50 46 43 53 75 78 80 84 87 91 97 100 100 100 100 100 100 100 99 100
29 50 63 70 76 82 80 87 96 97 96 96 96 96 96 93 93 95 81 69 71 70 64 56 48 40 34 34 36 39 54 80 98 100 100 100 100 100 100 100 100 100 100 99
33 59 68 73 80 89 88 85 87 95 96 96 96 98 97 96 96 95 92 92 70 46 33 28 24 23 22 20 20 22 24 26 27 45 78 99 100 100 100 100 100 100 100 100
35 47 73 77 81 86 85 91 93 94 97 97 96 97 97 96 96 96 95 75 48 35 27 23 20 18 17 14 12 12 13 14 14 15 16 16 16 16 30 62 74 97 100 100
34 40 59 80 84 86 88 89 93 97 95 96 96 96 96 96 95 89 89 76 49 45 35 27 22 16 13 10 9 10 10 10 10 9 9 8 8 8 8 8 8 8 10 20
19 28 43 55 86 93 90 87 88 92 95 95 96 94 87 71 64 53 48 40 33 29 25 23 23 21 19 16 14 13 13 13 13 12 11 9 8 7 6 6 5 5 5 5
35 36 33 40 55 78 100 99 98 97 96 96 96 96 94 93 78 58 52 45 33 27 27 32 38 43 46 47 48 48 45 42 40 41 40 38 35 32 28 23 17 11 8 6
43 47 50 55 59 64 72 88 98 99 98 96 94 76 67 69 64 53 46 32 27 31 40 50 58 61 61 61 58 58 57 55 54 53 52 52 51 49 45 40 36 32 32 29
42 50 56 62 66 71 75 76 76 77 78 83 83 73 66 62 45 37 34 39 49 53 53 49 45 47 49 51 50 53 57 59 59 58 55 52 48 42 36 30 27 25 25 24
18 28 40 56 70 77 82 83 83 82 79 77 78 72 64 47 45 36 25 14 9 8 8 9 10 8 7 9 16 39 61 66 64 59 52 42 35 30 28 26 25 24 22 20

GFSNGP_700_rhum_105.txt.gz
RH
94 96 90 87 67 62 82 83 72 77 77 69 64 58 56 56 53 49 47 49 59 66 64 63 65 69 70 71 67 68 63 55 56 58 61 73 86 94 94 88 86 83 80 77
95 98 97 91 75 76 93 88 80 79 77 77 72 68 61 55 54 54 44 41 43 43 46 63 73 76 76 75 75 75 71 54 46 47 52 58 80 87 82 83 81 79 75 71
79 82 86 77 86 76 91 93 84 78 79 81 78 72 67 61 54 53 54 43 38 37 45 47 50 54 62 68 61 51 48 48 49 46 43 50 59 66 74 73 71 71 70 72
75 65 79 78 93 92 94 95 96 90 83 77 73 67 67 65 61 56 53 47 40 38 38 38 46 47 46 46 47 48 50 49 46 45 47 50 56 70 72 72 68 62 61 64
78 71 71 77 73 96 98 91 90 83 73 63 65 66 61 55 52 54 53 50 52 44 44 44 44 53 52 50 49 48 51 55 57 58 58 58 64 65 61 60 62 66 68 66
80 78 78 90 72 76 86 89 90 86 77 70 63 54 49 46 46 45 50 48 52 57 56 55 53 58 61 62 64 63 63 58 55 56 57 58 59 62 66 66 65 64 66 63
83 81 79 76 70 72 75 82 87 90 87 83 69 61 52 54 54 56 52 47 46 61 66 60 66 70 70 68 67 68 65 63 64 65 66 66 67 68 67 65 65 61 60 67
82 85 86 79 75 67 78 87 89 91 85 74 66 65 69 72 69 63 59 60 64 58 69 72 73 76 78 80 79 77 76 70 70 70 70 70 71 71 72 67 60 66 77 73
83 86 79 80 81 84 85 82 81 79 78 78 79 80 85 86 81 77 74 67 64 56 64 82 81 85 92 95 93 92 80 76 76 74 76 75 75 80 81 77 77 75 70 67
87 87 84 85 82 78 78 84 85 84 85 86 88 97 96 96 90 89 86 83 81 76 72 79 87 91 97 98 100 100 90 86 87 82 80 81 87 93 91 88 84 92 78 71
90 90 90 89 90 88 89 87 82 77 77 85 92 96 93 99 95 89 90 93 98 100 100 96 93 94 99 100 100 94 88 86 83 82 83 88 98 99 95 86 89 97 94 80
97 84 94 95 94 96 93 90 82 80 82 79 88 95 95 96 97 97 91 84 87 91 98 100 93 92 94 94 94 94 92 91 91 91 91 97 98 97 90 100 100 100 98 74
72 79 88 90 91 95 89 84 83 89 86 91 89 88 94 96 100 95 89 98 93 86 80 76 74 74 80 90 92 90 89 90 89 89 88 96 98 100 100 77 82 92 94 90
61 65 69 76 78 86 90 91 88 89 92 89 90 90 88 90 93 92 85 96 97 93 87 82 77 74 71 68 67 66 64 64 61 58 57 57 58 62 87 91 82 100 100 97
42 45 46 50 55 63 72 74 74 77 91 86 85 95 94 83 84 100 99 96 94 90 76 64 58 57 58 58 57 54 53 52 52 51 53 55 57 60 72 76 100 100 100 100
44 44 44 46 55 59 64 68 71 74 74 91 91 89 83 84 89 97 97 97 92 85 77 66 61 64 67 67 63 58 58 60 60 59 58 58 61 64 72 76 85 100 100 99
40 41 34 21 18 35 49 56 66 72 77 83 87 94 100 98 91 91 98 99 97 85 73 67 69 69 62 56 52 50 48 43 42 59 67 65 66 75 82 93 100 100 100 96
43 36 21 17 15 19 36 48 53 65 71 80 88 87 89 97 94 95 94 95 96 94 85 82 75 66 64 64 61 55 46 38 30 30 40 66 78 85 95 97 97 95 94 98
37 25 15 12 13 24 40 51 56 64 72 73 85 96 96 95 96 95 95 96 97 96 93 87 82 80 77 60 42 32 25 22 20 19 20 25 34 43 70 89 92 94 93 93
28 17 12 11 13 18 40 54 59 66 73 80 85 88 88 90 94 96 97 96 96 99 98 98 97 95 59 34 24 20 18 16 13 12 12 12 14 15 16 18 20 24 26 30
20 15 10 9 9 14 25 51 64 69 72 76 82 85 82 82 85 90 92 94 94 95 96 97 97 96 86 36 23 18 15 12 10 10 10 11 11 10 10 9 9 9 8 8
20 14 7 7 9 12 19 30 56 74 79 82 85 83 83 86 88 91 92 96 96 96 95 93 73 56 35 26 29 31 26 24 24 23 22 20 20 20 19 19 19 18 17 15
17 8 9 12 16 21 24 24 33 51 80 94 94 91 87 88 89 91 94 94 95 94 93 92 70 42 39 46 49 52 51 51 51 51 52 52 52 51 49 48 46 45 44 44
9 8 10 13 18 24 33 40 43 45 57 71 86 91 93 94 96 97 95 93 94 94 94 93 87 83 71 64 61 58 53 52 53 53 53 51 51 52 53 55 55 53 51 50
9 12 12 13 17 24 33 41 54 64 68 74 79 82 86 85 85 88 87 85 84 89 62 33 41 52 29 14 14 20 23 23 22 22 20 21 22 28 37 45 50 52 53 50
15 17 15 17 21 28 36 46 55 62 67 75 80 82 82 81 79 79 82 74 76 62 61 34 14 13 20 30 29 19 15 16 18 21 22 24 25 25 26 27 27 28 28 28
20 16 12 12 12 12 14 16 21 28 37 48 62 65 69 66 63 56 45 31 18 14 12 11 11 12 11 10 9 8 8 9 13 20 24 25 25 25 26 26 27 27 28 28

GFSNGP_700_rhum_108.txt.gz
RH
91 90 99 84 71 75 79 77 69 75 72 69 65 63 62 58 50 48 46 44 45 60 60 60 56 60 68 66 60 69 71 66 63 59 58 61 64 64 70 82 83 86 91 89
92 94 95 84 80 97 92 82 70 74 74 72 69 68 66 61 55 54 47 46 46 58 65 64 64 65 67 67 69 76 77 74 70 72 59 51 56 54 56 64 71 74 85 83
76 83 92 76 91 85 94 87 84 84 86 81 78 72 65 61 64 59 54 48 42 46 47 55 64 66 68 73 76 86 83 80 75 66 51 46 47 49 52 63 72 71 79 76
69 67 85 75 89 92 97 93 91 96 94 86 79 72 64 63 61 62 62 56 45 38 37 41 47 50 59 70 75 77 72 67 60 52 49 49 46 45 48 54 60 72 71 66
72 74 74 82 76 97 99 88 92 89 83 76 70 66 62 57 52 53 54 57 52 48 44 40 38 41 47 50 51 51 51 50 51 53 53 49 47 50 54 64 72 70 59 55
81 75 82 86 77 78 81 96 98 92 84 77 70 64 56 52 49 50 51 52 53 52 52 49 48 47 45 48 51 54 55 57 56 58 59 60 64 70 62 60 61 62 60 58
82 83 81 77 72 83 80 81 88 90 86 78 74 64 58 52 55 59 56 60 57 53 53 62 61 62 69 73 67 62 69 68 65 62 63 66 64 64 62 65 66 62 57 57
79 83 86 77 70 68 72 94 95 89 84 78 70 66 66 68 73 75 73 65 64 70 72 77 74 76 76 76 74 74 72 71 70 72 69 66 69 67 66 67 66 65 63 63
73 79 77 81 85 80 82 82 79 77 75 75 78 81 84 84 88 86 82 77 69 66 66 82 88 85 92 89 88 85 83 84 83 75 75 74 72 70 69 72 74 71 67 66
78 75 80 81 83 81 79 80 81 81 79 79 84 87 89 93 95 87 86 88 89 90 79 87 96 96 99 99 98 98 97 96 91 83 83 79 79 78 80 81 77 71 73 76
80 73 75 78 81 83 86 89 90 84 75 72 76 82 86 91 90 94 90 89 94 96 99 100 100 100 100 100 99 99 99 96 98 92 89 88 84 82 83 85 82 94 94 95
68 71 77 77 80 80 83 84 81 89 76 74 77 79 86 93 93 89 92 93 90 86 88 97 98 97 98 99 99 98 98 98 98 97 96 92 89 89 97 99 93 96 91 100
65 74 72 73 80 82 82 81 79 81 81 84 83 88 92 92 94 91 87 86 88 98 97 87 82 78 75 74 79 88 92 92 95 97 95 91 88 86 88 81 82 84 99 72
50 57 62 68 69 71 72 74 77 82 86 88 90 84 85 88 96 98 90 98 95 93 100 98 88 84 80 76 74 73 71 70 69 68 69 68 66 63 60 59 64 71 88 81
32 37 42 45 48 50 54 59 61 64 65 70 77 89 89 90 92 97 95 77 89 92 97 96 90 75 63 55 54 58 60 60 59 58 57 56 56 56 57 58 61 67 81 83
35 40 43 42 40 38 43 54 55 58 60 62 64 66 78 90 93 94 87 82 69 91 97 96 90 79 70 65 65 67 66 61 55 52 52 54 58 60 60 62 67 71 76 82
32 35 37 35 23 18 14 14 26 37 43 50 62 68 72 79 86 88 98 97 98 96 97 94 96 81 75 70 66 60 58 57 55 52 46 39 36 59 69 71 77 81 95 100
31 33 32 24 18 12 10 13 21 36 43 47 58 64 67 68 75 83 92 94 92 96 95 95 96 93 82 75 72 70 68 61 50 40 31 28 24 30 38 61 88 100 100 100
30 34 27 18 11 7 8 10 21 38 46 53 62 68 74 78 82 85 84 84 86 90 94 96 96 96 92 89 86 83 76 49 29 23 20 18 16 17 23 33 41 60 76 88
28 28 22 15 10 6 6 8 13 24 41 53 62 71 78 83 86 86 84 86 88 94 98 96 96 96 96 96 97 70 34 20 17 15 12 10 10 10 10 11 11 12 13 13
25 24 19 17 12 6 6 8 11 18 40 63 68 69 73 76 76 76 80 86 87 88 90 95 96 96 96 97 97 95 74 25 24 22 19 16 14 13 13 12 12 12 11 10
21 21 20 16 7 7 9 12 14 16 23 43 63 79 83 82 80 81 81 83 85 95 99 98 96 95 95 91 91 89 85 78 70 65 63 52 48 48 49 47 47 46 44 42
22 22 19 10 8 9 10 14 17 24 29 34 44 58 71 79 85 88 93 94 94 95 96 97 98 96 95 95 95 94 85 75 69 65 60 59 61 60 56 53 52 51 53 54
24 22 11 9 10 10 10 12 18 29 39 48 54 59 65 78 88 88 89 93 95 92 92 92 84 85 95 91 75 68 39 30 23 16 14 14 15 16 16 17 19 23 31 36
28 22 13 12 14 13 12 13 23 32 36 47 55 62 69 74 77 85 82 83 82 83 81 63 82 92 62 40 20 25 42 39 24 17 20 23 24 24 24 23 23 24 25 26
32 27 20 18 16 15 16 20 24 26 33 42 47 47 54 63 70 76 80 82 79 63 50 30 30 24 15 16 22 25 17 12 10 11 12 16 20 23 24 24 25 26 26 26
37 34 25 19 13 11 11 10 10 11 11 12 14 14 16 19 22 23 19 15 13 12 11 11 10 11 12 12 11 10 9 7 7 9 11 12 13 15 18 22 24 26 28 28

GFSNGP_700_rhum_111.txt.gz
RH
90 91 95 73 65 78 64 76 73 78 75 75 70 65 60 59 50 50 47 49 57 57 54 57 59 54 58 67 68 67 66 66 61 57 56 53 60 71 73 70 70 72 81 80
99 98 85 76 89 83 81 80 77 76 76 79 75 70 62 55 55 50 45 42 44 61 60 60 64 64 61 62 69 69 66 71 69 62 54 52 52 56 62 62 59 65 75 83
80 91 84 71 86 93 85 88 87 84 91 86 78 72 67 60 56 53 51 43 42 44 61 68 65 66 69 70 71 73 76 74 73 73 68 69 65 56 52 54 58 60 74 72
71 72 84 85 93 94 90 96 90 87 86 80 73 68 61 61 59 53 51 49 44 40 42 46 55 66 68 70 72 76 78 83 85 80 75 80 72 54 46 48 53 62 60 47
68 79 88 89 97 100 97 97 94 87 78 75 71 64 58 58 56 52 50 51 50 43 40 39 40 44 47 52 65 79 87 89 88 82 73 61 54 53 52 48 51 63 70 77
74 72 82 81 84 92 92 99 98 90 82 75 67 58 56 47 42 41 42 45 50 51 50 48 45 41 40 43 48 50 51 53 53 53 52 52 54 54 55 60 70 79 80 70
76 81 83 79 71 79 68 89 98 89 87 78 73 64 58 53 50 45 43 41 40 45 49 51 52 50 48 48 50 56 55 56 58 59 58 57 62 65 64 68 71 72 72 69
75 80 84 75 72 72 69 83 85 82 79 75 68 62 58 57 60 62 63 57 51 51 54 52 60 65 64 66 68 69 72 71 73 74 75 73 68 66 66 68 71 74 70 69
70 68 69 75 77 75 76 78 78 74 73 72 73 73 72 68 67 76 76 75 70 62 65 70 75 84 80 78 86 89 87 83 78 75 74 77 75 74 74 73 74 78 80 75
71 72 73 74 74 74 73 70 71 75 75 74 75 78 79 81 82 80 77 81 84 85 80 87 100 100 96 98 99 96 91 90 89 87 88 85 83 82 81 84 86 83 84 88
68 68 72 72 72 74 78 77 79 79 77 77 72 72 75 85 90 91 89 85 84 84 94 100 100 100 99 98 98 98 99 98 98 99 98 97 97 96 96 97 92 92 98 99
48 63 69 70 72 75 77 76 78 81 82 86 77 71 76 94 95 100 100 97 95 95 93 97 98 100 100 99 93 95 98 98 98 98 99 99 97 98 97 97 98 98 98 99
46 56 60 63 67 72 72 72 73 75 76 78 81 79 79 82 92 100 100 98 98 98 98 99 98 92 90 91 88 86 87 91 92 94 96 98 100 100 98 98 98 98 100 98
31 41 48 54 59 60 60 61 61 63 67 75 78 80 82 84 89 99 100 100 96 98 97 97 98 98 97 96 96 88 80 77 75 73 73 74 76 78 78 77 74 70 67 67
21 26 32 36 39 42 44 46 48 50 52 52 56 60 64 66 74 90 98 96 88 73 63 80 88 92 97 96 95 94 76 60 61 64 65 64 63 62 61 60 60 61 63 64
20 24 31 37 38 32 24 18 17 22 36 43 43 46 57 62 64 65 70 77 87 90 89 86 88 92 97 96 96 83 74 68 65 62 59 55 52 50 47 46 53 64 69 77
16 22 27 31 31 23 18 15 12 12 14 16 24 31 39 48 57 64 66 64 75 88 85 89 93 91 95 96 97 94 77 66 62 64 62 59 55 49 42 34 34 64 78 92
16 21 27 31 27 21 12 8 6 7 10 16 27 35 40 48 58 60 68 77 85 92 89 89 94 92 95 96 95 95 86 82 75 68 61 55 43 34 27 23 26 35 56 90
16 19 24 26 23 17 12 7 5 6 8 11 18 28 44 56 65 74 80 84 86 85 86 88 90 91 94 96 96 96 96 95 94 93 75 34 26 19 16 14 15 18 33 54
15 18 20 22 19 16 14 9 6 6 7 9 15 26 42 58 66 71 71 71 71 73 76 80 85 88 88 88 92 94 95 95 89 56 36 18 14 12 11 11 11 11 10 10
16 18 19 19 18 17 15 7 7 8 9 12 16 28 51 64 73 77 77 76 77 80 79 78 80 83 92 93 90 93 95 95 95 86 66 58 55 56 46 35 30 28 25 24
16 17 18 18 18 18 12 8 7 7 11 15 20 27 40 61 70 76 80 86 87 88 84 84 86 89 92 94 98 96 95 95 95 94 95 94 90 84 85 83 74 59 57 55
17 18 19 20 19 14 8 7 6 7 9 14 27 36 43 53 62 74 87 86 87 85 89 88 88 91 91 92 96 96 96 95 93 94 95 92 39 45 61 59 51 46 43 43
19 21 23 23 21 14 10 9 8 7 10 18 30 41 50 58 65 78 80 86 84 83 83 82 84 83 75 93 89 89 70 45 27 40 53 51 39 35 33 32 33 33 30 30
21 22 24 25 24 19 16 13 11 10 16 23 33 42 47 55 63 79 76 78 82 84 84 82 74 61 50 40 36 26 21 29 46 39 25 24 26 27 28 28 27 26 26 25
22 23 25 28 29 24 18 14 12 11 12 13 15 16 18 25 29 40 45 44 43 38 27 19 14 12 13 13 14 16 18 20 18 14 13 16 19 22 24 26 26 24 24 24
24 26 28 32 34 31 20 14 11 12 12 13 16 17 19 20 20 21 20 19 17 16 15 14 13 11 11 12 12 12 13 12 11 10 10 12 14 15 16 17 20 20 19 18

GFSNGP_700_rhum_114.txt.gz
RH
96 89 98 96 93 70 72 80 83 91 89 82 72 68 71 67 63 62 71 82 74 83 91 96 89 80 73 73 87 77 73 69 67 65 61 61 64 67 68 81 99 100 93 87
98 90 94 95 88 93 82 87 90 88 84 80 73 73 68 63 61 52 51 53 63 68 59 62 70 68 62 68 69 71 74 72 70 70 64 62 60 67 73 82 89 92 92 88
90 83 75 81 95 99 92 86 89 91 88 81 71 65 60 57 56 56 50 44 45 51 68 65 64 64 65 66 67 71 73 75 84 83 69 66 68 70 71 76 79 76 73 73
74 70 68 97 95 98 88 91 89 84 81 76 70 62 58 56 54 52 52 50 44 39 43 61 68 68 67 68 71 75 83 84 99 94 83 80 80 81 79 75 64 60 61 64
70 75 86 87 96 91 94 95 91 85 77 70 66 62 55 51 54 53 51 49 50 47 41 38 42 52 63 70 70 71 75 84 92 96 96 97 88 84 86 78 62 56 60 62
68 70 67 72 87 94 93 100 92 86 80 75 68 65 56 50 42 38 40 44 46 50 50 49 47 42 39 42 50 57 67 77 85 88 89 90 83 74 62 61 61 58 60 66
81 76 76 69 70 73 74 90 88 84 82 73 68 66 60 55 49 47 43 36 38 41 44 49 52 52 50 49 47 47 52 57 59 61 61 62 61 60 61 63 64 69 75 76
66 81 78 68 66 71 63 76 75 79 75 71 68 67 63 59 55 53 50 50 48 47 46 49 46 47 55 61 66 66 65 63 68 67 68 72 74 80 83 84 83 78 72 71
64 66 64 67 65 64 64 69 72 70 65 63 64 64 64 68 74 76 74 62 61 62 61 65 69 70 77 80 80 90 94 91 93 90 87 87 86 82 79 82 83 83 80 79
63 66 67 68 67 67 66 65 63 63 64 63 61 58 55 57 60 65 70 77 79 82 82 75 88 96 99 100 100 94 98 100 99 95 91 88 87 90 90 91 90 92 90 89
54 61 66 68 68 70 67 66 65 63 62 60 59 66 62 59 57 63 73 79 79 77 78 85 89 94 96 98 98 99 99 98 98 97 98 99 100 100 99 96 94 95 97 96
33 46 58 60 57 60 64 66 66 68 65 61 67 66 63 55 55 63 64 70 76 80 81 86 87 85 89 93 94 94 99 99 98 99 100 99 98 98 99 99 98 99 100 97
28 36 50 55 52 52 56 57 59 61 60 62 63 61 60 63 65 67 72 77 79 78 78 74 80 84 91 92 86 82 85 90 92 94 94 97 98 99 100 96 98 97 97 97
18 26 34 40 44 43 45 42 40 40 41 46 50 56 59 56 60 63 65 70 86 74 62 61 73 83 88 90 91 97 92 87 86 88 86 83 80 77 78 80 88 90 90 90
12 16 21 24 28 30 32 33 32 31 32 38 43 47 48 48 52 56 62 70 71 71 71 70 72 69 68 69 72 88 95 96 96 88 79 70 67 66 66 65 65 64 62 62
10 14 19 23 26 27 24 16 15 15 14 13 15 24 29 32 37 40 52 59 61 63 63 69 71 78 83 85 86 90 94 95 95 94 94 87 64 56 54 53 52 50 48 46
8 11 15 20 24 24 20 17 13 8 7 8 11 15 24 29 30 36 46 54 63 62 67 79 84 89 88 82 82 85 86 91 94 96 94 92 90 93 92 65 54 48 42 35
7 10 13 16 20 21 20 15 11 8 6 7 9 12 17 24 33 41 52 63 71 75 81 87 87 83 81 84 86 87 89 90 95 96 95 94 94 83 58 67 89 50 26 25
8 10 13 15 18 20 18 14 13 10 7 7 8 9 11 15 24 45 59 65 76 78 76 74 73 71 72 74 78 84 88 91 95 97 96 95 95 95 90 51 23 32 23 15
8 11 13 15 17 17 16 15 14 11 8 7 8 8 9 16 28 43 57 68 73 75 75 72 68 69 73 74 75 77 83 90 93 94 96 95 85 83 61 23 14 13 13 12
9 12 14 16 17 15 15 15 15 11 8 7 7 8 12 20 29 40 61 72 72 69 69 73 79 78 74 73 76 79 83 88 93 98 100 98 96 90 80 72 66 61 54 46
11 13 14 14 14 15 16 15 13 9 8 7 7 9 16 23 31 43 54 64 72 78 81 84 84 83 84 85 86 84 88 93 97 99 99 97 97 97 96 96 96 95 95 94
11 13 13 15 16 17 15 15 15 11 8 7 8 11 19 25 37 49 61 68 80 81 82 82 81 81 81 85 82 81 92 99 98 96 68 44 77 95 96 95 86 63 77 90
11 14 16 18 17 16 16 17 17 14 11 9 10 14 20 28 41 55 61 66 71 73 77 83 85 85 84 82 68 64 53 46 34 38 56 61 60 42 34 36 41 48 51 40
13 16 17 18 19 19 20 21 21 18 13 12 12 12 15 19 29 49 43 46 51 58 70 74 72 66 49 34 19 16 20 20 20 24 31 28 21 21 28 34 36 37 36 35
16 17 19 20 22 22 23 26 27 20 15 11 11 11 13 15 16 18 21 21 20 22 22 19 17 16 15 14 13 14 15 17 18 18 16 14 15 22 26 30 32 33 32 31
19 22 25 24 21 20 26 32 35 30 24 18 15 16 17 18 20 22 24 26 29 30 30 29 28 24 21 19 15 14 16 17 16 15 14 12 13 18 21 22 20 23 27 26

GFSNGP_700_rhum_117.txt.gz
RH
94 100 96 92 90 83 79 82 91 92 97 100 98 83 77 66 75 85 78 95 100 99 98 98 100 100 100 100 100 99 98 89 73 67 65 73 80 83 90 96 91 84 94 99
90 86 86 99 94 96 90 87 90 92 100 88 82 76 68 66 59 55 62 76 79 87 96 100 96 88 92 98 98 95 87 78 77 72 68 63 62 66 73 78 82 90 95 92
79 84 80 71 99 99 100 95 94 97 99 94 69 62 62 60 58 58 49 50 60 71 72 74 77 74 78 81 90 94 95 86 75 76 79 67 62 64 68 75 88 98 100 99
65 64 60 96 100 99 95 92 98 88 82 74 68 61 57 58 57 54 53 53 47 46 56 73 70 69 70 71 72 78 85 89 94 97 93 74 69 68 65 73 85 89 89 88
62 65 83 91 93 94 99 91 85 82 77 71 68 71 52 48 46 48 50 51 52 51 45 42 50 66 72 74 73 73 78 89 96 100 93 93 86 84 80 80 77 79 78 72
72 64 60 79 78 77 80 98 84 79 76 70 72 91 55 50 44 41 39 40 46 49 52 51 50 48 46 52 65 82 88 88 88 89 90 95 95 99 100 95 90 92 88 76
67 67 80 65 76 78 81 96 85 78 72 65 57 55 53 49 46 42 39 40 41 42 48 50 55 58 60 56 52 51 53 59 70 80 89 92 98 99 98 93 83 73 69 69
66 63 71 70 75 89 68 69 71 72 61 53 52 51 50 48 48 46 40 36 37 39 42 50 56 57 62 70 72 67 64 62 60 62 62 63 64 66 65 66 68 68 71 76
66 69 54 62 60 59 64 75 71 64 60 54 50 48 47 49 50 51 54 53 51 46 47 47 48 57 77 78 88 97 96 90 86 85 80 73 70 72 75 79 84 84 86 89
51 48 52 56 57 58 59 57 54 51 53 54 51 51 50 49 46 49 51 56 62 65 61 58 61 61 66 90 96 95 98 97 98 99 97 96 97 94 90 86 85 84 84 80
36 42 46 47 48 51 53 53 54 54 51 50 46 45 51 54 50 49 54 59 65 71 75 75 72 68 67 70 75 90 90 97 98 97 98 96 96 97 97 94 92 90 91 91
42 25 39 39 39 41 44 44 48 50 54 51 46 49 52 51 48 47 50 51 54 62 70 74 76 76 77 79 79 79 76 80 83 90 92 93 95 97 98 98 98 98 98 98
15 18 26 33 36 36 38 38 38 41 43 44 40 40 42 43 41 41 46 49 55 56 57 58 61 70 79 81 82 82 82 84 86 89 87 85 86 91 94 94 96 97 97 97
7 10 14 18 22 23 26 28 27 26 27 29 30 31 33 35 34 36 36 37 39 42 41 43 48 56 59 59 59 69 83 87 83 84 90 98 94 88 87 85 83 84 92 96
4 6 8 10 12 14 17 20 21 18 14 13 12 14 18 18 19 20 21 23 26 32 40 46 48 48 51 52 58 69 75 77 77 81 86 85 94 98 90 77 68 68 69 70
4 5 6 8 11 12 14 14 11 12 13 13 11 11 10 10 11 14 17 20 22 27 36 42 47 52 52 56 65 74 78 81 78 82 86 96 96 96 96 95 82 74 62 54
4 5 5 7 10 11 13 12 13 12 10 8 7 6 7 8 9 10 12 14 19 29 40 47 55 60 65 71 73 72 74 78 81 84 87 89 97 99 96 95 96 96 95 79
6 6 6 7 8 10 11 12 12 11 10 10 8 7 7 8 8 7 7 10 16 27 49 61 67 67 65 65 64 67 69 71 75 78 81 88 92 95 96 97 97 96 94 94
5 6 7 8 9 10 12 12 12 11 11 11 10 8 8 7 6 6 7 11 18 34 47 56 63 63 64 65 64 66 66 68 71 73 75 78 84 92 98 99 98 98 95 58
6 6 8 9 11 12 14 14 13 12 12 12 10 8 8 7 6 8 11 17 24 35 50 60 60 55 58 67 73 70 68 67 68 72 76 80 81 88 90 90 85 89 95 76
7 8 9 12 13 15 15 13 14 14 14 12 9 8 8 7 8 13 18 25 35 46 55 58 62 69 75 77 74 74 75 76 76 78 83 88 92 95 95 97 100 99 90 76
8 10 12 14 15 14 14 15 16 14 13 13 11 10 8 9 12 19 26 37 45 55 67 71 80 85 83 81 80 78 79 81 80 82 89 93 95 78 62 88 95 98 98 96
9 11 14 16 15 15 16 15 15 15 15 15 14 12 10 11 15 19 31 42 49 62 70 78 84 89 88 85 86 87 87 75 70 66 61 49 64 84 74 69 65 82 94 96
9 10 12 13 16 16 16 18 18 16 16 18 17 14 12 13 14 18 24 30 44 57 62 73 79 85 83 85 87 82 64 45 36 32 31 23 25 37 42 33 29 35 42 48
10 11 12 14 16 16 20 22 19 17 17 22 20 17 14 11 11 13 14 17 22 26 31 51 62 54 41 36 30 21 17 16 16 17 19 21 24 25 22 22 31 35 40 43
13 13 14 17 19 26 26 20 17 20 20 25 29 25 23 21 18 18 18 20 20 22 24 26 28 27 26 25 22 20 19 17 16 17 19 22 20 18 18 25 32 35 38 39
13 14 16 24 30 27 20 19 18 23 28 31 35 42 44 46 43 38 32 27 26 27 29 31 32 32 31 30 28 27 25 23 19 18 20 20 18 17 18 22 28 30 32 33

GFSNGP_700_rhum_120.txt.gz
RH
92 97 84 92 98 87 78 80 96 98 99 100 84 81 85 83 95 99 99 99 99 100 100 100 100 100 99 98 99 97 98 96 96 100 100 97 93 90 89 91 92 92 93 91
84 86 82 82 91 95 96 98 93 98 100 81 73 65 63 66 57 61 89 98 99 100 100 100 100 100 100 100 96 92 83 89 79 78 78 85 91 100 100 100 100 100 99 100
78 65 73 72 97 99 99 98 93 95 97 71 60 59 59 56 55 49 46 60 82 86 95 96 98 99 99 100 99 99 99 88 78 72 72 68 65 72 85 94 99 99 100 98
70 59 80 96 98 97 96 100 99 92 74 67 76 60 51 53 53 52 53 48 44 60 74 72 75 73 72 71 71 75 80 88 95 92 85 86 76 69 71 77 83 88 96 98
66 70 80 82 89 96 96 89 86 79 81 91 82 67 48 46 43 41 46 49 51 48 42 50 70 71 69 72 78 88 98 96 94 89 92 98 90 81 74 75 82 91 96 96
62 64 76 86 78 81 91 100 88 81 74 84 90 55 56 48 44 40 36 33 38 47 50 48 43 42 52 68 74 76 77 88 97 100 100 100 99 93 92 88 86 87 87 84
67 64 72 60 68 73 78 98 91 73 62 54 50 55 57 55 48 38 35 33 33 32 33 43 48 51 54 52 47 47 56 70 81 87 94 98 100 100 100 100 100 99 100 100
61 65 70 57 67 69 76 67 63 66 61 58 53 54 63 68 66 64 57 51 41 34 30 30 33 34 40 47 51 55 58 55 52 52 56 63 71 81 96 99 99 99 100 95
62 60 44 51 53 54 56 61 64 62 55 53 52 52 51 50 55 61 71 74 65 59 56 51 43 37 35 37 39 43 52 64 75 76 74 70 68 66 67 69 71 73 72 71
42 37 47 54 53 52 53 54 53 52 53 51 47 45 45 49 47 44 44 51 61 75 78 73 67 64 59 53 50 54 48 56 66 63 71 79 88 93 91 86 85 88 93 98
27 33 38 38 40 42 44 46 49 51 50 46 41 38 41 45 45 44 42 41 41 43 45 51 60 70 75 76 73 66 65 71 79 71 82 94 89 96 94 92 96 98 100 100
12 21 27 26 27 30 34 35 33 35 36 34 33 29 27 28 29 28 30 31 34 38 40 41 46 51 56 62 66 69 72 74 72 70 70 74 79 86 96 97 96 97 98 99
7 9 12 24 23 25 27 26 24 26 26 21 20 19 20 19 20 18 18 21 21 24 25 29 37 44 44 46 58 66 65 65 68 74 79 78 78 83 90 91 90 88 96 97
3 4 6 8 11 10 13 14 15 16 17 14 12 11 11 10 10 10 11 11 12 12 14 21 22 26 33 38 46 50 56 67 75 77 75 74 73 75 83 86 96 98 94 90
4 4 4 4 6 6 8 10 11 10 8 8 10 11 10 9 9 9 8 8 9 10 13 14 17 21 28 36 43 48 54 61 71 81 90 91 86 86 89 95 96 99 98 96
4 4 4 4 5 5 6 7 7 7 8 8 7 7 6 6 6 7 7 8 8 9 9 12 15 23 32 41 46 53 61 69 72 74 76 78 79 86 89 88 91 95 97 96
6 6 5 5 6 6 7 7 7 8 8 8 7 7 7 7 7 7 7 7 6 6 8 11 16 27 38 46 55 58 61 63 64 64 66 71 74 79 85 88 94 95 92 91
6 7 8 8 8 9 9 10 10 10 9 9 8 8 8 8 7 7 7 6 6 7 9 11 16 29 42 48 51 56 61 61 63 65 66 67 69 70 72 76 86 93 94 96
6 6 7 7 8 9 10 10 11 11 12 12 12 10 10 8 8 8 8 6 7 8 11 15 22 31 40 48 49 54 64 70 70 68 69 70 72 72 76 77 80 85 89 89
6 6 6 7 7 8 9 10 11 11 12 14 15 14 12 10 8 9 8 8 8 10 16 22 29 38 43 50 59 70 74 72 73 75 74 73 74 80 84 86 88 89 92 95
5 7 7 7 8 8 10 10 10 10 13 15 16 17 15 11 10 10 8 8 11 12 18 27 34 43 52 62 78 81 76 78 77 78 79 70 69 74 77 88 73 64 81 91
6 7 8 8 9 10 10 10 9 11 14 16 20 19 14 12 12 11 10 11 13 14 20 29 39 51 59 71 84 82 79 82 84 86 78 60 56 52 44 45 82 77 57 54
6 7 7 9 9 10 10 9 11 13 16 21 21 16 13 14 15 14 12 13 12 12 14 20 29 46 55 70 83 78 80 84 86 83 60 39 31 26 22 23 28 42 41 33
6 6 7 8 10 10 10 12 14 17 24 25 18 14 14 17 18 17 16 15 15 14 15 16 20 28 37 52 57 46 44 41 34 24 18 16 17 18 19 22 21 20 21 30
7 7 7 8 10 11 12 14 19 28 27 19 15 17 18 21 23 27 30 29 28 28 26 22 22 23 26 29 28 27 25 23 21 20 19 17 16 18 21 22 19 18 26 37
12 10 11 12 12 12 14 22 29 28 24 17 17 20 24 27 30 34 39 44 50 53 49 39 31 28 31 32 33 32 31 29 27 26 25 23 19 20 22 21 20 21 30 37
13 14 13 12 13 14 25 32 31 27 21 17 17 21 22 23 22 22 26 34 46 63 69 64 48 37 35 35 35 35 35 36 36 35 32 25 21 21 22 22 21 24 29 33

GFSNGP_700_rhum_123.txt.gz
RH
98 97 85 94 85 80 92 89 94 95 90 98 94 96 96 97 98 99 100 100 100 100 99 100 100 91 86 80 99 97 96 96 100 99 98 96 99 99 94 95 96 100 99 99
86 82 78 91 88 91 84 91 84 79 82 84 75 71 85 86 95 96 98 99 100 100 100 100 100 99 98 99 99 100 100 100 100 98 98 100 100 100 100 99 99 100 100 99
68 66 71 82 96 89 92 88 80 80 94 78 55 52 68 78 71 83 96 97 100 100 100 100 100 100 100 99 100 100 99 98 99 99 96 96 96 99 100 100 100 100 100 99
64 65 90 92 97 86 86 92 91 83 85 77 63 58 48 56 56 61 55 48 61 78 77 79 85 94 97 98 99 95 91 85 80 78 75 73 77 77 82 96 99 100 98 100
62 82 90 97 95 94 85 84 79 77 78 76 62 62 44 42 40 41 48 54 53 48 53 74 71 68 70 72 72 71 81 90 93 87 84 78 75 74 73 78 87 96 94 91
64 68 80 80 80 94 96 87 81 75 61 62 49 41 44 42 42 39 37 34 40 49 50 48 41 44 60 72 74 74 76 86 91 98 89 88 88 79 69 71 82 76 88 98
66 63 60 62 73 77 85 85 78 61 48 48 49 46 45 46 44 42 37 31 30 31 31 34 42 47 50 49 46 45 52 68 78 88 93 94 95 97 99 92 87 88 92 87
64 66 65 58 69 72 62 62 64 53 48 42 38 40 42 44 46 42 40 41 41 40 37 34 34 34 31 32 36 43 47 49 49 46 48 58 80 97 100 100 100 100 99 99
48 46 47 54 56 52 54 61 60 55 51 47 38 30 30 36 39 40 39 37 34 33 37 36 37 40 39 40 38 37 36 36 40 47 56 60 59 60 67 76 84 95 100 100
35 27 31 42 42 42 49 54 50 50 51 49 45 39 39 37 37 38 37 34 32 29 30 32 29 31 35 35 36 42 47 46 45 44 49 51 50 64 76 83 87 89 87 88
22 25 28 31 36 41 41 44 47 51 53 52 49 45 45 46 38 29 24 23 24 25 26 27 24 19 21 32 33 31 37 41 42 46 49 51 54 72 87 93 95 98 99 100
11 17 21 21 28 32 37 38 39 39 41 37 36 36 39 33 31 29 23 20 16 12 12 12 12 16 19 24 24 26 26 24 32 39 41 45 54 62 66 68 73 80 94 95
8 9 17 19 22 23 26 26 27 26 26 21 19 18 18 16 16 18 19 20 22 19 11 11 13 17 17 13 13 16 22 29 32 34 33 37 43 47 52 68 74 78 81 87
4 5 9 9 13 14 15 15 14 13 13 12 10 10 10 9 9 8 8 8 8 9 9 10 11 11 10 11 13 18 23 24 29 31 35 39 42 46 50 60 68 80 86 91
4 4 5 5 6 7 7 8 8 8 7 7 6 6 6 6 6 6 6 7 7 7 7 7 7 7 6 9 12 17 25 30 33 40 50 58 64 65 65 66 65 65 69 82
5 5 5 5 5 6 6 6 7 7 7 8 8 8 9 9 8 8 7 7 7 7 6 5 6 6 7 8 8 12 14 20 31 44 49 51 52 54 56 59 62 66 73 75
7 7 6 6 6 6 7 8 9 10 11 12 12 13 14 14 13 11 9 8 8 8 7 6 6 6 7 9 10 14 22 29 40 45 45 47 51 53 55 58 58 60 61 66
7 7 8 9 10 11 11 12 12 13 13 14 15 15 16 18 18 17 12 8 8 8 8 7 7 8 9 12 15 22 30 37 46 54 58 60 62 62 61 60 59 58 62 65
6 6 7 8 8 9 10 10 11 11 11 12 12 14 15 16 19 20 16 11 10 9 9 8 8 9 12 17 26 36 46 59 69 71 72 74 74 73 70 65 67 68 68 71
5 6 6 6 7 7 8 9 10 10 10 10 9 11 14 17 21 22 16 12 11 10 9 9 10 12 16 24 32 46 59 76 82 77 80 81 82 82 62 60 58 67 73 72
5 5 6 6 6 7 7 8 8 9 8 8 8 11 15 20 25 22 16 12 12 12 11 11 12 13 18 24 37 55 71 85 84 81 86 89 91 88 67 54 47 40 54 77
6 5 5 6 7 7 8 8 9 8 8 8 10 13 19 26 26 19 14 13 13 13 13 13 14 14 15 20 32 53 76 87 79 81 88 91 94 88 65 47 28 23 24 25
8 6 6 6 7 7 8 8 8 7 8 10 12 20 28 27 19 14 14 15 16 18 20 23 24 24 22 20 22 36 55 55 58 61 53 48 45 29 20 19 18 19 22 26
14 9 6 7 7 8 10 8 8 8 10 11 19 27 28 24 15 15 18 21 23 27 31 36 39 40 39 33 27 27 30 31 31 29 27 24 22 21 19 18 19 22 26 23
18 14 8 7 8 9 8 9 11 11 12 18 27 29 30 20 15 17 17 18 18 19 21 34 42 50 55 50 39 33 32 34 34 32 30 28 27 26 25 22 22 25 24 23
18 11 9 10 11 12 12 14 13 13 17 29 31 31 25 17 16 16 15 13 14 15 18 23 28 39 57 68 60 44 38 37 35 33 33 35 35 32 27 24 25 28 26 25
13 11 12 13 13 15 14 14 14 19 31 34 36 33 20 16 15 14 12 13 13 13 13 14 23 36 52 70 68 54 45 42 42 42 42 45 50 50 44 34 28 29 28 28

GFSNGP_700_rhum_126.txt.gz
RH
98 97 86 93 82 80 82 78 92 98 96 100 97 97 97 98 99 100 99 99 100 100 100 100 98 100 99 100 98 98 99 99 100 100 98 98 98 98 99 100 100 100 100 97
92 85 76 83 85 78 74 77 81 96 100 97 92 95 97 98 98 99 99 99 100 100 100 100 100 100 99 100 100 100 97 99 100 100 96 100 98 100 100 100 99 99 100 99
68 72 71 76 90 83 88 79 77 99 100 77 60 52 83 96 98 98 99 100 100 100 100 100 100 100 100 100 100 100 100 99 100 100 100 100 99 99 99 100 100 100 100 100
66 67 81 92 96 96 84 77 72 78 85 76 64 51 42 47 55 60 69 91 98 96 98 99 100 100 100 100 100 100 100 100 99 100 99 97 93 97 99 100 100 100 100 100
64 84 80 79 83 87 73 72 70 65 58 49 57 55 34 38 41 46 51 48 52 74 83 77 73 73 77 69 93 92 95 93 95 94 98 97 94 90 92 82 84 98 98 99
65 70 81 66 71 79 64 61 62 54 47 48 51 38 58 49 41 38 37 42 48 50 50 44 42 56 67 65 68 69 68 69 67 65 61 72 79 80 81 79 78 79 85 90
65 63 51 58 62 70 72 58 48 45 44 43 39 37 41 47 47 43 40 34 33 38 32 32 40 42 45 44 42 41 41 44 50 56 59 59 60 60 72 67 71 79 80 83
60 54 50 43 53 59 54 52 46 42 40 38 34 34 34 35 36 38 37 38 38 39 31 28 28 29 28 28 29 33 39 41 42 45 46 46 45 44 42 40 42 53 74 81
41 36 35 39 41 45 41 45 41 35 37 34 30 32 33 33 32 33 30 29 26 22 20 26 25 25 22 23 29 28 27 28 25 25 27 32 40 48 55 61 56 51 51 57
31 24 28 36 38 33 35 30 30 34 35 31 25 24 26 27 27 24 19 12 14 17 25 16 18 19 11 9 9 13 23 22 18 23 26 29 34 36 36 36 41 53 63 64
14 16 18 19 28 29 25 23 24 24 20 18 17 17 16 14 14 14 10 8 7 6 7 7 6 6 5 5 5 4 4 8 9 11 17 21 24 26 30 34 41 46 49 56
8 10 15 14 18 17 19 22 21 22 19 13 11 9 10 10 9 9 8 8 9 10 10 9 8 7 6 7 6 5 4 4 4 4 7 13 17 18 23 32 36 42 50 59
6 8 10 11 15 16 18 20 17 14 13 12 10 8 8 8 8 7 7 7 7 6 7 8 8 7 7 7 6 5 5 5 6 6 6 7 10 14 29 37 38 46 49 55
4 6 8 6 7 9 13 13 11 11 10 9 9 10 9 8 8 7 7 7 7 8 8 7 7 6 6 6 6 6 7 8 11 11 11 14 21 21 26 34 47 58 60 68
4 4 7 8 6 7 7 7 7 8 7 7 8 8 9 10 10 9 10 10 10 10 9 10 10 9 9 8 7 7 7 8 9 13 20 30 30 35 37 37 40 48 58 65
6 6 6 5 5 6 6 6 7 8 9 10 11 12 13 14 15 16 15 15 16 14 12 11 10 10 9 8 7 7 7 8 11 18 27 31 32 34 34 36 40 43 47 54
8 8 8 8 8 8 7 8 9 10 12 12 13 14 15 15 15 16 17 19 20 19 15 11 10 10 9 8 8 8 11 14 17 26 28 35 44 44 48 53 56 56 55 55
7 7 8 8 8 9 10 11 11 12 13 13 13 13 13 14 15 16 17 20 23 20 16 12 11 10 9 9 11 13 18 24 31 37 45 55 56 60 65 65 63 62 59 58
6 7 7 8 9 10 10 11 11 12 12 12 12 11 11 11 12 14 17 22 26 23 18 15 12 11 11 11 11 14 17 23 32 44 54 65 68 74 75 75 76 62 53 54
7 6 6 7 7 8 8 9 9 10 10 10 10 10 9 9 11 14 20 26 28 22 16 13 13 12 12 13 14 16 17 20 27 37 50 61 69 74 76 83 87 73 50 43
8 6 6 6 6 6 7 7 8 8 9 10 10 9 8 9 11 16 26 28 27 19 15 14 14 15 16 17 19 20 21 22 24 28 37 54 61 68 73 82 90 88 65 46
9 7 6 6 6 6 7 7 8 9 10 11 10 8 8 10 14 24 28 26 21 16 16 17 17 18 22 25 29 32 32 29 28 28 35 44 51 49 44 47 46 31 19 16
12 8 7 7 7 8 9 9 10 11 11 12 10 10 11 12 22 27 29 26 19 17 17 17 16 16 20 24 29 37 45 43 36 31 32 35 38 34 30 28 23 21 20 18
18 12 8 8 8 8 9 11 13 13 13 11 11 11 12 20 27 29 30 21 16 17 17 15 14 14 16 19 23 28 40 56 56 42 35 36 35 34 32 29 27 26 24 21
18 8 7 8 9 12 14 14 15 16 14 12 14 14 18 28 31 32 25 17 17 16 13 12 12 12 12 12 15 22 35 56 65 52 40 37 36 34 33 33 32 30 28 25
13 9 9 12 15 20 21 20 21 20 17 17 16 19 29 33 36 33 20 17 16 13 12 11 8 6 8 11 16 21 36 66 70 58 46 41 40 44 45 48 51 46 43 32
9 8 10 14 16 17 21 24 25 24 21 19 20 30 36 39 40 24 17 16 13 12 9 6 6 9 16 20 23 28 40 70 76 63 52 50 53 60 78 85 79 70 64 35

GFSNGP_700_rhum_129.txt.gz
RH
96 95 82 81 85 80 74 89 92 94 95 97 96 97 97 99 99 100 88 98 99 99 100 99 100 99 99 100 100 100 100 100 100 98 100 100 100 100 99 98 99 86 85 80
95 87 83 76 84 83 76 79 89 100 93 94 91 97 98 98 99 99 99 100 100 100 100 100 100 100 100 100 99 100 100 100 100 100 99 96 99 99 100 100 98 99 84 77
70 74 74 75 83 81 83 76 70 89 83 90 84 91 94 98 98 99 99 100 100 100 100 99 99 100 100 100 100 99 92 100 98 99 99 98 98 100 100 100 99 100 100 99
67 66 67 63 67 79 76 81 60 60 53 64 83 85 78 83 91 94 96 96 94 98 100 100 100 99 99 99 98 100 98 98 98 99 99 100 100 100 100 100 100 99 98 100
66 67 58 54 64 75 66 69 55 44 44 46 49 52 49 50 53 58 58 66 72 73 71 69 71 72 85 89 82 96 96 88 91 94 91 93 96 84 82 97 99 100 100 100
65 70 73 48 59 62 71 65 53 45 41 35 40 31 34 35 40 36 39 45 51 50 46 46 49 60 64 61 68 67 66 68 67 64 65 70 72 72 65 63 65 67 61 62
59 61 38 36 48 58 58 52 48 45 38 35 34 33 33 35 34 33 30 29 31 30 31 34 42 48 45 41 39 36 36 41 41 38 39 41 50 57 58 53 70 71 66 64
57 50 39 32 42 43 38 40 40 34 31 29 27 28 28 27 29 28 27 27 25 27 30 31 29 30 30 27 25 27 28 32 30 31 32 33 32 34 36 37 38 37 39 44
32 22 19 28 35 38 32 35 34 30 33 29 21 21 24 24 24 22 18 15 13 18 14 13 13 13 17 18 22 22 19 24 25 25 27 27 23 25 26 27 30 37 42 45
19 11 12 16 20 25 21 22 19 18 16 16 15 13 15 16 14 9 6 6 6 6 4 5 6 6 4 5 5 5 6 8 9 12 12 14 12 14 22 25 26 30 32 34
6 6 7 8 8 9 10 11 10 7 6 6 6 7 6 6 5 5 5 5 5 5 5 5 5 5 5 5 5 5 4 5 5 4 4 5 5 6 7 10 14 16 21 24
4 5 5 4 6 6 6 7 7 6 6 6 8 7 7 6 6 5 5 5 5 5 5 5 5 5 5 5 5 5 5 6 6 6 6 5 5 5 5 5 6 7 8 13
4 4 5 4 5 5 6 6 6 7 7 7 6 7 7 7 6 6 6 7 7 6 6 7 7 8 7 7 7 6 6 7 7 7 6 6 6 6 6 6 6 6 7 10
3 3 4 4 5 4 5 6 6 6 6 6 6 6 6 7 7 8 8 9 8 9 8 8 8 8 8 8 8 8 8 8 8 8 7 8 7 7 7 7 8 11 14 13
6 5 4 6 5 5 6 6 7 7 7 7 9 10 10 11 11 11 12 13 14 13 12 11 10 10 10 10 10 10 10 10 9 9 9 9 9 10 10 10 11 15 18 21
6 7 6 6 6 6 6 7 7 8 8 10 11 13 14 15 15 15 15 16 17 20 22 21 19 16 15 14 13 12 11 10 10 10 11 11 12 12 13 16 20 23 29 35
9 9 9 9 9 9 9 7 8 8 10 12 13 14 14 14 14 14 14 14 15 19 24 25 23 20 19 16 14 13 12 12 12 12 13 14 15 16 21 27 33 40 45 50
7 7 7 8 8 8 8 9 10 11 13 13 15 14 13 12 12 11 11 12 13 19 26 28 26 23 18 16 15 14 14 14 14 15 16 17 19 23 31 40 48 56 63 66
6 6 7 8 8 9 10 10 10 11 12 13 13 12 12 11 10 9 9 10 11 20 28 30 26 22 18 17 16 16 15 16 17 18 19 22 24 29 38 47 52 58 64 73
8 6 6 6 7 7 8 9 10 10 11 11 11 11 11 10 9 8 8 10 12 24 29 30 26 20 18 18 19 17 17 17 18 19 21 25 29 32 36 45 54 62 64 72
11 8 6 6 6 6 7 8 8 8 9 10 10 11 11 10 10 8 9 11 18 25 30 29 23 20 20 19 17 16 15 16 18 22 26 32 35 35 35 42 50 45 38 38
10 9 8 7 6 6 6 7 8 8 8 9 10 12 13 14 11 10 11 16 23 26 29 25 19 19 19 17 14 13 12 14 17 23 33 44 44 40 35 38 39 36 31 26
10 10 10 10 8 8 8 8 9 10 11 13 14 15 17 17 13 13 15 21 25 30 27 19 18 19 17 13 12 10 9 10 14 21 30 45 58 53 41 37 36 35 32 29
13 12 11 11 10 10 9 9 12 13 16 18 19 22 25 20 15 16 22 27 30 32 23 18 19 17 13 12 8 6 7 9 12 16 24 43 64 61 48 40 37 34 33 33
31 24 20 12 12 10 11 14 16 17 21 25 28 31 32 23 19 21 30 34 36 30 18 18 16 13 11 7 6 7 12 15 17 20 24 42 68 67 51 42 40 46 56 66
65 62 58 54 29 12 13 16 19 25 30 32 37 41 34 26 26 34 51 87 64 30 18 16 13 10 7 6 7 10 12 12 14 21 31 62 74 63 52 53 58 85 83 71
77 69 59 69 74 53 14 17 22 30 39 42 44 45 35 34 67 87 94 93 76 31 16 13 10 6 6 8 10 11 12 11 14 22 39 67 74 64 64 71 94 93 82 69